Time,TemperatureF,DewpointF,PressureIn,WindDirection,WindDirectionDegrees,WindSpeedMPH,WindSpeedGustMPH,Humidity,HourlyPrecipIn,Conditions,Clouds,dailyrainin,SolarRadiationWatts/m^2,SoftwareType,DateUTC
2013-11-04 00:00:00,31.0,26.5,30.89,SE,143,0.0,6.0,83,0.00,,,0.01,0.00,VWS V14.00,2013-11-04 07:00:00,
2013-11-04 00:01:00,31.0,26.5,30.89,SE,143,0.0,0.0,83,0.00,,,0.00,0.00,VWS V14.00,2013-11-04 07:01:00,
2013-11-04 00:02:00,31.0,26.5,30.89,SE,142,0.0,0.0,83,0.00,,,0.00,0.00,VWS V14.00,2013-11-04 07:02:00,
2013-11-04 00:03:00,31.0,26.5,30.89,SE,143,0.0,3.0,83,0.00,,,0.00,0.00,VWS V14.00,2013-11-04 07:03:00,
2013-11-04 00:04:00,31.0,26.5,30.89,SE,142,3.0,3.0,83,0.00,,,0.00,0.00,VWS V14.00,2013-11-04 07:04:00,
2013-11-04 00:05:00,31.0,26.2,30.89,SE,143,0.0,3.0,82,0.00,,,0.00,0.00,VWS V14.00,2013-11-04 07:05:00,
2013-11-04 00:06:00,31.0,26.2,30.89,SE,143,0.0,3.0,82,0.00,,,0.00,0.00,VWS V14.00,2013-11-04 07:06:00,
2013-11-04 00:07:00,31.0,26.2,30.89,SE,143,0.0,3.0,82,0.00,,,0.00,0.00,VWS V14.00,2013-11-04 07:07:00,
2013-11-04 00:08:00,31.0,26.2,30.89,SE,142,0.0,3.0,82,0.00,,,0.00,0.00,VWS V14.00,2013-11-04 07:08:00,
2013-11-04 00:09:00,31.0,26.2,30.89,SE,143,1.0,3.0,82,0.00,,,0.00,0.00,VWS V14.00,2013-11-04 07:09:00,
2013-11-04 00:10:00,31.0,26.2,30.89,SE,143,0.0,3.0,82,0.00,,,0.00,0.00,VWS V14.00,2013-11-04 07:10:00,
2013-11-04 00:11:00,31.0,26.2,30.89,SE,134,3.0,3.0,82,0.00,,,0.00,0.00,VWS V14.00,2013-11-04 07:11:00,
2013-11-04 00:12:00,31.0,26.2,30.89,SE,134,0.0,3.0,82,0.00,,,0.00,0.00,VWS V14.00,2013-11-04 07:12:00,
2013-11-04 00:13:00,31.0,26.2,30.89,SE,134,0.0,3.0,82,0.00,,,0.00,0.00,VWS V14.00,2013-11-04 07:13:00,
2013-11-04 00:14:00,31.0,26.2,30.89,SE,134,0.0,3.0,82,0.00,,,0.00,0.00,VWS V14.00,2013-11-04 07:14:00,
2013-11-04 00:15:00,31.0,26.2,30.89,SE,134,0.0,3.0,82,0.00,,,0.00,0.00,VWS V14.00,2013-11-04 07:15:00,
2013-11-04 00:16:00,31.0,26.2,30.89,SE,134,0.0,0.0,82,0.00,,,0.00,0.00,VWS V14.00,2013-11-04 07:16:00,
2013-11-04 00:17:00,31.0,26.2,30.89,SE,134,0.0,0.0,82,0.00,,,0.00,0.00,VWS V14.00,2013-11-04 07:17:00,
2013-11-04 00:18:00,31.0,26.2,30.89,SE,134,0.0,0.0,82,0.00,,,0.00,0.00,VWS V14.00,2013-11-04 07:18:00,
2013-11-04 00:19:00,31.0,26.2,30.89,SE,134,0.0,0.0,82,0.00,,,0.00,0.00,VWS V14.00,2013-11-04 07:19:00,
2013-11-04 00:20:00,31.0,26.2,30.89,SE,134,0.0,0.0,82,0.00,,,0.00,0.00,VWS V14.00,2013-11-04 07:20:00,
2013-11-04 00:21:00,30.9,26.1,30.89,SE,134,0.0,0.0,82,0.00,,,0.00,0.00,VWS V14.00,2013-11-04 07:21:00,
2013-11-04 00:22:00,30.9,26.1,30.89,SE,134,3.0,3.0,82,0.00,,,0.00,0.00,VWS V14.00,2013-11-04 07:22:00,
2013-11-04 00:23:00,30.9,26.1,30.89,SE,134,4.0,5.0,82,0.00,,,0.00,0.00,VWS V14.00,2013-11-04 07:23:00,
2013-11-04 00:24:00,30.9,26.1,30.89,SE,133,2.0,5.0,82,0.00,,,0.00,0.00,VWS V14.00,2013-11-04 07:24:00,
2013-11-04 00:25:00,30.9,26.1,30.89,SE,133,2.0,5.0,82,0.00,,,0.00,0.00,VWS V14.00,2013-11-04 07:25:00,
2013-11-04 00:26:00,30.9,26.1,30.89,SE,134,3.0,5.0,82,0.00,,,0.00,0.00,VWS V14.00,2013-11-04 07:26:00,
2013-11-04 00:27:00,30.9,26.4,30.89,SE,138,3.0,5.0,83,0.00,,,0.00,0.00,VWS V14.00,2013-11-04 07:27:00,
2013-11-04 00:28:00,30.9,26.4,30.89,SE,146,2.0,5.0,83,0.00,,,0.00,0.00,VWS V14.00,2013-11-04 07:28:00,
2013-11-04 00:29:00,30.9,26.4,30.89,SE,145,2.0,5.0,83,0.00,,,0.00,0.00,VWS V14.00,2013-11-04 07:29:00,
2013-11-04 00:30:00,30.9,26.4,30.89,SE,145,2.0,5.0,83,0.00,,,0.00,0.00,VWS V14.00,2013-11-04 07:30:00,
2013-11-04 00:31:00,30.9,26.4,30.89,SE,146,3.0,3.0,83,0.00,,,0.00,0.00,VWS V14.00,2013-11-04 07:31:00,
2013-11-04 00:32:00,30.9,26.4,30.89,SSE,160,3.0,5.0,83,0.00,,,0.00,0.00,VWS V14.00,2013-11-04 07:32:00,
2013-11-04 00:33:00,30.9,26.4,30.89,SSE,158,2.0,5.0,83,0.00,,,0.00,0.00,VWS V14.00,2013-11-04 07:33:00,
2013-11-04 00:34:00,30.8,26.3,30.89,SSE,158,3.0,5.0,83,0.00,,,0.00,0.00,VWS V14.00,2013-11-04 07:34:00,
2013-11-04 00:35:00,30.8,26.3,30.89,SSE,159,3.0,5.0,83,0.00,,,0.00,0.00,VWS V14.00,2013-11-04 07:35:00,
2013-11-04 00:36:00,30.8,26.3,30.89,SSE,159,3.0,5.0,83,0.00,,,0.00,0.00,VWS V14.00,2013-11-04 07:36:00,
2013-11-04 00:37:00,30.8,26.3,30.89,SSE,159,0.0,5.0,83,0.00,,,0.00,0.00,VWS V14.00,2013-11-04 07:37:00,
2013-11-04 00:38:00,30.8,26.3,30.89,SSE,159,0.0,5.0,83,0.00,,,0.00,0.00,VWS V14.00,2013-11-04 07:38:00,
2013-11-04 00:39:00,30.8,26.3,30.89,SSE,159,0.0,5.0,83,0.00,,,0.00,0.00,VWS V14.00,2013-11-04 07:39:00,
2013-11-04 00:40:00,30.8,26.3,30.89,SSE,159,0.0,5.0,83,0.00,,,0.00,0.00,VWS V14.00,2013-11-04 07:40:00,
2013-11-04 00:41:00,30.8,26.3,30.89,SSE,159,0.0,5.0,83,0.00,,,0.00,0.00,VWS V14.00,2013-11-04 07:41:00,
2013-11-04 00:42:00,30.7,26.2,30.89,SSE,159,0.0,5.0,83,0.00,,,0.00,0.00,VWS V14.00,2013-11-04 07:42:00,
2013-11-04 00:43:00,30.7,26.2,30.89,SSE,159,0.0,5.0,83,0.00,,,0.00,0.00,VWS V14.00,2013-11-04 07:43:00,
2013-11-04 00:44:00,30.7,26.2,30.89,SSE,159,0.0,5.0,83,0.00,,,0.00,0.00,VWS V14.00,2013-11-04 07:44:00,
2013-11-04 00:45:00,30.7,26.2,30.89,SSE,159,0.0,5.0,83,0.00,,,0.00,0.00,VWS V14.00,2013-11-04 07:45:00,
2013-11-04 00:46:00,30.6,25.8,30.89,SSE,159,0.0,0.0,82,0.00,,,0.00,0.00,VWS V14.00,2013-11-04 07:46:00,
2013-11-04 00:47:00,30.6,25.8,30.89,SSE,159,0.0,0.0,82,0.00,,,0.00,0.00,VWS V14.00,2013-11-04 07:47:00,
2013-11-04 00:48:00,30.6,25.8,30.89,SSE,159,0.0,0.0,82,0.00,,,0.00,0.00,VWS V14.00,2013-11-04 07:48:00,
2013-11-04 00:49:00,30.5,25.7,30.89,SSE,159,0.0,0.0,82,0.00,,,0.00,0.00,VWS V14.00,2013-11-04 07:49:00,
2013-11-04 00:50:00,30.5,25.7,30.89,SSE,159,0.0,0.0,82,0.00,,,0.00,0.00,VWS V14.00,2013-11-04 07:50:00,
2013-11-04 00:51:00,30.5,25.7,30.89,SSE,159,0.0,0.0,82,0.00,,,0.00,0.00,VWS V14.00,2013-11-04 07:51:00,
2013-11-04 00:52:00,30.4,25.6,30.89,SSE,159,0.0,0.0,82,0.00,,,0.00,0.00,VWS V14.00,2013-11-04 07:52:00,
2013-11-04 00:53:00,30.4,25.6,30.89,SSE,159,0.0,0.0,82,0.00,,,0.00,0.00,VWS V14.00,2013-11-04 07:53:00,
2013-11-04 00:54:00,30.4,25.6,30.89,SSE,159,0.0,0.0,82,0.00,,,0.00,0.00,VWS V14.00,2013-11-04 07:54:00,
2013-11-04 00:55:00,30.3,25.5,30.89,SSE,159,0.0,0.0,82,0.00,,,0.00,0.00,VWS V14.00,2013-11-04 07:55:00,
2013-11-04 00:56:00,30.3,25.5,30.89,SSE,159,0.0,0.0,82,0.00,,,0.00,0.00,VWS V14.00,2013-11-04 07:56:00,
2013-11-04 00:57:00,30.2,25.4,30.89,SSE,159,0.0,0.0,82,0.00,,,0.00,0.00,VWS V14.00,2013-11-04 07:57:00,
2013-11-04 00:58:00,30.2,25.4,30.89,SSE,159,0.0,0.0,82,0.00,,,0.00,0.00,VWS V14.00,2013-11-04 07:58:00,
2013-11-04 00:59:00,30.1,25.3,30.89,SSE,159,0.0,0.0,82,0.00,,,0.00,0.00,VWS V14.00,2013-11-04 07:59:00,
2013-11-04 01:00:00,30.1,25.3,30.89,SSE,159,0.0,0.0,82,0.00,,,0.00,0.00,VWS V14.00,2013-11-04 08:00:00,
2013-11-04 01:01:00,30.0,25.2,30.90,SSE,159,0.0,0.0,82,0.00,,,0.00,0.00,VWS V14.00,2013-11-04 08:01:00,
2013-11-04 01:02:00,30.0,25.2,30.90,SSE,159,0.0,0.0,82,0.00,,,0.00,0.00,VWS V14.00,2013-11-04 08:02:00,
2013-11-04 01:03:00,29.9,25.1,30.90,SSE,159,0.0,0.0,82,0.00,,,0.00,0.00,VWS V14.00,2013-11-04 08:03:00,
2013-11-04 01:04:00,29.9,25.1,30.90,SSE,159,0.0,0.0,82,0.00,,,0.00,0.00,VWS V14.00,2013-11-04 08:04:00,
2013-11-04 01:05:00,29.9,25.1,30.90,SSE,159,0.0,0.0,82,0.00,,,0.00,0.00,VWS V14.00,2013-11-04 08:05:00,
2013-11-04 01:06:00,29.8,25.0,30.90,SSE,159,0.0,0.0,82,0.00,,,0.00,0.00,VWS V14.00,2013-11-04 08:06:00,
2013-11-04 01:07:00,29.8,25.0,30.90,SSE,159,0.0,0.0,82,0.00,,,0.00,0.00,VWS V14.00,2013-11-04 08:07:00,
2013-11-04 01:08:00,29.8,25.0,30.90,SSE,159,0.0,0.0,82,0.00,,,0.00,0.00,VWS V14.00,2013-11-04 08:08:00,
2013-11-04 01:09:00,29.8,25.0,30.90,SSE,159,0.0,0.0,82,0.00,,,0.00,0.00,VWS V14.00,2013-11-04 08:09:00,
2013-11-04 01:10:00,29.8,25.0,30.90,SSE,159,0.0,0.0,82,0.00,,,0.00,0.00,VWS V14.00,2013-11-04 08:10:00,
2013-11-04 01:11:00,29.8,25.0,30.90,SSE,159,0.0,0.0,82,0.00,,,0.00,0.00,VWS V14.00,2013-11-04 08:11:00,
2013-11-04 01:12:00,29.7,24.9,30.90,SSE,159,0.0,0.0,82,0.00,,,0.00,0.00,VWS V14.00,2013-11-04 08:12:00,
2013-11-04 01:13:00,29.7,24.9,30.90,SSE,159,0.0,0.0,82,0.00,,,0.00,0.00,VWS V14.00,2013-11-04 08:13:00,
2013-11-04 01:14:00,29.7,24.9,30.90,SSE,159,0.0,0.0,82,0.00,,,0.00,0.00,VWS V14.00,2013-11-04 08:14:00,
2013-11-04 01:15:00,29.7,24.9,30.90,SSE,159,0.0,0.0,82,0.00,,,0.00,0.00,VWS V14.00,2013-11-04 08:15:00,
2013-11-04 01:16:00,29.7,24.6,30.90,SSE,159,0.0,0.0,81,0.00,,,0.00,0.00,VWS V14.00,2013-11-04 08:16:00,
2013-11-04 01:17:00,29.6,24.5,30.90,SSE,159,0.0,0.0,81,0.00,,,0.00,0.00,VWS V14.00,2013-11-04 08:17:00,
2013-11-04 01:18:00,29.6,24.5,30.90,SSE,159,0.0,0.0,81,0.00,,,0.00,0.00,VWS V14.00,2013-11-04 08:18:00,
2013-11-04 01:19:00,29.6,24.5,30.90,SSE,159,0.0,0.0,81,0.00,,,0.00,0.00,VWS V14.00,2013-11-04 08:19:00,
2013-11-04 01:20:00,29.6,24.5,30.90,SSE,159,0.0,0.0,81,0.00,,,0.00,0.00,VWS V14.00,2013-11-04 08:20:00,
2013-11-04 01:21:00,29.6,24.5,30.90,SSE,159,0.0,1.0,81,0.00,,,0.00,0.00,VWS V14.00,2013-11-04 08:21:00,
2013-11-04 01:22:00,29.5,24.4,30.91,SSE,159,0.0,1.0,81,0.00,,,0.00,0.00,VWS V14.00,2013-11-04 08:22:00,
2013-11-04 01:23:00,29.5,24.1,30.91,SSE,159,0.0,1.0,80,0.00,,,0.00,0.00,VWS V14.00,2013-11-04 08:23:00,
2013-11-04 01:24:00,29.5,24.1,30.91,SSE,159,0.0,1.0,80,0.00,,,0.00,0.00,VWS V14.00,2013-11-04 08:24:00,
2013-11-04 01:25:00,29.4,24.3,30.90,SSE,159,0.0,1.0,81,0.00,,,0.00,0.00,VWS V14.00,2013-11-04 08:25:00,
2013-11-04 01:26:00,29.4,24.3,30.90,SSE,159,0.0,1.0,81,0.00,,,0.00,0.00,VWS V14.00,2013-11-04 08:26:00,
2013-11-04 01:27:00,29.4,24.3,30.90,SSE,159,0.0,1.0,81,0.00,,,0.00,0.00,VWS V14.00,2013-11-04 08:27:00,
2013-11-04 01:28:00,29.4,24.3,30.90,SSE,159,0.0,1.0,81,0.00,,,0.00,0.00,VWS V14.00,2013-11-04 08:28:00,
2013-11-04 01:29:00,29.3,24.2,30.90,SSE,159,0.0,1.0,81,0.00,,,0.00,0.00,VWS V14.00,2013-11-04 08:29:00,
2013-11-04 01:30:00,29.3,24.2,30.90,SSE,159,0.0,1.0,81,0.00,,,0.00,0.00,VWS V14.00,2013-11-04 08:30:00,
2013-11-04 01:31:00,29.3,24.2,30.90,SSE,159,0.0,0.0,81,0.00,,,0.00,0.00,VWS V14.00,2013-11-04 08:31:00,
2013-11-04 01:32:00,29.2,24.1,30.90,SSE,159,0.0,0.0,81,0.00,,,0.00,0.00,VWS V14.00,2013-11-04 08:32:00,
2013-11-04 01:33:00,29.2,24.1,30.90,SSE,159,0.0,0.0,81,0.00,,,0.00,0.00,VWS V14.00,2013-11-04 08:33:00,
2013-11-04 01:34:00,29.2,24.1,30.90,SSE,159,0.0,0.0,81,0.00,,,0.00,0.00,VWS V14.00,2013-11-04 08:34:00,
2013-11-04 01:35:00,29.2,24.1,30.90,SSE,159,0.0,0.0,81,0.00,,,0.00,0.00,VWS V14.00,2013-11-04 08:35:00,
2013-11-04 01:36:00,29.2,24.1,30.90,SSE,159,0.0,0.0,81,0.00,,,0.00,0.00,VWS V14.00,2013-11-04 08:36:00,
2013-11-04 01:37:00,29.2,24.1,30.90,SSE,159,0.0,0.0,81,0.00,,,0.00,0.00,VWS V14.00,2013-11-04 08:37:00,
2013-11-04 01:38:00,29.2,24.1,30.90,SSE,159,0.0,0.0,81,0.00,,,0.00,0.00,VWS V14.00,2013-11-04 08:38:00,
2013-11-04 01:39:00,29.1,24.0,30.90,SSE,159,0.0,0.0,81,0.00,,,0.00,0.00,VWS V14.00,2013-11-04 08:39:00,
2013-11-04 01:40:00,29.1,24.0,30.90,SSE,159,0.0,0.0,81,0.00,,,0.00,0.00,VWS V14.00,2013-11-04 08:40:00,
2013-11-04 01:41:00,29.1,24.0,30.90,SSE,159,0.0,0.0,81,0.00,,,0.00,0.00,VWS V14.00,2013-11-04 08:41:00,
2013-11-04 01:42:00,29.1,24.0,30.90,SSE,159,0.0,0.0,81,0.00,,,0.00,0.00,VWS V14.00,2013-11-04 08:42:00,
2013-11-04 01:43:00,29.1,24.0,30.90,SSE,159,0.0,0.0,81,0.00,,,0.00,0.00,VWS V14.00,2013-11-04 08:43:00,
2013-11-04 01:44:00,29.1,24.0,30.90,SSE,159,0.0,0.0,81,0.00,,,0.00,0.00,VWS V14.00,2013-11-04 08:44:00,
2013-11-04 01:45:00,29.0,23.6,30.90,SSE,159,0.0,0.0,80,0.00,,,0.00,0.00,VWS V14.00,2013-11-04 08:45:00,
2013-11-04 01:46:00,29.1,23.7,30.90,SSE,159,0.0,0.0,80,0.00,,,0.00,0.00,VWS V14.00,2013-11-04 08:46:00,
2013-11-04 01:47:00,29.0,23.6,30.90,SSE,159,0.0,0.0,80,0.00,,,0.00,0.00,VWS V14.00,2013-11-04 08:47:00,
2013-11-04 01:48:00,29.0,23.6,30.90,SSE,159,0.0,0.0,80,0.00,,,0.00,0.00,VWS V14.00,2013-11-04 08:48:00,
2013-11-04 01:49:00,29.0,23.6,30.90,SSE,159,0.0,0.0,80,0.00,,,0.00,0.00,VWS V14.00,2013-11-04 08:49:00,
2013-11-04 01:50:00,29.0,23.6,30.90,SSE,159,0.0,0.0,80,0.00,,,0.00,0.00,VWS V14.00,2013-11-04 08:50:00,
2013-11-04 01:51:00,29.0,23.6,30.90,SSE,159,0.0,0.0,80,0.00,,,0.00,0.00,VWS V14.00,2013-11-04 08:51:00,
2013-11-04 01:52:00,29.1,23.7,30.90,SSE,159,0.0,0.0,80,0.00,,,0.00,0.00,VWS V14.00,2013-11-04 08:52:00,
2013-11-04 01:53:00,29.1,23.7,30.90,SSE,159,0.0,0.0,80,0.00,,,0.00,0.00,VWS V14.00,2013-11-04 08:53:00,
2013-11-04 01:54:00,29.1,23.7,30.90,SSE,159,0.0,0.0,80,0.00,,,0.00,0.00,VWS V14.00,2013-11-04 08:54:00,
2013-11-04 01:55:00,29.0,23.6,30.90,SSE,159,0.0,0.0,80,0.00,,,0.00,0.00,VWS V14.00,2013-11-04 08:55:00,
2013-11-04 01:56:00,29.1,23.7,30.90,SSE,159,0.0,0.0,80,0.00,,,0.00,0.00,VWS V14.00,2013-11-04 08:56:00,
2013-11-04 01:57:00,29.0,23.6,30.90,SSE,159,0.0,0.0,80,0.00,,,0.00,0.00,VWS V14.00,2013-11-04 08:57:00,
2013-11-04 01:58:00,29.0,23.6,30.90,SSE,159,0.0,0.0,80,0.00,,,0.00,0.00,VWS V14.00,2013-11-04 08:58:00,
2013-11-04 01:59:00,29.0,23.6,30.90,SSE,159,0.0,0.0,80,0.00,,,0.00,0.00,VWS V14.00,2013-11-04 08:59:00,
2013-11-04 02:00:00,29.0,23.6,30.90,SSE,159,0.0,0.0,80,0.00,,,0.00,0.00,VWS V14.00,2013-11-04 09:00:00,
2013-11-04 02:01:00,29.0,23.6,30.90,SSE,159,0.0,0.0,80,0.00,,,0.00,0.00,VWS V14.00,2013-11-04 09:01:00,
2013-11-04 02:02:00,29.0,23.6,30.90,SSE,159,0.0,0.0,80,0.00,,,0.00,0.00,VWS V14.00,2013-11-04 09:02:00,
2013-11-04 02:03:00,29.0,23.3,30.90,SSE,159,0.0,0.0,79,0.00,,,0.00,0.00,VWS V14.00,2013-11-04 09:03:00,
2013-11-04 02:04:00,29.0,23.3,30.90,SSE,159,0.0,0.0,79,0.00,,,0.00,0.00,VWS V14.00,2013-11-04 09:04:00,
2013-11-04 02:05:00,28.9,23.2,30.90,SSE,159,0.0,0.0,79,0.00,,,0.00,0.00,VWS V14.00,2013-11-04 09:05:00,
2013-11-04 02:06:00,28.9,23.2,30.90,SSE,159,0.0,0.0,79,0.00,,,0.00,0.00,VWS V14.00,2013-11-04 09:06:00,
2013-11-04 02:07:00,28.9,23.2,30.91,SSE,159,0.0,0.0,79,0.00,,,0.00,0.00,VWS V14.00,2013-11-04 09:07:00,
2013-11-04 02:08:00,28.9,23.2,30.91,SSE,159,0.0,0.0,79,0.00,,,0.00,0.00,VWS V14.00,2013-11-04 09:08:00,
2013-11-04 02:09:00,28.9,23.2,30.90,SSE,159,0.0,0.0,79,0.00,,,0.00,0.00,VWS V14.00,2013-11-04 09:09:00,
2013-11-04 02:10:00,28.9,23.2,30.91,SSE,159,0.0,0.0,79,0.00,,,0.00,0.00,VWS V14.00,2013-11-04 09:10:00,
2013-11-04 02:11:00,28.9,23.2,30.91,SSE,159,0.0,0.0,79,0.00,,,0.00,0.00,VWS V14.00,2013-11-04 09:11:00,
2013-11-04 02:12:00,28.9,23.2,30.90,SSE,159,0.0,0.0,79,0.00,,,0.00,0.00,VWS V14.00,2013-11-04 09:12:00,
2013-11-04 02:13:00,28.8,23.1,30.91,SSE,159,0.0,0.0,79,0.00,,,0.00,0.00,VWS V14.00,2013-11-04 09:13:00,
2013-11-04 02:14:00,28.8,23.1,30.91,SSE,159,0.0,0.0,79,0.00,,,0.00,0.00,VWS V14.00,2013-11-04 09:14:00,
2013-11-04 02:15:00,28.8,23.1,30.91,SSE,159,0.0,0.0,79,0.00,,,0.00,0.00,VWS V14.00,2013-11-04 09:15:00,
2013-11-04 02:16:00,28.8,23.1,30.91,SSE,159,0.0,0.0,79,0.00,,,0.00,0.00,VWS V14.00,2013-11-04 09:16:00,
2013-11-04 02:17:00,28.8,23.1,30.91,SSE,159,0.0,0.0,79,0.00,,,0.00,0.00,VWS V14.00,2013-11-04 09:17:00,
2013-11-04 02:18:00,28.8,23.1,30.91,SSE,159,0.0,0.0,79,0.00,,,0.00,0.00,VWS V14.00,2013-11-04 09:18:00,
2013-11-04 02:19:00,28.8,23.1,30.91,SSE,159,0.0,0.0,79,0.00,,,0.00,0.00,VWS V14.00,2013-11-04 09:19:00,
2013-11-04 02:20:00,28.8,23.1,30.91,SSE,159,0.0,0.0,79,0.00,,,0.00,0.00,VWS V14.00,2013-11-04 09:20:00,
2013-11-04 02:21:00,28.8,23.1,30.91,SSE,159,0.0,0.0,79,0.00,,,0.00,0.00,VWS V14.00,2013-11-04 09:21:00,
2013-11-04 02:22:00,28.8,23.1,30.91,SSE,159,0.0,0.0,79,0.00,,,0.00,0.00,VWS V14.00,2013-11-04 09:22:00,
2013-11-04 02:23:00,28.8,23.4,30.91,SSE,159,0.0,0.0,80,0.00,,,0.00,0.00,VWS V14.00,2013-11-04 09:23:00,
2013-11-04 02:24:00,28.8,23.4,30.91,SSE,159,0.0,0.0,80,0.00,,,0.00,0.00,VWS V14.00,2013-11-04 09:24:00,
2013-11-04 02:25:00,28.8,23.4,30.91,SSE,159,0.0,0.0,80,0.00,,,0.00,0.00,VWS V14.00,2013-11-04 09:25:00,
2013-11-04 02:26:00,28.8,23.4,30.91,SSE,159,0.0,0.0,80,0.00,,,0.00,0.00,VWS V14.00,2013-11-04 09:26:00,
2013-11-04 02:27:00,28.8,23.7,30.91,SSE,159,0.0,0.0,81,0.00,,,0.00,0.00,VWS V14.00,2013-11-04 09:27:00,
2013-11-04 02:28:00,28.8,23.7,30.91,SSE,159,0.0,0.0,81,0.00,,,0.00,0.00,VWS V14.00,2013-11-04 09:28:00,
2013-11-04 02:29:00,28.8,23.7,30.91,SSE,159,0.0,0.0,81,0.00,,,0.00,0.00,VWS V14.00,2013-11-04 09:29:00,
2013-11-04 02:30:00,28.8,23.7,30.91,SSE,159,0.0,0.0,81,0.00,,,0.00,0.00,VWS V14.00,2013-11-04 09:30:00,
2013-11-04 02:31:00,28.7,23.6,30.91,SSE,159,0.0,0.0,81,0.00,,,0.00,0.00,VWS V14.00,2013-11-04 09:31:00,
2013-11-04 02:32:00,28.8,23.7,30.91,SSE,159,0.0,0.0,81,0.00,,,0.00,0.00,VWS V14.00,2013-11-04 09:32:00,
2013-11-04 02:33:00,28.8,23.7,30.91,SSE,159,0.0,0.0,81,0.00,,,0.00,0.00,VWS V14.00,2013-11-04 09:33:00,
2013-11-04 02:34:00,28.8,23.7,30.91,SSE,159,0.0,0.0,81,0.00,,,0.00,0.00,VWS V14.00,2013-11-04 09:34:00,
2013-11-04 02:35:00,28.8,23.7,30.91,SSE,159,0.0,0.0,81,0.00,,,0.00,0.00,VWS V14.00,2013-11-04 09:35:00,
2013-11-04 02:36:00,28.8,23.7,30.91,SSE,159,0.0,0.0,81,0.00,,,0.00,0.00,VWS V14.00,2013-11-04 09:36:00,
2013-11-04 02:37:00,28.8,23.7,30.91,SSE,159,0.0,0.0,81,0.00,,,0.00,0.00,VWS V14.00,2013-11-04 09:37:00,
2013-11-04 02:38:00,28.8,23.7,30.91,SSE,159,0.0,0.0,81,0.00,,,0.00,0.00,VWS V14.00,2013-11-04 09:38:00,
2013-11-04 02:39:00,28.8,23.7,30.91,SSE,159,0.0,0.0,81,0.00,,,0.00,0.00,VWS V14.00,2013-11-04 09:39:00,
2013-11-04 02:40:00,28.8,23.7,30.91,SSE,159,0.0,0.0,81,0.00,,,0.00,0.00,VWS V14.00,2013-11-04 09:40:00,
2013-11-04 02:41:00,28.8,23.7,30.91,SSE,159,0.0,0.0,81,0.00,,,0.00,0.00,VWS V14.00,2013-11-04 09:41:00,
2013-11-04 02:42:00,28.8,23.7,30.91,SSE,159,0.0,0.0,81,0.00,,,0.00,0.00,VWS V14.00,2013-11-04 09:42:00,
2013-11-04 02:43:00,28.8,23.7,30.91,SSE,159,0.0,0.0,81,0.00,,,0.00,0.00,VWS V14.00,2013-11-04 09:43:00,
2013-11-04 02:44:00,28.8,23.7,30.91,SSE,159,0.0,0.0,81,0.00,,,0.00,0.00,VWS V14.00,2013-11-04 09:44:00,
2013-11-04 02:45:00,28.8,23.7,30.91,SSE,159,0.0,0.0,81,0.00,,,0.00,0.00,VWS V14.00,2013-11-04 09:45:00,
2013-11-04 02:46:00,28.8,23.7,30.91,SSE,159,0.0,0.0,81,0.00,,,0.00,0.00,VWS V14.00,2013-11-04 09:46:00,
2013-11-04 02:47:00,28.8,23.7,30.91,SSE,159,0.0,0.0,81,0.00,,,0.00,0.00,VWS V14.00,2013-11-04 09:47:00,
2013-11-04 02:48:00,28.8,23.7,30.91,SSE,159,0.0,0.0,81,0.00,,,0.00,0.00,VWS V14.00,2013-11-04 09:48:00,
2013-11-04 02:49:00,28.8,23.7,30.91,SSE,159,0.0,0.0,81,0.00,,,0.00,0.00,VWS V14.00,2013-11-04 09:49:00,
2013-11-04 02:50:00,28.8,23.7,30.91,SSE,159,0.0,0.0,81,0.00,,,0.00,0.00,VWS V14.00,2013-11-04 09:50:00,
2013-11-04 02:51:00,28.8,23.7,30.91,SSE,159,0.0,0.0,81,0.00,,,0.00,0.00,VWS V14.00,2013-11-04 09:51:00,
2013-11-04 02:52:00,28.8,23.7,30.91,SSE,159,0.0,0.0,81,0.00,,,0.00,0.00,VWS V14.00,2013-11-04 09:52:00,
2013-11-04 02:53:00,28.8,23.7,30.91,SSE,159,0.0,0.0,81,0.00,,,0.00,0.00,VWS V14.00,2013-11-04 09:53:00,
2013-11-04 02:54:00,28.7,23.6,30.91,SSE,159,0.0,0.0,81,0.00,,,0.00,0.00,VWS V14.00,2013-11-04 09:54:00,
2013-11-04 02:55:00,28.7,23.6,30.91,SSE,159,0.0,0.0,81,0.00,,,0.00,0.00,VWS V14.00,2013-11-04 09:55:00,
2013-11-04 02:56:00,28.7,23.6,30.91,SSE,159,0.0,0.0,81,0.00,,,0.00,0.00,VWS V14.00,2013-11-04 09:56:00,
2013-11-04 02:57:00,28.7,23.6,30.91,SSE,159,0.0,0.0,81,0.00,,,0.00,0.00,VWS V14.00,2013-11-04 09:57:00,
2013-11-04 02:58:00,28.7,23.6,30.91,SSE,159,0.0,0.0,81,0.00,,,0.00,0.00,VWS V14.00,2013-11-04 09:58:00,
2013-11-04 02:59:00,28.6,23.5,30.91,SSE,159,0.0,0.0,81,0.00,,,0.00,0.00,VWS V14.00,2013-11-04 09:59:00,
2013-11-04 03:00:00,28.6,23.5,30.91,SSE,159,0.0,0.0,81,0.00,,,0.00,0.00,VWS V14.00,2013-11-04 10:00:00,
2013-11-04 03:01:00,28.5,23.4,30.91,SSE,159,0.0,0.0,81,0.00,,,0.00,0.00,VWS V14.00,2013-11-04 10:01:00,
2013-11-04 03:02:00,28.5,23.4,30.91,SSE,159,0.0,0.0,81,0.00,,,0.00,0.00,VWS V14.00,2013-11-04 10:02:00,
2013-11-04 03:03:00,28.5,23.4,30.91,SSE,159,0.0,0.0,81,0.00,,,0.00,0.00,VWS V14.00,2013-11-04 10:03:00,
2013-11-04 03:04:00,28.4,23.3,30.91,SSE,159,0.0,0.0,81,0.00,,,0.00,0.00,VWS V14.00,2013-11-04 10:04:00,
2013-11-04 03:05:00,28.4,23.3,30.92,SSE,159,0.0,0.0,81,0.00,,,0.00,0.00,VWS V14.00,2013-11-04 10:05:00,
2013-11-04 03:06:00,28.4,23.3,30.92,SSE,159,0.0,0.0,81,0.00,,,0.00,0.00,VWS V14.00,2013-11-04 10:06:00,
2013-11-04 03:07:00,28.3,23.2,30.92,SSE,159,0.0,0.0,81,0.00,,,0.00,0.00,VWS V14.00,2013-11-04 10:07:00,
2013-11-04 03:08:00,28.3,23.2,30.92,SSE,159,0.0,0.0,81,0.00,,,0.00,0.00,VWS V14.00,2013-11-04 10:08:00,
2013-11-04 03:09:00,28.3,23.2,30.92,SSE,159,0.0,0.0,81,0.00,,,0.00,0.00,VWS V14.00,2013-11-04 10:09:00,
2013-11-04 03:10:00,28.3,23.2,30.92,SSE,159,0.0,0.0,81,0.00,,,0.00,0.00,VWS V14.00,2013-11-04 10:10:00,
2013-11-04 03:11:00,28.3,23.2,30.92,SSE,159,0.0,0.0,81,0.00,,,0.00,0.00,VWS V14.00,2013-11-04 10:11:00,
2013-11-04 03:12:00,28.2,23.1,30.92,SSE,159,0.0,0.0,81,0.00,,,0.00,0.00,VWS V14.00,2013-11-04 10:12:00,
2013-11-04 03:13:00,28.2,23.1,30.92,SSE,159,0.0,0.0,81,0.00,,,0.00,0.00,VWS V14.00,2013-11-04 10:13:00,
2013-11-04 03:14:00,28.1,23.3,30.92,SSE,159,0.0,0.0,82,0.00,,,0.00,0.00,VWS V14.00,2013-11-04 10:14:00,
2013-11-04 03:15:00,28.0,23.2,30.92,SSE,159,0.0,0.0,82,0.00,,,0.00,0.00,VWS V14.00,2013-11-04 10:15:00,
2013-11-04 03:16:00,28.0,23.2,30.92,SSE,159,0.0,0.0,82,0.00,,,0.00,0.00,VWS V14.00,2013-11-04 10:16:00,
2013-11-04 03:17:00,27.9,23.1,30.92,SSE,159,0.0,0.0,82,0.00,,,0.00,0.00,VWS V14.00,2013-11-04 10:17:00,
2013-11-04 03:18:00,27.9,23.1,30.92,SSE,159,0.0,0.0,82,0.00,,,0.00,0.00,VWS V14.00,2013-11-04 10:18:00,
2013-11-04 03:19:00,27.8,23.0,30.92,SSE,159,0.0,1.0,82,0.00,,,0.00,0.00,VWS V14.00,2013-11-04 10:19:00,
2013-11-04 03:20:00,27.8,23.0,30.92,SSE,159,0.0,1.0,82,0.00,,,0.00,0.00,VWS V14.00,2013-11-04 10:20:00,
2013-11-04 03:21:00,27.7,22.9,30.92,SSE,159,0.0,1.0,82,0.00,,,0.00,0.00,VWS V14.00,2013-11-04 10:21:00,
2013-11-04 03:22:00,27.7,22.9,30.92,SSE,159,0.0,1.0,82,0.00,,,0.00,0.00,VWS V14.00,2013-11-04 10:22:00,
2013-11-04 03:23:00,27.6,22.8,30.92,SSE,159,0.0,1.0,82,0.00,,,0.00,0.00,VWS V14.00,2013-11-04 10:23:00,
2013-11-04 03:24:00,27.6,22.8,30.92,SSE,159,0.0,1.0,82,0.00,,,0.00,0.00,VWS V14.00,2013-11-04 10:24:00,
2013-11-04 03:25:00,27.6,22.8,30.92,SSE,159,0.0,1.0,82,0.00,,,0.00,0.00,VWS V14.00,2013-11-04 10:25:00,
2013-11-04 03:26:00,27.6,23.1,30.92,SSE,159,0.0,1.0,83,0.00,,,0.00,0.00,VWS V14.00,2013-11-04 10:26:00,
2013-11-04 03:27:00,27.6,23.1,30.92,SSE,159,0.0,1.0,83,0.00,,,0.00,0.00,VWS V14.00,2013-11-04 10:27:00,
2013-11-04 03:28:00,27.6,23.1,30.92,SSE,159,0.0,1.0,83,0.00,,,0.00,0.00,VWS V14.00,2013-11-04 10:28:00,
2013-11-04 03:29:00,27.6,23.1,30.92,SSE,159,0.0,1.0,83,0.00,,,0.00,0.00,VWS V14.00,2013-11-04 10:29:00,
2013-11-04 03:30:00,27.5,23.0,30.92,SSE,159,0.0,1.0,83,0.00,,,0.00,0.00,VWS V14.00,2013-11-04 10:30:00,
2013-11-04 03:31:00,27.5,23.0,30.91,SSE,159,0.0,0.0,83,0.00,,,0.00,0.00,VWS V14.00,2013-11-04 10:31:00,
2013-11-04 03:32:00,27.5,23.0,30.92,SSE,159,0.0,0.0,83,0.00,,,0.00,0.00,VWS V14.00,2013-11-04 10:32:00,
2013-11-04 03:33:00,27.5,23.0,30.91,SSE,159,0.0,0.0,83,0.00,,,0.00,0.00,VWS V14.00,2013-11-04 10:33:00,
2013-11-04 03:34:00,27.6,23.1,30.91,SSE,159,0.0,0.0,83,0.00,,,0.00,0.00,VWS V14.00,2013-11-04 10:34:00,
2013-11-04 03:35:00,27.5,23.0,30.92,SSE,159,0.0,0.0,83,0.00,,,0.00,0.00,VWS V14.00,2013-11-04 10:35:00,
2013-11-04 03:36:00,27.5,23.0,30.91,SSE,159,0.0,0.0,83,0.00,,,0.00,0.00,VWS V14.00,2013-11-04 10:36:00,
2013-11-04 03:37:00,27.6,23.1,30.91,SSE,159,0.0,0.0,83,0.00,,,0.00,0.00,VWS V14.00,2013-11-04 10:37:00,
2013-11-04 03:38:00,27.6,23.1,30.91,SSE,159,0.0,0.0,83,0.00,,,0.00,0.00,VWS V14.00,2013-11-04 10:38:00,
2013-11-04 03:39:00,27.6,23.1,30.91,SSE,159,0.0,0.0,83,0.00,,,0.00,0.00,VWS V14.00,2013-11-04 10:39:00,
2013-11-04 03:40:00,27.6,23.1,30.91,SSE,159,0.0,0.0,83,0.00,,,0.00,0.00,VWS V14.00,2013-11-04 10:40:00,
2013-11-04 03:41:00,27.6,23.1,30.91,SSE,159,0.0,0.0,83,0.00,,,0.00,0.00,VWS V14.00,2013-11-04 10:41:00,
2013-11-04 03:42:00,27.6,23.1,30.91,SSE,159,0.0,0.0,83,0.00,,,0.00,0.00,VWS V14.00,2013-11-04 10:42:00,
2013-11-04 03:43:00,27.6,22.8,30.91,SSE,159,0.0,0.0,82,0.00,,,0.00,0.00,VWS V14.00,2013-11-04 10:43:00,
2013-11-04 03:44:00,27.6,22.8,30.91,SSE,159,0.0,0.0,82,0.00,,,0.00,0.00,VWS V14.00,2013-11-04 10:44:00,
2013-11-04 03:45:00,27.7,22.9,30.91,SSE,159,2.0,3.0,82,0.00,,,0.00,0.00,VWS V14.00,2013-11-04 10:45:00,
2013-11-04 03:46:00,27.7,22.9,30.91,SSE,159,2.0,4.0,82,0.00,,,0.00,0.00,VWS V14.00,2013-11-04 10:46:00,
2013-11-04 03:47:00,27.8,23.0,30.91,SSE,159,1.0,4.0,82,0.00,,,0.00,0.00,VWS V14.00,2013-11-04 10:47:00,
2013-11-04 03:48:00,27.8,22.7,30.91,SSE,159,1.0,4.0,81,0.00,,,0.00,0.00,VWS V14.00,2013-11-04 10:48:00,
2013-11-04 03:49:00,27.8,22.7,30.91,SSE,159,0.0,4.0,81,0.00,,,0.00,0.00,VWS V14.00,2013-11-04 10:49:00,
2013-11-04 03:50:00,27.9,22.8,30.91,SSE,159,0.0,4.0,81,0.00,,,0.00,0.00,VWS V14.00,2013-11-04 10:50:00,
2013-11-04 03:51:00,27.9,22.8,30.91,SSE,159,0.0,4.0,81,0.00,,,0.00,0.00,VWS V14.00,2013-11-04 10:51:00,
2013-11-04 03:52:00,27.9,22.8,30.91,SSE,159,0.0,4.0,81,0.00,,,0.00,0.00,VWS V14.00,2013-11-04 10:52:00,
2013-11-04 03:53:00,27.9,22.8,30.91,SSE,159,0.0,4.0,81,0.00,,,0.00,0.00,VWS V14.00,2013-11-04 10:53:00,
2013-11-04 03:54:00,27.9,22.8,30.91,SSE,159,0.0,4.0,81,0.00,,,0.00,0.00,VWS V14.00,2013-11-04 10:54:00,
2013-11-04 03:55:00,27.9,22.5,30.91,SSE,159,0.0,4.0,80,0.00,,,0.00,0.00,VWS V14.00,2013-11-04 10:55:00,
2013-11-04 03:56:00,27.9,22.5,30.91,SSE,159,0.0,4.0,80,0.00,,,0.00,0.00,VWS V14.00,2013-11-04 10:56:00,
2013-11-04 03:57:00,27.9,22.5,30.91,SSE,159,0.0,4.0,80,0.00,,,0.00,0.00,VWS V14.00,2013-11-04 10:57:00,
2013-11-04 03:58:00,28.0,22.6,30.91,SSE,159,0.0,4.0,80,0.00,,,0.00,0.00,VWS V14.00,2013-11-04 10:58:00,
2013-11-04 03:59:00,27.9,22.5,30.91,SSE,159,0.0,4.0,80,0.00,,,0.00,0.00,VWS V14.00,2013-11-04 10:59:00,
2013-11-04 04:00:00,27.9,22.2,30.91,SSE,159,0.0,4.0,79,0.00,,,0.00,0.00,VWS V14.00,2013-11-04 11:00:00,
2013-11-04 04:01:00,27.9,22.2,30.92,SSE,159,0.0,0.0,79,0.00,,,0.00,0.00,VWS V14.00,2013-11-04 11:01:00,
2013-11-04 04:02:00,27.9,22.2,30.92,SSE,159,0.0,0.0,79,0.00,,,0.00,0.00,VWS V14.00,2013-11-04 11:02:00,
2013-11-04 04:03:00,27.9,21.9,30.92,SSE,159,0.0,0.0,78,0.00,,,0.00,0.00,VWS V14.00,2013-11-04 11:03:00,
2013-11-04 04:04:00,27.9,21.9,30.91,SSE,159,0.0,0.0,78,0.00,,,0.00,0.00,VWS V14.00,2013-11-04 11:04:00,
2013-11-04 04:05:00,27.9,21.9,30.92,SSE,159,0.0,0.0,78,0.00,,,0.00,0.00,VWS V14.00,2013-11-04 11:05:00,
2013-11-04 04:06:00,27.9,21.9,30.91,SSE,159,0.0,0.0,78,0.00,,,0.00,0.00,VWS V14.00,2013-11-04 11:06:00,
2013-11-04 04:07:00,27.9,21.9,30.92,SSE,159,0.0,0.0,78,0.00,,,0.00,0.00,VWS V14.00,2013-11-04 11:07:00,
2013-11-04 04:08:00,27.9,21.6,30.92,SSE,159,0.0,0.0,77,0.00,,,0.00,0.00,VWS V14.00,2013-11-04 11:08:00,
2013-11-04 04:09:00,27.9,21.6,30.91,SSE,159,0.0,0.0,77,0.00,,,0.00,0.00,VWS V14.00,2013-11-04 11:09:00,
2013-11-04 04:10:00,27.9,21.6,30.91,SSE,159,0.0,1.0,77,0.00,,,0.00,0.00,VWS V14.00,2013-11-04 11:10:00,
2013-11-04 04:11:00,27.9,21.6,30.92,SSE,159,0.0,1.0,77,0.00,,,0.00,0.00,VWS V14.00,2013-11-04 11:11:00,
2013-11-04 04:12:00,27.8,21.5,30.92,SSE,159,0.0,1.0,77,0.00,,,0.00,0.00,VWS V14.00,2013-11-04 11:12:00,
2013-11-04 04:13:00,27.8,21.5,30.91,SSE,159,0.0,1.0,77,0.00,,,0.00,0.00,VWS V14.00,2013-11-04 11:13:00,
2013-11-04 04:14:00,27.8,21.5,30.91,SSE,159,0.0,1.0,77,0.00,,,0.00,0.00,VWS V14.00,2013-11-04 11:14:00,
2013-11-04 04:15:00,27.8,21.5,30.91,SSE,159,0.0,1.0,77,0.00,,,0.00,0.00,VWS V14.00,2013-11-04 11:15:00,
2013-11-04 04:16:00,27.8,21.2,30.91,SSE,159,0.0,0.0,76,0.00,,,0.00,0.00,VWS V14.00,2013-11-04 11:16:00,
2013-11-04 04:17:00,27.8,21.2,30.91,SSE,159,2.0,2.0,76,0.00,,,0.00,0.00,VWS V14.00,2013-11-04 11:17:00,
2013-11-04 04:18:00,27.8,21.2,30.91,SSE,159,2.0,3.0,76,0.00,,,0.00,0.00,VWS V14.00,2013-11-04 11:18:00,
2013-11-04 04:19:00,27.8,21.2,30.91,SSE,159,2.0,3.0,76,0.00,,,0.00,0.00,VWS V14.00,2013-11-04 11:19:00,
2013-11-04 04:20:00,27.8,21.2,30.91,SSE,159,2.0,3.0,76,0.00,,,0.00,0.00,VWS V14.00,2013-11-04 11:20:00,
2013-11-04 04:21:00,27.8,21.2,30.91,SSE,159,2.0,3.0,76,0.00,,,0.00,0.00,VWS V14.00,2013-11-04 11:21:00,
2013-11-04 04:22:00,27.7,21.1,30.91,SSE,159,1.0,3.0,76,0.00,,,0.00,0.00,VWS V14.00,2013-11-04 11:22:00,
2013-11-04 04:23:00,27.7,21.1,30.91,SSE,159,0.0,3.0,76,0.00,,,0.00,0.00,VWS V14.00,2013-11-04 11:23:00,
2013-11-04 04:24:00,27.7,21.1,30.91,SSE,159,0.0,3.0,76,0.00,,,0.00,0.00,VWS V14.00,2013-11-04 11:24:00,
2013-11-04 04:25:00,27.7,21.1,30.91,SSE,159,0.0,3.0,76,0.00,,,0.00,0.00,VWS V14.00,2013-11-04 11:25:00,
2013-11-04 04:26:00,27.7,20.8,30.91,SSE,159,0.0,3.0,75,0.00,,,0.00,0.00,VWS V14.00,2013-11-04 11:26:00,
2013-11-04 04:27:00,27.7,20.8,30.91,SSE,159,0.0,3.0,75,0.00,,,0.00,0.00,VWS V14.00,2013-11-04 11:27:00,
2013-11-04 04:28:00,27.6,20.7,30.92,SSE,159,0.0,3.0,75,0.00,,,0.00,0.00,VWS V14.00,2013-11-04 11:28:00,
2013-11-04 04:29:00,27.6,20.7,30.92,SSE,159,0.0,3.0,75,0.00,,,0.00,0.00,VWS V14.00,2013-11-04 11:29:00,
2013-11-04 04:30:00,27.6,20.7,30.92,SSE,159,0.0,3.0,75,0.00,,,0.00,0.00,VWS V14.00,2013-11-04 11:30:00,
2013-11-04 04:31:00,27.5,20.6,30.92,SSE,159,0.0,0.0,75,0.00,,,0.00,0.00,VWS V14.00,2013-11-04 11:31:00,
2013-11-04 04:32:00,27.5,20.6,30.92,SSE,159,0.0,0.0,75,0.00,,,0.00,0.00,VWS V14.00,2013-11-04 11:32:00,
2013-11-04 04:33:00,27.5,20.9,30.92,SSE,159,0.0,0.0,76,0.00,,,0.00,0.00,VWS V14.00,2013-11-04 11:33:00,
2013-11-04 04:34:00,27.4,20.8,30.92,SSE,159,0.0,0.0,76,0.00,,,0.00,0.00,VWS V14.00,2013-11-04 11:34:00,
2013-11-04 04:35:00,27.3,20.8,30.93,SSE,159,0.0,0.0,76,0.00,,,0.00,0.00,VWS V14.00,2013-11-04 11:35:00,
2013-11-04 04:36:00,27.3,20.8,30.92,SSE,159,0.0,0.0,76,0.00,,,0.00,0.00,VWS V14.00,2013-11-04 11:36:00,
2013-11-04 04:37:00,27.2,20.6,30.93,SSE,159,0.0,0.0,76,0.00,,,0.00,0.00,VWS V14.00,2013-11-04 11:37:00,
2013-11-04 04:38:00,27.2,20.3,30.93,SSE,159,0.0,0.0,75,0.00,,,0.00,0.00,VWS V14.00,2013-11-04 11:38:00,
2013-11-04 04:39:00,27.1,20.2,30.93,SSE,159,0.0,0.0,75,0.00,,,0.00,0.00,VWS V14.00,2013-11-04 11:39:00,
2013-11-04 04:40:00,27.1,20.2,30.93,SSE,159,0.0,0.0,75,0.00,,,0.00,0.00,VWS V14.00,2013-11-04 11:40:00,
2013-11-04 04:41:00,27.0,20.1,30.93,SSE,159,0.0,0.0,75,0.00,,,0.00,0.00,VWS V14.00,2013-11-04 11:41:00,
2013-11-04 04:42:00,27.0,20.5,30.93,SSE,159,0.0,0.0,76,0.00,,,0.00,0.00,VWS V14.00,2013-11-04 11:42:00,
2013-11-04 04:43:00,26.9,20.4,30.93,SSE,159,0.0,0.0,76,0.00,,,0.00,0.00,VWS V14.00,2013-11-04 11:43:00,
2013-11-04 04:44:00,26.9,20.4,30.93,SSE,159,0.0,0.0,76,0.00,,,0.00,0.00,VWS V14.00,2013-11-04 11:44:00,
2013-11-04 04:45:00,26.8,20.0,30.93,SSE,159,0.0,0.0,75,0.00,,,0.00,0.00,VWS V14.00,2013-11-04 11:45:00,
2013-11-04 04:46:00,26.8,20.0,30.93,SSE,159,0.0,0.0,75,0.00,,,0.00,0.00,VWS V14.00,2013-11-04 11:46:00,
2013-11-04 04:47:00,26.7,19.9,30.93,SSE,159,0.0,0.0,75,0.00,,,0.00,0.00,VWS V14.00,2013-11-04 11:47:00,
2013-11-04 04:48:00,26.7,19.9,30.93,SSE,159,0.0,0.0,75,0.00,,,0.00,0.00,VWS V14.00,2013-11-04 11:48:00,
2013-11-04 04:49:00,26.6,19.8,30.93,SSE,159,0.0,0.0,75,0.00,,,0.00,0.00,VWS V14.00,2013-11-04 11:49:00,
2013-11-04 04:50:00,26.5,19.7,30.93,SSE,159,0.0,0.0,75,0.00,,,0.00,0.00,VWS V14.00,2013-11-04 11:50:00,
2013-11-04 04:51:00,26.5,19.7,30.93,SSE,159,0.0,0.0,75,0.00,,,0.00,0.00,VWS V14.00,2013-11-04 11:51:00,
2013-11-04 04:52:00,26.4,19.6,30.93,SSE,159,0.0,0.0,75,0.00,,,0.00,0.00,VWS V14.00,2013-11-04 11:52:00,
2013-11-04 04:53:00,26.3,19.5,30.93,SSE,159,0.0,0.0,75,0.00,,,0.00,0.00,VWS V14.00,2013-11-04 11:53:00,
2013-11-04 04:54:00,26.3,19.5,30.93,SSE,159,0.0,0.0,75,0.00,,,0.00,0.00,VWS V14.00,2013-11-04 11:54:00,
2013-11-04 04:55:00,26.2,19.4,30.93,SSE,159,0.0,0.0,75,0.00,,,0.00,0.00,VWS V14.00,2013-11-04 11:55:00,
2013-11-04 04:56:00,26.2,19.4,30.93,SSE,159,0.0,0.0,75,0.00,,,0.00,0.00,VWS V14.00,2013-11-04 11:56:00,
2013-11-04 04:57:00,26.2,19.4,30.93,SSE,159,0.0,0.0,75,0.00,,,0.00,0.00,VWS V14.00,2013-11-04 11:57:00,
2013-11-04 04:58:00,26.2,19.7,30.93,SSE,159,0.0,0.0,76,0.00,,,0.00,0.00,VWS V14.00,2013-11-04 11:58:00,
2013-11-04 04:59:00,26.2,19.7,30.93,SSE,159,0.0,0.0,76,0.00,,,0.00,0.00,VWS V14.00,2013-11-04 11:59:00,
2013-11-04 05:00:00,26.2,19.7,30.94,SSE,159,0.0,0.0,76,0.00,,,0.00,0.00,VWS V14.00,2013-11-04 12:00:00,
2013-11-04 05:01:00,26.1,19.6,30.94,SSE,159,0.0,0.0,76,0.00,,,0.00,0.00,VWS V14.00,2013-11-04 12:01:00,
2013-11-04 05:02:00,26.1,19.6,30.94,SSE,159,0.0,0.0,76,0.00,,,0.00,0.00,VWS V14.00,2013-11-04 12:02:00,
2013-11-04 05:03:00,26.1,19.6,30.95,SSE,159,1.0,2.0,76,0.00,,,0.00,0.00,VWS V14.00,2013-11-04 12:03:00,
2013-11-04 05:04:00,26.1,19.6,30.95,SSE,159,0.0,2.0,76,0.00,,,0.00,0.00,VWS V14.00,2013-11-04 12:04:00,
2013-11-04 05:05:00,26.1,19.6,30.95,SSE,159,0.0,2.0,76,0.00,,,0.00,0.00,VWS V14.00,2013-11-04 12:05:00,
2013-11-04 05:06:00,26.1,19.6,30.95,SSE,159,0.0,2.0,76,0.00,,,0.00,0.00,VWS V14.00,2013-11-04 12:06:00,
2013-11-04 05:07:00,26.1,19.9,30.95,SSE,159,0.0,2.0,77,0.00,,,0.00,0.00,VWS V14.00,2013-11-04 12:07:00,
2013-11-04 05:08:00,26.2,20.0,30.95,SSE,159,0.0,2.0,77,0.00,,,0.00,0.00,VWS V14.00,2013-11-04 12:08:00,
2013-11-04 05:09:00,26.2,20.0,30.95,SSE,159,0.0,2.0,77,0.00,,,0.00,0.00,VWS V14.00,2013-11-04 12:09:00,
2013-11-04 05:10:00,26.2,20.0,30.95,SSE,159,0.0,2.0,77,0.00,,,0.00,0.00,VWS V14.00,2013-11-04 12:10:00,
2013-11-04 05:11:00,26.2,20.0,30.95,SSE,159,0.0,2.0,77,0.00,,,0.00,0.00,VWS V14.00,2013-11-04 12:11:00,
2013-11-04 05:12:00,26.2,20.0,30.95,SSE,159,0.0,2.0,77,0.00,,,0.00,0.00,VWS V14.00,2013-11-04 12:12:00,
2013-11-04 05:13:00,26.2,20.0,30.95,SSE,159,0.0,2.0,77,0.00,,,0.00,0.00,VWS V14.00,2013-11-04 12:13:00,
2013-11-04 05:14:00,26.2,20.0,30.95,SSE,159,0.0,2.0,77,0.00,,,0.00,0.00,VWS V14.00,2013-11-04 12:14:00,
2013-11-04 05:15:00,26.2,20.0,30.95,SSE,159,0.0,2.0,77,0.00,,,0.00,0.00,VWS V14.00,2013-11-04 12:15:00,
2013-11-04 05:16:00,26.2,20.0,30.95,SSE,159,0.0,0.0,77,0.00,,,0.00,0.00,VWS V14.00,2013-11-04 12:16:00,
2013-11-04 05:17:00,26.2,20.0,30.95,SSE,159,0.0,0.0,77,0.00,,,0.00,0.00,VWS V14.00,2013-11-04 12:17:00,
2013-11-04 05:18:00,26.2,20.0,30.95,SSE,159,0.0,0.0,77,0.00,,,0.00,0.00,VWS V14.00,2013-11-04 12:18:00,
2013-11-04 05:19:00,26.2,20.0,30.95,SSE,159,0.0,0.0,77,0.00,,,0.00,0.00,VWS V14.00,2013-11-04 12:19:00,
2013-11-04 05:20:00,26.2,20.0,30.95,SSE,159,0.0,0.0,77,0.00,,,0.00,0.00,VWS V14.00,2013-11-04 12:20:00,
2013-11-04 05:21:00,26.2,20.0,30.95,SSE,159,0.0,0.0,77,0.00,,,0.00,0.00,VWS V14.00,2013-11-04 12:21:00,
2013-11-04 05:22:00,26.2,19.7,30.95,SSE,159,0.0,0.0,76,0.00,,,0.00,0.00,VWS V14.00,2013-11-04 12:22:00,
2013-11-04 05:23:00,26.2,19.7,30.95,SSE,159,0.0,0.0,76,0.00,,,0.00,0.00,VWS V14.00,2013-11-04 12:23:00,
2013-11-04 05:24:00,26.2,19.7,30.95,SSE,159,0.0,0.0,76,0.00,,,0.00,0.00,VWS V14.00,2013-11-04 12:24:00,
2013-11-04 05:25:00,26.2,19.7,30.95,SSE,159,1.0,3.0,76,0.00,,,0.00,0.00,VWS V14.00,2013-11-04 12:25:00,
2013-11-04 05:26:00,26.2,19.7,30.95,SSE,159,3.0,3.0,76,0.00,,,0.00,0.00,VWS V14.00,2013-11-04 12:26:00,
2013-11-04 05:27:00,26.2,19.7,30.95,SSE,159,0.0,4.0,76,0.00,,,0.00,0.00,VWS V14.00,2013-11-04 12:27:00,
2013-11-04 05:28:00,26.2,19.7,30.95,SSE,159,2.0,4.0,76,0.00,,,0.00,0.00,VWS V14.00,2013-11-04 12:28:00,
2013-11-04 05:29:00,26.2,19.7,30.95,SSE,159,0.0,4.0,76,0.00,,,0.00,0.00,VWS V14.00,2013-11-04 12:29:00,
2013-11-04 05:30:00,26.2,19.7,30.95,SSE,159,0.0,4.0,76,0.00,,,0.00,0.00,VWS V14.00,2013-11-04 12:30:00,
2013-11-04 05:31:00,26.2,19.7,30.96,SSE,159,0.0,0.0,76,0.00,,,0.00,0.00,VWS V14.00,2013-11-04 12:31:00,
2013-11-04 05:32:00,26.2,19.7,30.96,SSE,159,0.0,0.0,76,0.00,,,0.00,0.00,VWS V14.00,2013-11-04 12:32:00,
2013-11-04 05:33:00,26.2,20.0,30.96,SSE,159,0.0,0.0,77,0.00,,,0.00,0.00,VWS V14.00,2013-11-04 12:33:00,
2013-11-04 05:34:00,26.2,20.0,30.96,SSE,159,0.0,0.0,77,0.00,,,0.00,0.00,VWS V14.00,2013-11-04 12:34:00,
2013-11-04 05:35:00,26.2,20.0,30.96,SSE,159,0.0,0.0,77,0.00,,,0.00,0.00,VWS V14.00,2013-11-04 12:35:00,
2013-11-04 05:36:00,26.2,20.0,30.96,SSE,159,0.0,0.0,77,0.00,,,0.00,0.00,VWS V14.00,2013-11-04 12:36:00,
2013-11-04 05:37:00,26.2,20.0,30.96,SSE,159,0.0,0.0,77,0.00,,,0.00,0.00,VWS V14.00,2013-11-04 12:37:00,
2013-11-04 05:38:00,26.2,20.0,30.96,SSE,159,0.0,0.0,77,0.00,,,0.00,0.00,VWS V14.00,2013-11-04 12:38:00,
2013-11-04 05:39:00,26.2,20.3,30.96,SSE,159,4.0,5.0,78,0.00,,,0.00,0.00,VWS V14.00,2013-11-04 12:39:00,
2013-11-04 05:40:00,26.2,20.3,30.96,SSE,159,3.0,5.0,78,0.00,,,0.00,0.00,VWS V14.00,2013-11-04 12:40:00,
2013-11-04 05:41:00,26.3,20.4,30.96,SSE,159,2.0,5.0,78,0.00,,,0.00,0.00,VWS V14.00,2013-11-04 12:41:00,
2013-11-04 05:42:00,26.3,20.4,30.96,SSE,159,2.0,5.0,78,0.00,,,0.00,0.00,VWS V14.00,2013-11-04 12:42:00,
2013-11-04 05:43:00,26.4,20.5,30.96,SSE,159,2.0,5.0,78,0.00,,,0.00,0.00,VWS V14.00,2013-11-04 12:43:00,
2013-11-04 05:44:00,26.4,20.5,30.96,SSE,159,2.0,6.0,78,0.00,,,0.00,0.00,VWS V14.00,2013-11-04 12:44:00,
2013-11-04 05:45:00,26.5,20.6,30.96,SSE,159,2.0,6.0,78,0.00,,,0.00,0.00,VWS V14.00,2013-11-04 12:45:00,
2013-11-04 05:46:00,26.5,20.6,30.95,SSE,159,0.0,2.0,78,0.00,,,0.00,0.00,VWS V14.00,2013-11-04 12:46:00,
2013-11-04 05:47:00,26.6,21.0,30.95,SSE,159,3.0,5.0,79,0.00,,,0.00,0.00,VWS V14.00,2013-11-04 12:47:00,
2013-11-04 05:48:00,26.6,21.0,30.95,SSE,159,4.0,5.0,79,0.00,,,0.00,0.00,VWS V14.00,2013-11-04 12:48:00,
2013-11-04 05:49:00,26.7,21.1,30.95,SSE,159,3.0,5.0,79,0.00,,,0.00,0.00,VWS V14.00,2013-11-04 12:49:00,
2013-11-04 05:50:00,26.7,21.1,30.95,SSE,159,2.0,5.0,79,0.00,,,0.00,0.00,VWS V14.00,2013-11-04 12:50:00,
2013-11-04 05:51:00,26.8,21.2,30.95,SSE,159,2.0,5.0,79,0.00,,,0.00,0.00,VWS V14.00,2013-11-04 12:51:00,
2013-11-04 05:52:00,26.8,21.2,30.95,SSE,159,3.0,5.0,79,0.00,,,0.00,0.00,VWS V14.00,2013-11-04 12:52:00,
2013-11-04 05:53:00,26.8,21.2,30.95,SSE,159,3.0,5.0,79,0.00,,,0.00,0.00,VWS V14.00,2013-11-04 12:53:00,
2013-11-04 05:54:00,26.9,21.3,30.95,SSE,157,4.0,5.0,79,0.00,,,0.00,0.00,VWS V14.00,2013-11-04 12:54:00,
2013-11-04 05:55:00,26.9,21.3,30.95,SSE,155,0.0,5.0,79,0.00,,,0.00,0.00,VWS V14.00,2013-11-04 12:55:00,
2013-11-04 05:56:00,26.9,21.3,30.95,SSE,155,3.0,5.0,79,0.00,,,0.00,0.00,VWS V14.00,2013-11-04 12:56:00,
2013-11-04 05:57:00,26.9,21.3,30.95,SSE,155,3.0,5.0,79,0.00,,,0.00,0.00,VWS V14.00,2013-11-04 12:57:00,
2013-11-04 05:58:00,27.0,21.4,30.95,SSE,155,1.0,5.0,79,0.00,,,0.00,0.00,VWS V14.00,2013-11-04 12:58:00,
2013-11-04 05:59:00,27.0,21.4,30.95,SSE,155,3.0,5.0,79,0.00,,,0.00,0.00,VWS V14.00,2013-11-04 12:59:00,
2013-11-04 06:00:00,27.0,21.4,30.95,SE,145,2.0,5.0,79,0.00,,,0.00,0.00,VWS V14.00,2013-11-04 13:00:00,
2013-11-04 06:01:00,27.0,21.4,30.96,SE,145,2.0,3.0,79,0.00,,,0.00,0.00,VWS V14.00,2013-11-04 13:01:00,
2013-11-04 06:02:00,27.1,21.5,30.96,SE,146,3.0,4.0,79,0.00,,,0.00,0.00,VWS V14.00,2013-11-04 13:02:00,
2013-11-04 06:03:00,27.1,21.5,30.96,SE,145,2.0,4.0,79,0.00,,,0.00,0.00,VWS V14.00,2013-11-04 13:03:00,
2013-11-04 06:04:00,27.1,21.5,30.96,SE,146,0.0,4.0,79,0.00,,,0.00,0.00,VWS V14.00,2013-11-04 13:04:00,
2013-11-04 06:05:00,27.2,21.6,30.96,SE,145,0.0,4.0,79,0.00,,,0.00,0.00,VWS V14.00,2013-11-04 13:05:00,
2013-11-04 06:06:00,27.2,21.3,30.96,SE,145,2.0,4.0,78,0.00,,,0.00,0.00,VWS V14.00,2013-11-04 13:06:00,
2013-11-04 06:07:00,27.2,21.3,30.95,SE,145,0.0,4.0,78,0.00,,,0.00,0.00,VWS V14.00,2013-11-04 13:07:00,
2013-11-04 06:08:00,27.2,21.6,30.96,SE,146,0.0,4.0,79,0.00,,,0.00,0.00,VWS V14.00,2013-11-04 13:08:00,
2013-11-04 06:09:00,27.2,21.6,30.95,SE,145,0.0,4.0,79,0.00,,,0.00,0.00,VWS V14.00,2013-11-04 13:09:00,
2013-11-04 06:10:00,27.2,21.6,30.96,SE,146,0.0,4.0,79,0.00,,,0.00,0.00,VWS V14.00,2013-11-04 13:10:00,
2013-11-04 06:11:00,27.2,21.6,30.96,SE,145,4.0,4.0,79,0.00,,,0.00,0.00,VWS V14.00,2013-11-04 13:11:00,
2013-11-04 06:12:00,27.2,21.3,30.96,SE,145,4.0,5.0,78,0.00,,,0.00,0.00,VWS V14.00,2013-11-04 13:12:00,
2013-11-04 06:13:00,27.2,21.3,30.95,SE,145,2.0,5.0,78,0.00,,,0.00,0.00,VWS V14.00,2013-11-04 13:13:00,
2013-11-04 06:14:00,27.2,21.3,30.95,SE,145,2.0,5.0,78,0.00,,,0.00,0.00,VWS V14.00,2013-11-04 13:14:00,
2013-11-04 06:15:00,27.2,21.3,30.95,SE,145,3.0,5.0,78,0.00,,,0.00,0.00,VWS V14.00,2013-11-04 13:15:00,
2013-11-04 06:16:00,27.2,21.3,30.95,SE,145,3.0,3.0,78,0.00,,,0.00,0.00,VWS V14.00,2013-11-04 13:16:00,
2013-11-04 06:17:00,27.2,21.3,30.95,SE,145,3.0,4.0,78,0.00,,,0.00,0.00,VWS V14.00,2013-11-04 13:17:00,
2013-11-04 06:18:00,27.2,21.3,30.95,SE,145,4.0,4.0,78,0.00,,,0.00,0.00,VWS V14.00,2013-11-04 13:18:00,
2013-11-04 06:19:00,27.2,21.3,30.95,SE,145,0.0,4.0,78,0.00,,,0.00,0.00,VWS V14.00,2013-11-04 13:19:00,
2013-11-04 06:20:00,27.2,21.3,30.95,SE,145,2.0,4.0,78,0.00,,,0.00,0.00,VWS V14.00,2013-11-04 13:20:00,
2013-11-04 06:21:00,27.2,21.3,30.95,SE,145,2.0,4.0,78,0.00,,,0.00,0.00,VWS V14.00,2013-11-04 13:21:00,
2013-11-04 06:22:00,27.1,21.2,30.95,SE,142,3.0,5.0,78,0.00,,,0.00,0.00,VWS V14.00,2013-11-04 13:22:00,
2013-11-04 06:23:00,27.1,21.2,30.95,SE,143,1.0,5.0,78,0.00,,,0.00,0.00,VWS V14.00,2013-11-04 13:23:00,
2013-11-04 06:24:00,27.1,21.5,30.95,SE,143,2.0,5.0,79,0.00,,,0.00,0.00,VWS V14.00,2013-11-04 13:24:00,
2013-11-04 06:25:00,27.1,21.5,30.95,SE,143,1.0,5.0,79,0.00,,,0.00,0.00,VWS V14.00,2013-11-04 13:25:00,
2013-11-04 06:26:00,27.1,21.5,30.95,SE,143,0.0,5.0,79,0.00,,,0.00,0.00,VWS V14.00,2013-11-04 13:26:00,
2013-11-04 06:27:00,27.1,21.5,30.95,SE,142,0.0,5.0,79,0.00,,,0.00,0.00,VWS V14.00,2013-11-04 13:27:00,
2013-11-04 06:28:00,27.1,21.5,30.95,SE,142,0.0,5.0,79,0.00,,,0.00,0.00,VWS V14.00,2013-11-04 13:28:00,
2013-11-04 06:29:00,27.1,21.5,30.96,SE,143,0.0,5.0,79,0.00,,,0.00,0.00,VWS V14.00,2013-11-04 13:29:00,
2013-11-04 06:30:00,27.1,21.5,30.96,SE,143,0.0,5.0,79,0.00,,,0.00,0.00,VWS V14.00,2013-11-04 13:30:00,
2013-11-04 06:31:00,27.1,21.5,30.95,SE,143,0.0,0.0,79,0.00,,,0.00,0.00,VWS V14.00,2013-11-04 13:31:00,
2013-11-04 06:32:00,27.1,21.5,30.96,SE,143,0.0,0.0,79,0.00,,,0.00,0.00,VWS V14.00,2013-11-04 13:32:00,
2013-11-04 06:33:00,27.0,21.1,30.96,SE,142,0.0,0.0,78,0.00,,,0.00,0.00,VWS V14.00,2013-11-04 13:33:00,
2013-11-04 06:34:00,27.0,21.1,30.95,SE,142,0.0,0.0,78,0.00,,,0.00,0.00,VWS V14.00,2013-11-04 13:34:00,
2013-11-04 06:35:00,27.0,21.1,30.96,SE,143,0.0,0.0,78,0.00,,,0.00,0.00,VWS V14.00,2013-11-04 13:35:00,
2013-11-04 06:36:00,27.0,21.1,30.96,SE,143,0.0,0.0,78,0.00,,,0.00,0.00,VWS V14.00,2013-11-04 13:36:00,
2013-11-04 06:37:00,27.0,21.1,30.96,SE,143,0.0,0.0,78,0.00,,,0.00,0.00,VWS V14.00,2013-11-04 13:37:00,
2013-11-04 06:38:00,27.0,21.1,30.96,SE,142,0.0,0.0,78,0.00,,,0.00,0.00,VWS V14.00,2013-11-04 13:38:00,
2013-11-04 06:39:00,27.0,21.1,30.96,SE,142,0.0,0.0,78,0.00,,,0.00,0.00,VWS V14.00,2013-11-04 13:39:00,
2013-11-04 06:40:00,27.0,21.1,30.96,SE,142,0.0,0.0,78,0.00,,,0.00,0.00,VWS V14.00,2013-11-04 13:40:00,
2013-11-04 06:41:00,26.9,20.7,30.96,SE,144,0.0,2.0,77,0.00,,,0.00,0.00,VWS V14.00,2013-11-04 13:41:00,
2013-11-04 06:42:00,26.9,20.7,30.96,SE,144,0.0,2.0,77,0.00,,,0.00,0.00,VWS V14.00,2013-11-04 13:42:00,
2013-11-04 06:43:00,26.9,21.0,30.96,SE,144,0.0,2.0,78,0.00,,,0.00,0.00,VWS V14.00,2013-11-04 13:43:00,
2013-11-04 06:44:00,26.9,21.0,30.96,SE,144,0.0,2.0,78,0.00,,,0.00,0.00,VWS V14.00,2013-11-04 13:44:00,
2013-11-04 06:45:00,26.9,21.0,30.96,SE,144,0.0,2.0,78,0.00,,,0.00,0.00,VWS V14.00,2013-11-04 13:45:00,
2013-11-04 06:46:00,26.9,21.0,30.96,SE,144,0.0,0.0,78,0.00,,,0.00,0.00,VWS V14.00,2013-11-04 13:46:00,
2013-11-04 06:47:00,26.8,20.9,30.96,SE,144,0.0,0.0,78,0.00,,,0.00,0.00,VWS V14.00,2013-11-04 13:47:00,
2013-11-04 06:48:00,26.8,20.9,30.96,SE,144,0.0,0.0,78,0.00,,,0.00,0.00,VWS V14.00,2013-11-04 13:48:00,
2013-11-04 06:49:00,26.8,20.9,30.96,SE,144,0.0,0.0,78,0.00,,,0.00,0.00,VWS V14.00,2013-11-04 13:49:00,
2013-11-04 06:50:00,26.8,20.9,30.96,SE,144,0.0,0.0,78,0.00,,,0.00,0.00,VWS V14.00,2013-11-04 13:50:00,
2013-11-04 06:51:00,26.8,20.9,30.96,SE,144,0.0,0.0,78,0.00,,,0.00,0.00,VWS V14.00,2013-11-04 13:51:00,
2013-11-04 06:52:00,26.7,20.8,30.96,SE,144,0.0,0.0,78,0.00,,,0.00,0.00,VWS V14.00,2013-11-04 13:52:00,
2013-11-04 06:53:00,26.7,20.8,30.96,SE,144,0.0,0.0,78,0.00,,,0.00,0.00,VWS V14.00,2013-11-04 13:53:00,
2013-11-04 06:54:00,26.7,20.8,30.96,SE,144,3.0,3.0,78,0.00,,,0.00,0.00,VWS V14.00,2013-11-04 13:54:00,
2013-11-04 06:55:00,26.7,21.1,30.96,SE,145,2.0,4.0,79,0.00,,,0.00,0.00,VWS V14.00,2013-11-04 13:55:00,
2013-11-04 06:56:00,26.6,20.7,30.96,SE,145,0.0,4.0,78,0.00,,,0.00,0.00,VWS V14.00,2013-11-04 13:56:00,
2013-11-04 06:57:00,26.6,21.0,30.96,SE,145,0.0,4.0,79,0.00,,,0.00,0.00,VWS V14.00,2013-11-04 13:57:00,
2013-11-04 06:58:00,26.5,20.9,30.96,SE,146,0.0,4.0,79,0.00,,,0.00,0.00,VWS V14.00,2013-11-04 13:58:00,
2013-11-04 06:59:00,26.5,20.9,30.96,SE,145,0.0,4.0,79,0.00,,,0.00,0.00,VWS V14.00,2013-11-04 13:59:00,
2013-11-04 07:00:00,26.4,20.8,30.96,SE,146,0.0,4.0,79,0.00,,,0.00,0.00,VWS V14.00,2013-11-04 14:00:00,
2013-11-04 07:01:00,26.4,20.8,30.97,SE,145,0.0,0.0,79,0.00,,,0.00,0.00,VWS V14.00,2013-11-04 14:01:00,
2013-11-04 07:02:00,26.3,20.7,30.97,SE,146,0.0,0.0,79,0.00,,,0.00,0.00,VWS V14.00,2013-11-04 14:02:00,
2013-11-04 07:03:00,26.3,20.7,30.97,SE,145,0.0,0.0,79,0.00,,,0.00,0.00,VWS V14.00,2013-11-04 14:03:00,
2013-11-04 07:04:00,26.2,20.6,30.97,SE,146,0.0,0.0,79,0.00,,,0.00,0.00,VWS V14.00,2013-11-04 14:04:00,
2013-11-04 07:05:00,26.2,20.6,30.97,SE,146,0.0,0.0,79,0.00,,,0.00,0.00,VWS V14.00,2013-11-04 14:05:00,
2013-11-04 07:06:00,26.2,20.6,30.97,SE,146,0.0,0.0,79,0.00,,,0.00,0.00,VWS V14.00,2013-11-04 14:06:00,
2013-11-04 07:07:00,26.2,20.6,30.97,SE,146,0.0,0.0,79,0.00,,,0.00,0.00,VWS V14.00,2013-11-04 14:07:00,
2013-11-04 07:08:00,26.1,20.5,30.97,SE,146,0.0,0.0,79,0.00,,,0.00,0.00,VWS V14.00,2013-11-04 14:08:00,
2013-11-04 07:09:00,26.1,20.5,30.98,SE,145,0.0,0.0,79,0.00,,,0.00,0.00,VWS V14.00,2013-11-04 14:09:00,
2013-11-04 07:10:00,26.1,20.5,30.97,SE,146,0.0,0.0,79,0.00,,,0.00,0.00,VWS V14.00,2013-11-04 14:10:00,
2013-11-04 07:11:00,26.0,20.1,30.97,SE,146,0.0,0.0,78,0.00,,,0.00,0.00,VWS V14.00,2013-11-04 14:11:00,
2013-11-04 07:12:00,26.0,20.1,30.97,SE,146,2.0,2.0,78,0.00,,,0.00,0.00,VWS V14.00,2013-11-04 14:12:00,
2013-11-04 07:13:00,26.0,20.1,30.97,SE,146,4.0,4.0,78,0.00,,,0.00,0.00,VWS V14.00,2013-11-04 14:13:00,
2013-11-04 07:14:00,26.0,20.4,30.98,SE,145,3.0,4.0,79,0.00,,,0.00,0.00,VWS V14.00,2013-11-04 14:14:00,
2013-11-04 07:15:00,26.0,20.4,30.98,SE,145,4.0,4.0,79,0.00,,,0.00,5.00,VWS V14.00,2013-11-04 14:15:00,
2013-11-04 07:16:00,26.0,20.1,30.98,SE,146,3.0,4.0,78,0.00,,,0.00,5.00,VWS V14.00,2013-11-04 14:16:00,
2013-11-04 07:17:00,26.1,20.2,30.97,SE,146,3.0,4.0,78,0.00,,,0.00,7.00,VWS V14.00,2013-11-04 14:17:00,
2013-11-04 07:18:00,26.0,20.1,30.98,SE,145,3.0,4.0,78,0.00,,,0.00,9.00,VWS V14.00,2013-11-04 14:18:00,
2013-11-04 07:19:00,26.1,20.2,30.98,SE,146,3.0,5.0,78,0.00,,,0.00,9.00,VWS V14.00,2013-11-04 14:19:00,
2013-11-04 07:20:00,26.1,20.2,30.98,SE,146,4.0,5.0,78,0.00,,,0.00,11.00,VWS V14.00,2013-11-04 14:20:00,
2013-11-04 07:21:00,26.2,20.3,30.98,SE,146,5.0,5.0,78,0.00,,,0.00,12.00,VWS V14.00,2013-11-04 14:21:00,
2013-11-04 07:22:00,26.2,20.3,30.98,SE,145,4.0,6.0,78,0.00,,,0.00,14.00,VWS V14.00,2013-11-04 14:22:00,
2013-11-04 07:23:00,26.2,20.3,30.98,SE,145,4.0,6.0,78,0.00,,,0.00,14.00,VWS V14.00,2013-11-04 14:23:00,
2013-11-04 07:24:00,26.3,20.4,30.98,SE,146,6.0,6.0,78,0.00,,,0.00,14.00,VWS V14.00,2013-11-04 14:24:00,
2013-11-04 07:25:00,26.3,20.4,30.98,SE,146,4.0,6.0,78,0.00,,,0.00,16.00,VWS V14.00,2013-11-04 14:25:00,
2013-11-04 07:26:00,26.3,20.4,30.98,SSE,148,4.0,6.0,78,0.00,,,0.00,16.00,VWS V14.00,2013-11-04 14:26:00,
2013-11-04 07:27:00,26.4,20.5,30.98,SE,145,7.0,7.0,78,0.00,,,0.00,18.00,VWS V14.00,2013-11-04 14:27:00,
2013-11-04 07:28:00,26.4,20.5,30.98,SSE,149,6.0,7.0,78,0.00,,,0.00,19.00,VWS V14.00,2013-11-04 14:28:00,
2013-11-04 07:29:00,26.5,20.6,30.98,SSE,149,4.0,7.0,78,0.00,,,0.00,19.00,VWS V14.00,2013-11-04 14:29:00,
2013-11-04 07:30:00,26.5,20.6,30.98,SSE,157,4.0,7.0,78,0.00,,,0.00,19.00,VWS V14.00,2013-11-04 14:30:00,
2013-11-04 07:31:00,26.5,20.6,30.98,SSE,149,6.0,6.0,78,0.00,,,0.00,21.00,VWS V14.00,2013-11-04 14:31:00,
2013-11-04 07:32:00,26.6,20.7,30.98,SSE,150,4.0,7.0,78,0.00,,,0.00,21.00,VWS V14.00,2013-11-04 14:32:00,
2013-11-04 07:33:00,26.6,20.7,30.98,SSE,152,5.0,7.0,78,0.00,,,0.00,21.00,VWS V14.00,2013-11-04 14:33:00,
2013-11-04 07:34:00,26.6,20.7,30.98,SSE,152,5.0,7.0,78,0.00,,,0.00,23.00,VWS V14.00,2013-11-04 14:34:00,
2013-11-04 07:35:00,26.6,20.7,30.98,SSE,152,4.0,7.0,78,0.00,,,0.00,23.00,VWS V14.00,2013-11-04 14:35:00,
2013-11-04 07:36:00,26.6,20.7,30.98,SSE,152,3.0,7.0,78,0.00,,,0.00,23.00,VWS V14.00,2013-11-04 14:36:00,
2013-11-04 07:37:00,26.6,20.7,30.98,SSE,152,4.0,7.0,78,0.00,,,0.00,23.00,VWS V14.00,2013-11-04 14:37:00,
2013-11-04 07:38:00,26.6,20.7,30.98,SSE,150,3.0,7.0,78,0.00,,,0.00,23.00,VWS V14.00,2013-11-04 14:38:00,
2013-11-04 07:39:00,26.6,20.7,30.98,SE,144,4.0,7.0,78,0.00,,,0.00,25.00,VWS V14.00,2013-11-04 14:39:00,
2013-11-04 07:40:00,26.6,20.7,30.98,SE,144,3.0,7.0,78,0.00,,,0.00,25.00,VWS V14.00,2013-11-04 14:40:00,
2013-11-04 07:41:00,26.6,20.7,30.98,SSE,150,4.0,7.0,78,0.00,,,0.00,25.00,VWS V14.00,2013-11-04 14:41:00,
2013-11-04 07:42:00,26.6,20.7,30.98,SE,146,6.0,7.0,78,0.00,,,0.00,25.00,VWS V14.00,2013-11-04 14:42:00,
2013-11-04 07:43:00,26.6,20.7,30.98,SE,146,3.0,7.0,78,0.00,,,0.00,25.00,VWS V14.00,2013-11-04 14:43:00,
2013-11-04 07:44:00,26.6,20.7,30.98,SE,145,2.0,7.0,78,0.00,,,0.00,25.00,VWS V14.00,2013-11-04 14:44:00,
2013-11-04 07:45:00,26.6,20.7,30.99,SE,146,2.0,7.0,78,0.00,,,0.00,25.00,VWS V14.00,2013-11-04 14:45:00,
2013-11-04 07:46:00,26.6,20.7,30.98,SE,145,4.0,4.0,78,0.00,,,0.00,25.00,VWS V14.00,2013-11-04 14:46:00,
2013-11-04 07:47:00,26.6,20.7,30.99,SE,145,4.0,7.0,78,0.00,,,0.00,25.00,VWS V14.00,2013-11-04 14:47:00,
2013-11-04 07:48:00,26.6,20.7,30.99,SE,145,2.0,7.0,78,0.00,,,0.00,25.00,VWS V14.00,2013-11-04 14:48:00,
2013-11-04 07:49:00,26.6,20.7,30.99,SE,145,3.0,7.0,78,0.00,,,0.00,25.00,VWS V14.00,2013-11-04 14:49:00,
2013-11-04 07:50:00,26.6,20.7,30.99,SE,145,3.0,7.0,78,0.00,,,0.00,25.00,VWS V14.00,2013-11-04 14:50:00,
2013-11-04 07:51:00,26.6,20.7,30.99,SE,145,2.0,7.0,78,0.00,,,0.00,25.00,VWS V14.00,2013-11-04 14:51:00,
2013-11-04 07:52:00,26.6,20.7,30.99,SE,145,2.0,7.0,78,0.00,,,0.00,25.00,VWS V14.00,2013-11-04 14:52:00,
2013-11-04 07:53:00,26.7,20.8,30.99,SE,146,3.0,7.0,78,0.00,,,0.00,25.00,VWS V14.00,2013-11-04 14:53:00,
2013-11-04 07:54:00,26.7,20.8,30.99,SSE,147,3.0,7.0,78,0.00,,,0.00,25.00,VWS V14.00,2013-11-04 14:54:00,
2013-11-04 07:55:00,26.7,20.8,30.99,SSE,148,3.0,7.0,78,0.00,,,0.00,26.00,VWS V14.00,2013-11-04 14:55:00,
2013-11-04 07:56:00,26.7,20.8,30.99,SSE,148,3.0,7.0,78,0.00,,,0.00,26.00,VWS V14.00,2013-11-04 14:56:00,
2013-11-04 07:57:00,26.7,20.8,30.99,SSE,148,2.0,7.0,78,0.00,,,0.00,26.00,VWS V14.00,2013-11-04 14:57:00,
2013-11-04 07:58:00,26.7,20.8,30.99,SSE,153,2.0,7.0,78,0.00,,,0.00,26.00,VWS V14.00,2013-11-04 14:58:00,
2013-11-04 07:59:00,26.7,20.8,30.99,SSE,153,3.0,7.0,78,0.00,,,0.00,26.00,VWS V14.00,2013-11-04 14:59:00,
2013-11-04 08:00:00,26.8,20.9,30.99,SSE,152,4.0,7.0,78,0.00,,,0.00,26.00,VWS V14.00,2013-11-04 15:00:00,
2013-11-04 08:01:00,26.8,20.9,30.99,SSE,153,3.0,4.0,78,0.00,,,0.00,28.00,VWS V14.00,2013-11-04 15:01:00,
2013-11-04 08:02:00,26.8,20.9,30.99,SSE,152,3.0,4.0,78,0.00,,,0.00,28.00,VWS V14.00,2013-11-04 15:02:00,
2013-11-04 08:03:00,26.8,20.9,30.99,SSE,152,4.0,5.0,78,0.00,,,0.00,30.00,VWS V14.00,2013-11-04 15:03:00,
2013-11-04 08:04:00,26.8,20.9,30.99,SSE,153,5.0,6.0,78,0.00,,,0.00,30.00,VWS V14.00,2013-11-04 15:04:00,
2013-11-04 08:05:00,26.8,20.9,30.99,SSE,152,2.0,6.0,78,0.00,,,0.00,32.00,VWS V14.00,2013-11-04 15:05:00,
2013-11-04 08:06:00,26.8,20.9,30.99,SSE,153,4.0,6.0,78,0.00,,,0.00,33.00,VWS V14.00,2013-11-04 15:06:00,
2013-11-04 08:07:00,26.9,21.3,30.99,SSE,153,4.0,6.0,79,0.00,,,0.00,35.00,VWS V14.00,2013-11-04 15:07:00,
2013-11-04 08:08:00,26.9,21.3,30.99,SSE,153,3.0,6.0,79,0.00,,,0.00,37.00,VWS V14.00,2013-11-04 15:08:00,
2013-11-04 08:09:00,26.9,21.3,30.99,SSE,153,3.0,6.0,79,0.00,,,0.00,40.00,VWS V14.00,2013-11-04 15:09:00,
2013-11-04 08:10:00,26.9,21.3,30.99,SSE,156,4.0,6.0,79,0.00,,,0.00,42.00,VWS V14.00,2013-11-04 15:10:00,
2013-11-04 08:11:00,26.9,21.3,30.99,SSE,160,4.0,7.0,79,0.00,,,0.00,46.00,VWS V14.00,2013-11-04 15:11:00,
2013-11-04 08:12:00,27.0,21.4,30.99,SSE,160,3.0,7.0,79,0.00,,,0.00,46.00,VWS V14.00,2013-11-04 15:12:00,
2013-11-04 08:13:00,27.0,21.4,30.99,SSE,161,2.0,7.0,79,0.00,,,0.00,51.00,VWS V14.00,2013-11-04 15:13:00,
2013-11-04 08:14:00,27.0,21.4,30.99,SSE,161,4.0,7.0,79,0.00,,,0.00,54.00,VWS V14.00,2013-11-04 15:14:00,
2013-11-04 08:15:00,27.0,21.1,30.99,SSE,161,5.0,7.0,78,0.00,,,0.00,63.00,VWS V14.00,2013-11-04 15:15:00,
2013-11-04 08:16:00,27.1,21.2,30.99,SSE,161,4.0,5.0,78,0.00,,,0.00,63.00,VWS V14.00,2013-11-04 15:16:00,
2013-11-04 08:17:00,27.1,21.5,30.99,SSE,161,3.0,5.0,79,0.00,,,0.00,63.00,VWS V14.00,2013-11-04 15:17:00,
2013-11-04 08:18:00,27.1,21.5,30.99,SSE,161,3.0,5.0,79,0.00,,,0.00,63.00,VWS V14.00,2013-11-04 15:18:00,
2013-11-04 08:19:00,27.2,21.6,30.99,SSE,161,3.0,5.0,79,0.00,,,0.00,63.00,VWS V14.00,2013-11-04 15:19:00,
2013-11-04 08:20:00,27.2,21.6,30.99,SSE,161,3.0,5.0,79,0.00,,,0.00,62.00,VWS V14.00,2013-11-04 15:20:00,
2013-11-04 08:21:00,27.3,21.7,31.00,SSE,161,0.0,5.0,79,0.00,,,0.00,69.00,VWS V14.00,2013-11-04 15:21:00,
2013-11-04 08:22:00,27.4,21.8,31.00,SSE,161,2.0,5.0,79,0.00,,,0.00,70.00,VWS V14.00,2013-11-04 15:22:00,
2013-11-04 08:23:00,27.4,21.8,31.00,SSE,161,4.0,5.0,79,0.00,,,0.00,70.00,VWS V14.00,2013-11-04 15:23:00,
2013-11-04 08:24:00,27.5,22.1,31.00,SSE,161,4.0,5.0,80,0.00,,,0.00,70.00,VWS V14.00,2013-11-04 15:24:00,
2013-11-04 08:25:00,27.5,21.9,31.00,SSE,161,5.0,5.0,79,0.00,,,0.00,67.00,VWS V14.00,2013-11-04 15:25:00,
2013-11-04 08:26:00,27.6,22.0,31.00,SSE,162,3.0,5.0,79,0.00,,,0.00,70.00,VWS V14.00,2013-11-04 15:26:00,
2013-11-04 08:27:00,27.7,22.0,31.00,SSE,163,6.0,6.0,79,0.00,,,0.00,63.00,VWS V14.00,2013-11-04 15:27:00,
2013-11-04 08:28:00,27.8,21.9,31.00,SSE,163,3.0,7.0,78,0.00,,,0.00,63.00,VWS V14.00,2013-11-04 15:28:00,
2013-11-04 08:29:00,27.8,21.9,31.00,SSE,163,7.0,7.0,78,0.00,,,0.00,65.00,VWS V14.00,2013-11-04 15:29:00,
2013-11-04 08:30:00,27.9,21.9,31.00,SSE,163,4.0,7.0,78,0.00,,,0.00,65.00,VWS V14.00,2013-11-04 15:30:00,
2013-11-04 08:31:00,28.0,22.0,31.00,SSE,163,1.0,6.0,78,0.00,,,0.00,67.00,VWS V14.00,2013-11-04 15:31:00,
2013-11-04 08:32:00,28.0,22.0,31.00,SSE,163,3.0,6.0,78,0.00,,,0.00,67.00,VWS V14.00,2013-11-04 15:32:00,
2013-11-04 08:33:00,28.1,22.4,31.00,SSE,163,3.0,6.0,79,0.00,,,0.00,67.00,VWS V14.00,2013-11-04 15:33:00,
2013-11-04 08:34:00,28.2,22.5,31.00,SSE,163,3.0,6.0,79,0.00,,,0.00,67.00,VWS V14.00,2013-11-04 15:34:00,
2013-11-04 08:35:00,28.2,22.5,31.00,SSE,163,2.0,6.0,79,0.00,,,0.00,67.00,VWS V14.00,2013-11-04 15:35:00,
2013-11-04 08:36:00,28.3,22.6,31.00,SSE,163,4.0,6.0,79,0.00,,,0.00,67.00,VWS V14.00,2013-11-04 15:36:00,
2013-11-04 08:37:00,28.4,22.4,31.00,SSE,163,3.0,6.0,78,0.00,,,0.00,69.00,VWS V14.00,2013-11-04 15:37:00,
2013-11-04 08:38:00,28.4,22.4,31.00,SSE,163,2.0,6.0,78,0.00,,,0.00,74.00,VWS V14.00,2013-11-04 15:38:00,
2013-11-04 08:39:00,28.5,22.5,31.00,SSE,163,1.0,6.0,78,0.00,,,0.00,76.00,VWS V14.00,2013-11-04 15:39:00,
2013-11-04 08:40:00,28.5,22.5,30.99,SSE,163,0.0,6.0,78,0.00,,,0.00,81.00,VWS V14.00,2013-11-04 15:40:00,
2013-11-04 08:41:00,28.6,22.6,30.99,SSE,163,0.0,6.0,78,0.00,,,0.00,84.00,VWS V14.00,2013-11-04 15:41:00,
2013-11-04 08:42:00,28.7,23.0,31.00,SSE,163,0.0,6.0,79,0.00,,,0.00,88.00,VWS V14.00,2013-11-04 15:42:00,
2013-11-04 08:43:00,28.7,23.0,31.00,SSW,193,2.0,7.0,79,0.00,,,0.00,91.00,VWS V14.00,2013-11-04 15:43:00,
2013-11-04 08:44:00,28.8,22.8,31.00,South,175,4.0,7.0,78,0.00,,,0.00,102.00,VWS V14.00,2013-11-04 15:44:00,
2013-11-04 08:45:00,28.8,22.8,31.00,South,186,2.0,7.0,78,0.00,,,0.00,109.00,VWS V14.00,2013-11-04 15:45:00,
2013-11-04 08:46:00,28.9,22.9,30.99,South,186,2.0,5.0,78,0.00,,,0.00,116.00,VWS V14.00,2013-11-04 15:46:00,
2013-11-04 08:47:00,28.9,23.2,30.99,South,184,2.0,5.0,79,0.00,,,0.00,121.00,VWS V14.00,2013-11-04 15:47:00,
2013-11-04 08:48:00,29.0,23.3,30.99,South,173,4.0,5.0,79,0.00,,,0.00,123.00,VWS V14.00,2013-11-04 15:48:00,
2013-11-04 08:49:00,29.1,23.4,31.00,South,171,4.0,5.0,79,0.00,,,0.00,128.00,VWS V14.00,2013-11-04 15:49:00,
2013-11-04 08:50:00,29.2,23.2,30.99,South,169,3.0,5.0,78,0.00,,,0.00,134.00,VWS V14.00,2013-11-04 15:50:00,
2013-11-04 08:51:00,29.3,23.3,30.99,South,169,2.0,5.0,78,0.00,,,0.00,137.00,VWS V14.00,2013-11-04 15:51:00,
2013-11-04 08:52:00,29.3,23.3,30.99,South,184,2.0,7.0,78,0.00,,,0.00,139.00,VWS V14.00,2013-11-04 15:52:00,
2013-11-04 08:53:00,29.4,23.4,30.99,South,185,2.0,7.0,78,0.00,,,0.00,139.00,VWS V14.00,2013-11-04 15:53:00,
2013-11-04 08:54:00,29.4,23.7,30.99,South,185,2.0,7.0,79,0.00,,,0.00,141.00,VWS V14.00,2013-11-04 15:54:00,
2013-11-04 08:55:00,29.5,23.5,30.99,South,185,2.0,7.0,78,0.00,,,0.00,132.00,VWS V14.00,2013-11-04 15:55:00,
2013-11-04 08:56:00,29.6,23.6,30.99,South,188,0.0,7.0,78,0.00,,,0.00,107.00,VWS V14.00,2013-11-04 15:56:00,
2013-11-04 08:57:00,29.6,23.6,30.99,South,191,4.0,7.0,78,0.00,,,0.00,100.00,VWS V14.00,2013-11-04 15:57:00,
2013-11-04 08:58:00,29.7,23.7,30.99,SSW,192,2.0,7.0,78,0.00,,,0.00,93.00,VWS V14.00,2013-11-04 15:58:00,
2013-11-04 08:59:00,29.7,23.7,30.99,South,191,3.0,7.0,78,0.00,,,0.00,90.00,VWS V14.00,2013-11-04 15:59:00,
2013-11-04 09:00:00,29.8,23.8,30.99,South,191,2.0,7.0,78,0.00,,,0.00,86.00,VWS V14.00,2013-11-04 16:00:00,
2013-11-04 09:01:00,29.8,23.8,31.00,South,189,3.0,4.0,78,0.00,,,0.00,84.00,VWS V14.00,2013-11-04 16:01:00,
2013-11-04 09:02:00,29.9,23.6,31.00,South,179,3.0,5.0,77,0.00,,,0.00,81.00,VWS V14.00,2013-11-04 16:02:00,
2013-11-04 09:03:00,29.9,23.6,31.00,South,179,3.0,5.0,77,0.00,,,0.00,81.00,VWS V14.00,2013-11-04 16:03:00,
2013-11-04 09:04:00,29.9,23.6,31.00,South,179,3.0,5.0,77,0.00,,,0.00,83.00,VWS V14.00,2013-11-04 16:04:00,
2013-11-04 09:05:00,29.9,23.3,31.00,South,179,2.0,5.0,76,0.00,,,0.00,84.00,VWS V14.00,2013-11-04 16:05:00,
2013-11-04 09:06:00,30.0,23.4,31.01,South,171,5.0,7.0,76,0.00,,,0.00,86.00,VWS V14.00,2013-11-04 16:06:00,
2013-11-04 09:07:00,30.0,23.4,31.01,South,169,2.0,7.0,76,0.00,,,0.00,93.00,VWS V14.00,2013-11-04 16:07:00,
2013-11-04 09:08:00,30.0,23.4,31.00,South,169,3.0,7.0,76,0.00,,,0.00,98.00,VWS V14.00,2013-11-04 16:08:00,
2013-11-04 09:09:00,30.1,23.5,31.01,South,169,0.0,7.0,76,0.00,,,0.00,107.00,VWS V14.00,2013-11-04 16:09:00,
2013-11-04 09:10:00,30.1,23.5,31.01,South,169,0.0,7.0,76,0.00,,,0.00,113.00,VWS V14.00,2013-11-04 16:10:00,
2013-11-04 09:11:00,30.1,23.5,31.01,South,169,0.0,7.0,76,0.00,,,0.00,114.00,VWS V14.00,2013-11-04 16:11:00,
2013-11-04 09:12:00,30.1,23.5,31.01,SSE,168,0.0,7.0,76,0.00,,,0.00,113.00,VWS V14.00,2013-11-04 16:12:00,
2013-11-04 09:13:00,30.1,23.5,31.01,South,169,0.0,7.0,76,0.00,,,0.00,113.00,VWS V14.00,2013-11-04 16:13:00,
2013-11-04 09:14:00,30.1,23.5,31.01,South,169,0.0,7.0,76,0.00,,,0.00,116.00,VWS V14.00,2013-11-04 16:14:00,
2013-11-04 09:15:00,30.2,23.2,31.01,South,169,0.0,7.0,75,0.00,,,0.00,120.00,VWS V14.00,2013-11-04 16:15:00,
2013-11-04 09:16:00,30.2,23.6,31.01,South,169,0.0,2.0,76,0.00,,,0.00,125.00,VWS V14.00,2013-11-04 16:16:00,
2013-11-04 09:17:00,30.3,23.7,31.01,South,169,0.0,2.0,76,0.00,,,0.00,134.00,VWS V14.00,2013-11-04 16:17:00,
2013-11-04 09:18:00,30.3,23.7,31.01,SSE,168,3.0,4.0,76,0.00,,,0.00,148.00,VWS V14.00,2013-11-04 16:18:00,
2013-11-04 09:19:00,30.3,23.7,31.01,South,169,2.0,4.0,76,0.00,,,0.00,193.00,VWS V14.00,2013-11-04 16:19:00,
2013-11-04 09:20:00,30.4,23.4,31.00,South,169,0.0,4.0,75,0.00,,,0.00,171.00,VWS V14.00,2013-11-04 16:20:00,
2013-11-04 09:21:00,30.4,23.8,31.01,South,169,0.0,4.0,76,0.00,,,0.00,174.00,VWS V14.00,2013-11-04 16:21:00,
2013-11-04 09:22:00,30.5,23.9,31.01,South,169,0.0,4.0,76,0.00,,,0.00,171.00,VWS V14.00,2013-11-04 16:22:00,
2013-11-04 09:23:00,30.5,23.9,31.00,South,169,0.0,4.0,76,0.00,,,0.00,176.00,VWS V14.00,2013-11-04 16:23:00,
2013-11-04 09:24:00,30.6,24.0,31.00,South,169,0.0,4.0,76,0.00,,,0.00,179.00,VWS V14.00,2013-11-04 16:24:00,
2013-11-04 09:25:00,30.6,24.0,31.00,South,169,0.0,4.0,76,0.00,,,0.00,216.00,VWS V14.00,2013-11-04 16:25:00,
2013-11-04 09:26:00,30.7,23.7,31.00,South,169,0.0,4.0,75,0.00,,,0.00,155.00,VWS V14.00,2013-11-04 16:26:00,
2013-11-04 09:27:00,30.7,24.0,31.00,South,169,0.0,4.0,76,0.00,,,0.00,155.00,VWS V14.00,2013-11-04 16:27:00,
2013-11-04 09:28:00,30.8,24.1,31.00,South,169,0.0,4.0,76,0.00,,,0.00,156.00,VWS V14.00,2013-11-04 16:28:00,
2013-11-04 09:29:00,30.8,23.8,31.00,SSE,168,3.0,4.0,75,0.00,,,0.00,162.00,VWS V14.00,2013-11-04 16:29:00,
2013-11-04 09:30:00,30.9,23.6,31.00,SSE,167,3.0,4.0,74,0.00,,,0.00,186.00,VWS V14.00,2013-11-04 16:30:00,
2013-11-04 09:31:00,31.0,23.7,31.00,SSE,167,2.0,3.0,74,0.00,,,0.00,169.00,VWS V14.00,2013-11-04 16:31:00,
2013-11-04 09:32:00,31.0,23.4,31.00,SSE,167,0.0,4.0,73,0.00,,,0.00,165.00,VWS V14.00,2013-11-04 16:32:00,
2013-11-04 09:33:00,31.0,23.7,31.00,SSE,167,0.0,4.0,74,0.00,,,0.00,162.00,VWS V14.00,2013-11-04 16:33:00,
2013-11-04 09:34:00,31.0,23.7,31.00,SSE,167,0.0,4.0,74,0.00,,,0.00,162.00,VWS V14.00,2013-11-04 16:34:00,
2013-11-04 09:35:00,31.1,23.8,31.00,SSE,167,0.0,4.0,74,0.00,,,0.00,158.00,VWS V14.00,2013-11-04 16:35:00,
2013-11-04 09:36:00,31.1,24.1,31.00,SSE,167,0.0,4.0,75,0.00,,,0.00,155.00,VWS V14.00,2013-11-04 16:36:00,
2013-11-04 09:37:00,31.1,23.8,31.00,SSE,167,0.0,4.0,74,0.00,,,0.00,148.00,VWS V14.00,2013-11-04 16:37:00,
2013-11-04 09:38:00,31.2,23.6,31.00,SSE,167,0.0,4.0,73,0.00,,,0.00,148.00,VWS V14.00,2013-11-04 16:38:00,
2013-11-04 09:39:00,31.2,23.6,31.00,SSE,167,0.0,4.0,73,0.00,,,0.00,149.00,VWS V14.00,2013-11-04 16:39:00,
2013-11-04 09:40:00,31.2,23.6,31.00,SSE,167,0.0,4.0,73,0.00,,,0.00,151.00,VWS V14.00,2013-11-04 16:40:00,
2013-11-04 09:41:00,31.2,23.6,31.00,SSE,167,0.0,4.0,73,0.00,,,0.00,160.00,VWS V14.00,2013-11-04 16:41:00,
2013-11-04 09:42:00,31.3,24.0,31.00,SSE,167,0.0,4.0,74,0.00,,,0.00,162.00,VWS V14.00,2013-11-04 16:42:00,
2013-11-04 09:43:00,31.3,24.0,31.00,SSE,167,0.0,4.0,74,0.00,,,0.00,207.00,VWS V14.00,2013-11-04 16:43:00,
2013-11-04 09:44:00,31.4,23.8,31.00,SSE,167,0.0,4.0,73,0.00,,,0.00,279.00,VWS V14.00,2013-11-04 16:44:00,
2013-11-04 09:45:00,31.4,23.8,31.00,SSE,167,0.0,4.0,73,0.00,,,0.00,279.00,VWS V14.00,2013-11-04 16:45:00,
2013-11-04 09:46:00,31.4,23.8,31.00,SSE,167,0.0,0.0,73,0.00,,,0.00,279.00,VWS V14.00,2013-11-04 16:46:00,
2013-11-04 09:47:00,31.5,23.9,31.00,SSE,167,0.0,0.0,73,0.00,,,0.00,146.00,VWS V14.00,2013-11-04 16:47:00,
2013-11-04 09:48:00,31.5,23.9,31.00,SSE,167,0.0,0.0,73,0.00,,,0.00,148.00,VWS V14.00,2013-11-04 16:48:00,
2013-11-04 09:49:00,31.5,23.9,31.00,SSE,167,0.0,0.0,73,0.00,,,0.00,185.00,VWS V14.00,2013-11-04 16:49:00,
2013-11-04 09:50:00,31.6,24.0,31.00,SSE,167,1.0,1.0,73,0.00,,,0.00,185.00,VWS V14.00,2013-11-04 16:50:00,
2013-11-04 09:51:00,31.7,24.0,31.00,SSE,167,0.0,1.0,73,0.00,,,0.00,380.00,VWS V14.00,2013-11-04 16:51:00,
2013-11-04 09:52:00,31.8,24.5,31.00,SSE,167,3.0,4.0,74,0.00,,,0.00,476.00,VWS V14.00,2013-11-04 16:52:00,
2013-11-04 09:53:00,31.9,24.2,31.00,SSE,167,1.0,4.0,73,0.00,,,0.00,469.00,VWS V14.00,2013-11-04 16:53:00,
2013-11-04 09:54:00,32.0,24.3,31.00,SSE,167,2.0,4.0,73,0.00,,,0.00,469.00,VWS V14.00,2013-11-04 16:54:00,
2013-11-04 09:55:00,32.1,24.4,31.00,SSE,167,3.0,4.0,73,0.00,,,0.00,439.00,VWS V14.00,2013-11-04 16:55:00,
2013-11-04 09:56:00,32.3,24.6,31.00,SSE,168,2.0,5.0,73,0.00,,,0.00,432.00,VWS V14.00,2013-11-04 16:56:00,
2013-11-04 09:57:00,32.4,24.4,30.99,SSE,167,4.0,6.0,72,0.00,,,0.00,339.00,VWS V14.00,2013-11-04 16:57:00,
2013-11-04 09:58:00,32.6,24.2,31.00,SSE,167,2.0,6.0,71,0.00,,,0.00,309.00,VWS V14.00,2013-11-04 16:58:00,
2013-11-04 09:59:00,32.7,24.4,30.99,SSE,167,4.0,6.0,71,0.00,,,0.00,297.00,VWS V14.00,2013-11-04 16:59:00,
2013-11-04 10:00:00,32.8,24.1,30.99,SSE,167,0.0,6.0,70,0.00,,,0.00,248.00,VWS V14.00,2013-11-04 17:00:00,
2013-11-04 10:01:00,32.9,24.2,30.99,SSE,167,3.0,3.0,70,0.00,,,0.00,199.00,VWS V14.00,2013-11-04 17:01:00,
2013-11-04 10:02:00,32.9,24.2,30.99,SSE,167,0.0,3.0,70,0.00,,,0.00,179.00,VWS V14.00,2013-11-04 17:02:00,
2013-11-04 10:03:00,33.0,24.3,30.99,SSE,167,0.0,3.0,70,0.00,,,0.00,183.00,VWS V14.00,2013-11-04 17:03:00,
2013-11-04 10:04:00,33.0,24.0,30.99,SSE,167,1.0,3.0,69,0.00,,,0.00,179.00,VWS V14.00,2013-11-04 17:04:00,
2013-11-04 10:05:00,33.1,24.0,30.99,SSE,167,0.0,3.0,69,0.00,,,0.00,202.00,VWS V14.00,2013-11-04 17:05:00,
2013-11-04 10:06:00,33.1,24.0,30.99,SSE,167,0.0,3.0,69,0.00,,,0.00,179.00,VWS V14.00,2013-11-04 17:06:00,
2013-11-04 10:07:00,33.2,24.1,30.99,SSE,167,0.0,3.0,69,0.00,,,0.00,179.00,VWS V14.00,2013-11-04 17:07:00,
2013-11-04 10:08:00,33.2,24.1,30.99,SSE,167,0.0,3.0,69,0.00,,,0.00,178.00,VWS V14.00,2013-11-04 17:08:00,
2013-11-04 10:09:00,33.2,23.8,30.99,SSE,167,0.0,3.0,68,0.00,,,0.00,174.00,VWS V14.00,2013-11-04 17:09:00,
2013-11-04 10:10:00,33.2,23.8,30.99,SSE,167,0.0,3.0,68,0.00,,,0.00,171.00,VWS V14.00,2013-11-04 17:10:00,
2013-11-04 10:11:00,33.3,23.9,30.99,SSE,167,0.0,3.0,68,0.00,,,0.00,167.00,VWS V14.00,2013-11-04 17:11:00,
2013-11-04 10:12:00,33.3,23.9,30.99,SSE,167,0.0,3.0,68,0.00,,,0.00,165.00,VWS V14.00,2013-11-04 17:12:00,
2013-11-04 10:13:00,33.3,23.9,30.99,SSE,167,0.0,3.0,68,0.00,,,0.00,158.00,VWS V14.00,2013-11-04 17:13:00,
2013-11-04 10:14:00,33.3,23.9,30.99,SSE,167,0.0,3.0,68,0.00,,,0.00,153.00,VWS V14.00,2013-11-04 17:14:00,
2013-11-04 10:15:00,33.3,23.9,30.99,SSE,167,0.0,3.0,68,0.00,,,0.00,151.00,VWS V14.00,2013-11-04 17:15:00,
2013-11-04 10:16:00,33.3,23.9,30.99,SSE,167,0.0,0.0,68,0.00,,,0.00,156.00,VWS V14.00,2013-11-04 17:16:00,
2013-11-04 10:17:00,33.4,24.0,30.99,SSE,167,0.0,0.0,68,0.00,,,0.00,155.00,VWS V14.00,2013-11-04 17:17:00,
2013-11-04 10:18:00,33.4,24.0,30.99,SSE,167,0.0,0.0,68,0.00,,,0.00,148.00,VWS V14.00,2013-11-04 17:18:00,
2013-11-04 10:19:00,33.4,23.6,30.99,SSE,167,0.0,0.0,67,0.00,,,0.00,149.00,VWS V14.00,2013-11-04 17:19:00,
2013-11-04 10:20:00,33.4,23.6,30.99,SSE,167,0.0,0.0,67,0.00,,,0.00,155.00,VWS V14.00,2013-11-04 17:20:00,
2013-11-04 10:21:00,33.4,24.0,30.99,SSE,167,0.0,0.0,68,0.00,,,0.00,167.00,VWS V14.00,2013-11-04 17:21:00,
2013-11-04 10:22:00,33.4,23.6,30.99,SSE,167,0.0,0.0,67,0.00,,,0.00,165.00,VWS V14.00,2013-11-04 17:22:00,
2013-11-04 10:23:00,33.4,23.6,30.99,SSE,167,0.0,0.0,67,0.00,,,0.00,156.00,VWS V14.00,2013-11-04 17:23:00,
2013-11-04 10:24:00,33.4,23.6,30.99,SSE,167,0.0,0.0,67,0.00,,,0.00,167.00,VWS V14.00,2013-11-04 17:24:00,
2013-11-04 10:25:00,33.4,23.6,30.99,SSE,167,0.0,0.0,67,0.00,,,0.00,174.00,VWS V14.00,2013-11-04 17:25:00,
2013-11-04 10:26:00,33.4,23.6,30.99,SSE,167,0.0,0.0,67,0.00,,,0.00,186.00,VWS V14.00,2013-11-04 17:26:00,
2013-11-04 10:27:00,33.5,23.7,30.99,SSE,167,0.0,0.0,67,0.00,,,0.00,202.00,VWS V14.00,2013-11-04 17:27:00,
2013-11-04 10:28:00,33.5,23.7,30.99,SSE,167,0.0,0.0,67,0.00,,,0.00,202.00,VWS V14.00,2013-11-04 17:28:00,
2013-11-04 10:29:00,33.5,24.1,30.99,SSE,167,0.0,0.0,68,0.00,,,0.00,246.00,VWS V14.00,2013-11-04 17:29:00,
2013-11-04 10:30:00,33.5,24.1,30.99,SSE,167,0.0,0.0,68,0.00,,,0.00,236.00,VWS V14.00,2013-11-04 17:30:00,
2013-11-04 10:31:00,33.6,23.8,30.99,SSE,167,0.0,0.0,67,0.00,,,0.00,230.00,VWS V14.00,2013-11-04 17:31:00,
2013-11-04 10:32:00,33.6,23.8,30.99,SSE,167,0.0,0.0,67,0.00,,,0.00,237.00,VWS V14.00,2013-11-04 17:32:00,
2013-11-04 10:33:00,33.6,23.8,30.99,SSE,167,0.0,0.0,67,0.00,,,0.00,237.00,VWS V14.00,2013-11-04 17:33:00,
2013-11-04 10:34:00,33.6,23.8,30.99,SSE,167,0.0,0.0,67,0.00,,,0.00,229.00,VWS V14.00,2013-11-04 17:34:00,
2013-11-04 10:35:00,33.7,24.3,30.99,SSE,167,0.0,0.0,68,0.00,,,0.00,237.00,VWS V14.00,2013-11-04 17:35:00,
2013-11-04 10:36:00,33.7,24.3,30.99,SSE,167,0.0,0.0,68,0.00,,,0.00,232.00,VWS V14.00,2013-11-04 17:36:00,
2013-11-04 10:37:00,33.7,24.3,30.99,SSE,167,0.0,0.0,68,0.00,,,0.00,248.00,VWS V14.00,2013-11-04 17:37:00,
2013-11-04 10:38:00,33.7,24.3,30.99,SSE,167,0.0,0.0,68,0.00,,,0.00,339.00,VWS V14.00,2013-11-04 17:38:00,
2013-11-04 10:39:00,33.8,25.7,30.99,SSE,167,0.0,0.0,72,0.00,,,0.00,425.00,VWS V14.00,2013-11-04 17:39:00,
2013-11-04 10:40:00,33.9,24.8,30.99,SSE,167,0.0,0.0,69,0.00,,,0.00,366.00,VWS V14.00,2013-11-04 17:40:00,
2013-11-04 10:41:00,34.1,24.7,30.99,SSE,167,0.0,0.0,68,0.00,,,0.00,404.00,VWS V14.00,2013-11-04 17:41:00,
2013-11-04 10:42:00,34.2,24.8,30.99,SSE,167,0.0,0.0,68,0.00,,,0.00,404.00,VWS V14.00,2013-11-04 17:42:00,
2013-11-04 10:43:00,34.4,25.3,30.99,SSE,167,0.0,0.0,69,0.00,,,0.00,404.00,VWS V14.00,2013-11-04 17:43:00,
2013-11-04 10:44:00,34.4,25.3,30.99,SSE,167,0.0,0.0,69,0.00,,,0.00,362.00,VWS V14.00,2013-11-04 17:44:00,
2013-11-04 10:45:00,34.4,24.6,30.99,SSE,167,0.0,0.0,67,0.00,,,0.00,408.00,VWS V14.00,2013-11-04 17:45:00,
2013-11-04 10:46:00,34.7,24.9,30.98,SSE,167,0.0,0.0,67,0.00,,,0.00,408.00,VWS V14.00,2013-11-04 17:46:00,
2013-11-04 10:47:00,34.9,25.1,30.98,SSE,167,0.0,0.0,67,0.00,,,0.00,424.00,VWS V14.00,2013-11-04 17:47:00,
2013-11-04 10:48:00,35.0,24.4,30.98,SSE,167,0.0,0.0,65,0.00,,,0.00,429.00,VWS V14.00,2013-11-04 17:48:00,
2013-11-04 10:49:00,35.1,24.2,30.98,SSE,167,0.0,0.0,64,0.00,,,0.00,429.00,VWS V14.00,2013-11-04 17:49:00,
2013-11-04 10:50:00,35.2,24.3,30.98,SSE,167,0.0,0.0,64,0.00,,,0.00,376.00,VWS V14.00,2013-11-04 17:50:00,
2013-11-04 10:51:00,35.4,24.5,30.98,SSE,167,0.0,0.0,64,0.00,,,0.00,339.00,VWS V14.00,2013-11-04 17:51:00,
2013-11-04 10:52:00,35.5,24.5,30.98,SSE,167,0.0,0.0,64,0.00,,,0.00,343.00,VWS V14.00,2013-11-04 17:52:00,
2013-11-04 10:53:00,35.6,24.6,30.98,SSE,167,0.0,0.0,64,0.00,,,0.00,258.00,VWS V14.00,2013-11-04 17:53:00,
2013-11-04 10:54:00,35.7,24.4,30.98,SSE,167,0.0,0.0,63,0.00,,,0.00,258.00,VWS V14.00,2013-11-04 17:54:00,
2013-11-04 10:55:00,35.7,24.4,30.98,SSE,167,0.0,0.0,63,0.00,,,0.00,443.00,VWS V14.00,2013-11-04 17:55:00,
2013-11-04 10:56:00,35.9,24.9,30.98,SSE,167,0.0,0.0,64,0.00,,,0.00,383.00,VWS V14.00,2013-11-04 17:56:00,
2013-11-04 10:57:00,36.0,24.6,30.98,SSE,167,0.0,0.0,63,0.00,,,0.00,452.00,VWS V14.00,2013-11-04 17:57:00,
2013-11-04 10:58:00,36.1,25.5,30.98,SSE,167,0.0,0.0,65,0.00,,,0.00,459.00,VWS V14.00,2013-11-04 17:58:00,
2013-11-04 10:59:00,36.3,25.3,30.98,SSE,167,0.0,0.0,64,0.00,,,0.00,459.00,VWS V14.00,2013-11-04 17:59:00,
2013-11-04 11:00:00,36.5,25.1,30.98,SSE,167,0.0,0.0,63,0.00,,,0.00,473.00,VWS V14.00,2013-11-04 18:00:00,
2013-11-04 11:01:00,36.6,24.4,30.97,SSE,167,0.0,1.0,61,0.00,,,0.00,473.00,VWS V14.00,2013-11-04 18:01:00,
2013-11-04 11:02:00,36.7,24.5,30.97,SSE,167,0.0,1.0,61,0.00,,,0.00,508.00,VWS V14.00,2013-11-04 18:02:00,
2013-11-04 11:03:00,36.9,24.7,30.97,SSE,167,0.0,1.0,61,0.00,,,0.00,531.00,VWS V14.00,2013-11-04 18:03:00,
2013-11-04 11:04:00,37.0,24.8,30.97,SSE,167,0.0,1.0,61,0.00,,,0.00,552.00,VWS V14.00,2013-11-04 18:04:00,
2013-11-04 11:05:00,37.1,24.9,30.97,SSE,167,0.0,1.0,61,0.00,,,0.00,325.00,VWS V14.00,2013-11-04 18:05:00,
2013-11-04 11:06:00,37.1,24.9,30.97,SSE,167,0.0,1.0,61,0.00,,,0.00,301.00,VWS V14.00,2013-11-04 18:06:00,
2013-11-04 11:07:00,37.2,25.0,30.97,SSE,167,0.0,1.0,61,0.00,,,0.00,376.00,VWS V14.00,2013-11-04 18:07:00,
2013-11-04 11:08:00,37.3,24.7,30.97,SSE,167,2.0,3.0,60,0.00,,,0.00,471.00,VWS V14.00,2013-11-04 18:08:00,
2013-11-04 11:09:00,37.4,24.4,30.97,SSE,167,0.0,3.0,59,0.00,,,0.00,461.00,VWS V14.00,2013-11-04 18:09:00,
2013-11-04 11:10:00,37.4,24.4,30.97,SSE,167,0.0,3.0,59,0.00,,,0.00,422.00,VWS V14.00,2013-11-04 18:10:00,
2013-11-04 11:11:00,37.5,24.1,30.97,SSE,167,0.0,3.0,58,0.00,,,0.00,230.00,VWS V14.00,2013-11-04 18:11:00,
2013-11-04 11:12:00,37.5,24.9,30.97,SSE,167,0.0,3.0,60,0.00,,,0.00,329.00,VWS V14.00,2013-11-04 18:12:00,
2013-11-04 11:13:00,37.6,25.0,30.97,SSE,167,0.0,3.0,60,0.00,,,0.00,304.00,VWS V14.00,2013-11-04 18:13:00,
2013-11-04 11:14:00,37.6,24.2,30.97,SSE,167,0.0,3.0,58,0.00,,,0.00,304.00,VWS V14.00,2013-11-04 18:14:00,
2013-11-04 11:15:00,37.7,23.9,30.97,SSE,167,0.0,3.0,57,0.00,,,0.00,155.00,VWS V14.00,2013-11-04 18:15:00,
2013-11-04 11:16:00,37.7,23.4,30.97,SSE,167,2.0,3.0,56,0.00,,,0.00,158.00,VWS V14.00,2013-11-04 18:16:00,
2013-11-04 11:17:00,37.7,23.0,30.97,SSE,167,0.0,3.0,55,0.00,,,0.00,163.00,VWS V14.00,2013-11-04 18:17:00,
2013-11-04 11:18:00,37.7,23.0,30.97,SSE,167,0.0,3.0,55,0.00,,,0.00,174.00,VWS V14.00,2013-11-04 18:18:00,
2013-11-04 11:19:00,37.7,23.0,30.97,SSE,167,0.0,3.0,55,0.00,,,0.00,193.00,VWS V14.00,2013-11-04 18:19:00,
2013-11-04 11:20:00,37.8,24.0,30.97,SSE,167,0.0,3.0,57,0.00,,,0.00,290.00,VWS V14.00,2013-11-04 18:20:00,
2013-11-04 11:21:00,37.8,24.0,30.97,SSE,167,0.0,3.0,57,0.00,,,0.00,315.00,VWS V14.00,2013-11-04 18:21:00,
2013-11-04 11:22:00,37.8,23.5,30.97,SSE,167,0.0,3.0,56,0.00,,,0.00,315.00,VWS V14.00,2013-11-04 18:22:00,
2013-11-04 11:23:00,37.9,24.5,30.97,SSE,167,0.0,3.0,58,0.00,,,0.00,506.00,VWS V14.00,2013-11-04 18:23:00,
2013-11-04 11:24:00,38.0,23.7,30.97,SSE,167,0.0,3.0,56,0.00,,,0.00,483.00,VWS V14.00,2013-11-04 18:24:00,
2013-11-04 11:25:00,38.1,23.4,30.97,SSE,167,0.0,3.0,55,0.00,,,0.00,490.00,VWS V14.00,2013-11-04 18:25:00,
2013-11-04 11:26:00,38.2,23.0,30.97,SSE,168,0.0,4.0,54,0.00,,,0.00,501.00,VWS V14.00,2013-11-04 18:26:00,
2013-11-04 11:27:00,38.3,23.6,30.97,SSE,168,0.0,4.0,55,0.00,,,0.00,476.00,VWS V14.00,2013-11-04 18:27:00,
2013-11-04 11:28:00,38.4,23.7,30.97,SSE,168,0.0,4.0,55,0.00,,,0.00,313.00,VWS V14.00,2013-11-04 18:28:00,
2013-11-04 11:29:00,38.4,23.7,30.97,SSE,168,0.0,4.0,55,0.00,,,0.00,323.00,VWS V14.00,2013-11-04 18:29:00,
2013-11-04 11:30:00,38.5,23.8,30.97,South,182,4.0,5.0,55,0.00,,,0.00,323.00,VWS V14.00,2013-11-04 18:30:00,
2013-11-04 11:31:00,38.5,23.3,30.95,SSW,202,4.0,5.0,54,0.00,,,0.00,323.00,VWS V14.00,2013-11-04 18:31:00,
2013-11-04 11:32:00,38.6,22.5,30.95,SSW,203,0.0,5.0,52,0.00,,,0.00,323.00,VWS V14.00,2013-11-04 18:32:00,
2013-11-04 11:33:00,38.6,22.5,30.96,SSW,203,0.0,5.0,52,0.00,,,0.00,512.00,VWS V14.00,2013-11-04 18:33:00,
2013-11-04 11:34:00,38.7,22.6,30.95,SSW,211,0.0,5.0,52,0.00,,,0.00,330.00,VWS V14.00,2013-11-04 18:34:00,
2013-11-04 11:35:00,38.7,22.6,30.96,SSW,198,5.0,5.0,52,0.00,,,0.00,343.00,VWS V14.00,2013-11-04 18:35:00,
2013-11-04 11:36:00,38.8,22.2,30.95,SSW,198,3.0,6.0,51,0.00,,,0.00,388.00,VWS V14.00,2013-11-04 18:36:00,
2013-11-04 11:37:00,38.8,22.2,30.95,South,182,4.0,6.0,51,0.00,,,0.00,478.00,VWS V14.00,2013-11-04 18:37:00,
2013-11-04 11:38:00,38.9,21.9,30.95,SSE,155,4.0,7.0,50,0.00,,,0.00,471.00,VWS V14.00,2013-11-04 18:38:00,
2013-11-04 11:39:00,38.9,21.9,30.96,SSE,156,0.0,7.0,50,0.00,,,0.00,427.00,VWS V14.00,2013-11-04 18:39:00,
2013-11-04 11:40:00,39.0,22.4,30.96,SSE,156,2.0,7.0,51,0.00,,,0.00,432.00,VWS V14.00,2013-11-04 18:40:00,
2013-11-04 11:41:00,39.1,23.0,30.95,SSE,156,0.0,7.0,52,0.00,,,0.00,425.00,VWS V14.00,2013-11-04 18:41:00,
2013-11-04 11:42:00,39.3,22.7,30.96,SSE,156,0.0,7.0,51,0.00,,,0.00,343.00,VWS V14.00,2013-11-04 18:42:00,
2013-11-04 11:43:00,39.4,21.8,30.96,SSE,156,0.0,7.0,49,0.00,,,0.00,329.00,VWS V14.00,2013-11-04 18:43:00,
2013-11-04 11:44:00,39.4,21.4,30.96,SSE,157,4.0,7.0,48,0.00,,,0.00,352.00,VWS V14.00,2013-11-04 18:44:00,
2013-11-04 11:45:00,39.5,21.5,30.95,SSE,164,5.0,7.0,48,0.00,,,0.00,371.00,VWS V14.00,2013-11-04 18:45:00,
2013-11-04 11:46:00,39.6,21.5,30.96,South,172,2.0,6.0,48,0.00,,,0.00,338.00,VWS V14.00,2013-11-04 18:46:00,
2013-11-04 11:47:00,39.6,21.5,30.95,South,172,1.0,6.0,48,0.00,,,0.00,309.00,VWS V14.00,2013-11-04 18:47:00,
2013-11-04 11:48:00,39.6,22.0,30.95,South,172,4.0,6.0,49,0.00,,,0.00,287.00,VWS V14.00,2013-11-04 18:48:00,
2013-11-04 11:49:00,39.6,21.5,30.96,South,172,2.0,6.0,48,0.00,,,0.00,287.00,VWS V14.00,2013-11-04 18:49:00,
2013-11-04 11:50:00,39.6,21.5,30.95,South,173,1.0,6.0,48,0.00,,,0.00,269.00,VWS V14.00,2013-11-04 18:50:00,
2013-11-04 11:51:00,39.6,21.5,30.95,South,174,4.0,6.0,48,0.00,,,0.00,301.00,VWS V14.00,2013-11-04 18:51:00,
2013-11-04 11:52:00,39.6,22.0,30.95,South,174,0.0,6.0,49,0.00,,,0.00,290.00,VWS V14.00,2013-11-04 18:52:00,
2013-11-04 11:53:00,39.6,21.5,30.95,South,175,4.0,6.0,48,0.00,,,0.00,288.00,VWS V14.00,2013-11-04 18:53:00,
2013-11-04 11:54:00,39.6,21.0,30.95,South,175,0.0,6.0,47,0.00,,,0.00,339.00,VWS V14.00,2013-11-04 18:54:00,
2013-11-04 11:55:00,39.6,22.0,30.95,South,184,9.0,9.0,49,0.00,,,0.00,279.00,VWS V14.00,2013-11-04 18:55:00,
2013-11-04 11:56:00,39.6,23.0,30.96,SSW,192,7.0,10.0,51,0.00,,,0.00,264.00,VWS V14.00,2013-11-04 18:56:00,
2013-11-04 11:57:00,39.5,22.9,30.95,SSE,159,6.0,11.0,51,0.00,,,0.00,281.00,VWS V14.00,2013-11-04 18:57:00,
2013-11-04 11:58:00,39.4,23.2,30.95,SSE,167,5.0,11.0,52,0.00,,,0.00,316.00,VWS V14.00,2013-11-04 18:58:00,
2013-11-04 11:59:00,39.4,23.7,30.96,South,186,6.0,11.0,53,0.00,,,0.00,294.00,VWS V14.00,2013-11-04 18:59:00,
2013-11-04 12:00:00,39.3,24.1,30.96,South,191,1.0,11.0,54,0.00,,,0.00,392.00,VWS V14.00,2013-11-04 19:00:00,
2013-11-04 12:01:00,39.3,24.5,30.96,South,186,8.0,10.0,55,0.00,,,0.00,404.00,VWS V14.00,2013-11-04 19:01:00,
2013-11-04 12:02:00,39.2,24.4,30.96,South,189,7.0,10.0,55,0.00,,,0.00,394.00,VWS V14.00,2013-11-04 19:02:00,
2013-11-04 12:03:00,39.2,24.0,30.97,South,187,5.0,10.0,54,0.00,,,0.00,461.00,VWS V14.00,2013-11-04 19:03:00,
2013-11-04 12:04:00,39.2,24.0,30.97,South,191,3.0,10.0,54,0.00,,,0.00,519.00,VWS V14.00,2013-11-04 19:04:00,
2013-11-04 12:05:00,39.2,24.8,30.97,South,190,4.0,10.0,56,0.00,,,0.00,519.00,VWS V14.00,2013-11-04 19:05:00,
2013-11-04 12:06:00,39.2,24.8,30.96,South,177,4.0,10.0,56,0.00,,,0.00,501.00,VWS V14.00,2013-11-04 19:06:00,
2013-11-04 12:07:00,39.3,24.9,30.96,South,184,3.0,10.0,56,0.00,,,0.00,468.00,VWS V14.00,2013-11-04 19:07:00,
2013-11-04 12:08:00,39.4,24.1,30.96,South,190,5.0,10.0,54,0.00,,,0.00,461.00,VWS V14.00,2013-11-04 19:08:00,
2013-11-04 12:09:00,39.4,24.1,30.97,SSE,152,9.0,10.0,54,0.00,,,0.00,404.00,VWS V14.00,2013-11-04 19:09:00,
2013-11-04 12:10:00,39.4,23.7,30.96,SSE,163,3.0,10.0,53,0.00,,,0.00,427.00,VWS V14.00,2013-11-04 19:10:00,
2013-11-04 12:11:00,39.5,24.2,30.95,SSE,167,4.0,10.0,54,0.00,,,0.00,522.00,VWS V14.00,2013-11-04 19:11:00,
2013-11-04 12:12:00,39.5,24.7,30.95,SSW,199,7.0,10.0,55,0.00,,,0.00,522.00,VWS V14.00,2013-11-04 19:12:00,
2013-11-04 12:13:00,39.6,25.2,30.95,South,173,5.0,10.0,56,0.00,,,0.00,301.00,VWS V14.00,2013-11-04 19:13:00,
2013-11-04 12:14:00,39.5,25.1,30.95,South,184,3.0,10.0,56,0.00,,,0.00,230.00,VWS V14.00,2013-11-04 19:14:00,
2013-11-04 12:15:00,39.5,25.1,30.95,SSE,159,6.0,10.0,56,0.00,,,0.00,285.00,VWS V14.00,2013-11-04 19:15:00,
2013-11-04 12:16:00,39.4,25.0,30.95,SSE,160,4.0,7.0,56,0.00,,,0.00,541.00,VWS V14.00,2013-11-04 19:16:00,
2013-11-04 12:17:00,39.4,25.5,30.96,South,171,6.0,9.0,57,0.00,,,0.00,541.00,VWS V14.00,2013-11-04 19:17:00,
2013-11-04 12:18:00,39.3,25.4,30.96,SSE,153,10.0,10.0,57,0.00,,,0.00,566.00,VWS V14.00,2013-11-04 19:18:00,
2013-11-04 12:19:00,39.3,24.9,30.96,SSE,159,8.0,11.0,56,0.00,,,0.00,543.00,VWS V14.00,2013-11-04 19:19:00,
2013-11-04 12:20:00,39.3,25.4,30.96,SSW,194,9.0,11.0,57,0.00,,,0.00,582.00,VWS V14.00,2013-11-04 19:20:00,
2013-11-04 12:21:00,39.3,25.4,30.96,SSE,159,3.0,11.0,57,0.00,,,0.00,520.00,VWS V14.00,2013-11-04 19:21:00,
2013-11-04 12:22:00,39.4,25.5,30.96,South,182,5.0,11.0,57,0.00,,,0.00,536.00,VWS V14.00,2013-11-04 19:22:00,
2013-11-04 12:23:00,39.5,26.0,30.96,SSE,159,7.0,11.0,58,0.00,,,0.00,536.00,VWS V14.00,2013-11-04 19:23:00,
2013-11-04 12:24:00,39.5,25.5,30.95,SSE,159,7.0,11.0,57,0.00,,,0.00,536.00,VWS V14.00,2013-11-04 19:24:00,
2013-11-04 12:25:00,39.5,25.1,30.95,South,178,7.0,11.0,56,0.00,,,0.00,311.00,VWS V14.00,2013-11-04 19:25:00,
2013-11-04 12:26:00,39.5,25.1,30.95,SSE,159,4.0,11.0,56,0.00,,,0.00,241.00,VWS V14.00,2013-11-04 19:26:00,
2013-11-04 12:27:00,39.5,25.5,30.95,SSE,158,5.0,11.0,57,0.00,,,0.00,241.00,VWS V14.00,2013-11-04 19:27:00,
2013-11-04 12:28:00,39.4,25.5,30.95,SSE,160,6.0,11.0,57,0.00,,,0.00,374.00,VWS V14.00,2013-11-04 19:28:00,
2013-11-04 12:29:00,39.3,25.4,30.96,SSE,150,6.0,11.0,57,0.00,,,0.00,292.00,VWS V14.00,2013-11-04 19:29:00,
2013-11-04 12:30:00,39.3,24.5,30.96,SSE,155,7.0,11.0,55,0.00,,,0.00,241.00,VWS V14.00,2013-11-04 19:30:00,
2013-11-04 12:31:00,39.1,24.3,30.96,SSE,157,9.0,9.0,55,0.00,,,0.00,244.00,VWS V14.00,2013-11-04 19:31:00,
2013-11-04 12:32:00,39.0,24.2,30.96,SSE,159,6.0,9.0,55,0.00,,,0.00,229.00,VWS V14.00,2013-11-04 19:32:00,
2013-11-04 12:33:00,38.9,23.7,30.96,SSE,159,5.0,10.0,54,0.00,,,0.00,199.00,VWS V14.00,2013-11-04 19:33:00,
2013-11-04 12:34:00,38.7,23.9,30.96,South,171,2.0,10.0,55,0.00,,,0.00,195.00,VWS V14.00,2013-11-04 19:34:00,
2013-11-04 12:35:00,38.7,24.4,30.96,South,171,3.0,10.0,56,0.00,,,0.00,193.00,VWS V14.00,2013-11-04 19:35:00,
2013-11-04 12:36:00,38.6,25.1,30.96,SSE,167,7.0,10.0,58,0.00,,,0.00,199.00,VWS V14.00,2013-11-04 19:36:00,
2013-11-04 12:37:00,38.5,24.2,30.96,SSE,168,6.0,10.0,56,0.00,,,0.00,209.00,VWS V14.00,2013-11-04 19:37:00,
2013-11-04 12:38:00,38.5,24.2,30.96,SSE,161,6.0,10.0,56,0.00,,,0.00,211.00,VWS V14.00,2013-11-04 19:38:00,
2013-11-04 12:39:00,38.4,24.1,30.96,SSE,165,6.0,10.0,56,0.00,,,0.00,290.00,VWS V14.00,2013-11-04 19:39:00,
2013-11-04 12:40:00,38.3,24.0,30.96,SSE,161,7.0,10.0,56,0.00,,,0.00,290.00,VWS V14.00,2013-11-04 19:40:00,
2013-11-04 12:41:00,38.3,24.4,30.96,SSE,160,5.0,10.0,57,0.00,,,0.00,357.00,VWS V14.00,2013-11-04 19:41:00,
2013-11-04 12:42:00,38.3,24.8,30.96,SSE,160,5.0,10.0,58,0.00,,,0.00,325.00,VWS V14.00,2013-11-04 19:42:00,
2013-11-04 12:43:00,38.3,24.8,30.96,SSE,152,6.0,10.0,58,0.00,,,0.00,332.00,VWS V14.00,2013-11-04 19:43:00,
2013-11-04 12:44:00,38.3,24.8,30.95,SSE,153,5.0,10.0,58,0.00,,,0.00,308.00,VWS V14.00,2013-11-04 19:44:00,
2013-11-04 12:45:00,38.3,24.8,30.95,SSE,149,7.0,10.0,58,0.00,,,0.00,302.00,VWS V14.00,2013-11-04 19:45:00,
2013-11-04 12:46:00,38.3,24.4,30.96,SSE,159,5.0,7.0,57,0.00,,,0.00,320.00,VWS V14.00,2013-11-04 19:46:00,
2013-11-04 12:47:00,38.4,24.1,30.96,South,186,2.0,8.0,56,0.00,,,0.00,308.00,VWS V14.00,2013-11-04 19:47:00,
2013-11-04 12:48:00,38.4,24.5,30.96,SSE,165,5.0,9.0,57,0.00,,,0.00,399.00,VWS V14.00,2013-11-04 19:48:00,
2013-11-04 12:49:00,38.5,25.0,30.96,South,175,3.0,9.0,58,0.00,,,0.00,457.00,VWS V14.00,2013-11-04 19:49:00,
2013-11-04 12:50:00,38.6,25.1,30.96,SE,146,5.0,9.0,58,0.00,,,0.00,547.00,VWS V14.00,2013-11-04 19:50:00,
2013-11-04 12:51:00,38.7,24.8,30.96,South,169,2.0,9.0,57,0.00,,,0.00,547.00,VWS V14.00,2013-11-04 19:51:00,
2013-11-04 12:52:00,38.8,24.5,30.96,South,169,3.0,9.0,56,0.00,,,0.00,547.00,VWS V14.00,2013-11-04 19:52:00,
2013-11-04 12:53:00,38.9,24.6,30.96,SSE,157,5.0,9.0,56,0.00,,,0.00,221.00,VWS V14.00,2013-11-04 19:53:00,
2013-11-04 12:54:00,38.9,24.6,30.96,SSE,157,0.0,9.0,56,0.00,,,0.00,202.00,VWS V14.00,2013-11-04 19:54:00,
2013-11-04 12:55:00,38.9,24.1,30.96,SSE,157,2.0,9.0,55,0.00,,,0.00,192.00,VWS V14.00,2013-11-04 19:55:00,
2013-11-04 12:56:00,38.9,23.7,30.96,SSE,157,0.0,9.0,54,0.00,,,0.00,197.00,VWS V14.00,2013-11-04 19:56:00,
2013-11-04 12:57:00,38.9,23.7,30.96,South,178,1.0,9.0,54,0.00,,,0.00,211.00,VWS V14.00,2013-11-04 19:57:00,
2013-11-04 12:58:00,38.9,23.2,30.96,South,178,2.0,9.0,53,0.00,,,0.00,239.00,VWS V14.00,2013-11-04 19:58:00,
2013-11-04 12:59:00,38.9,24.1,30.96,South,178,0.0,9.0,55,0.00,,,0.00,330.00,VWS V14.00,2013-11-04 19:59:00,
2013-11-04 13:00:00,38.9,24.1,30.96,South,178,0.0,9.0,55,0.00,,,0.00,330.00,VWS V14.00,2013-11-04 20:00:00,
2013-11-04 13:01:00,38.9,23.7,30.96,South,178,0.0,0.0,54,0.00,,,0.00,330.00,VWS V14.00,2013-11-04 20:01:00,
2013-11-04 13:02:00,38.9,24.1,30.96,South,178,3.0,4.0,55,0.00,,,0.00,533.00,VWS V14.00,2013-11-04 20:02:00,
2013-11-04 13:03:00,39.0,24.6,30.96,South,178,2.0,4.0,56,0.00,,,0.00,459.00,VWS V14.00,2013-11-04 20:03:00,
2013-11-04 13:04:00,39.1,23.4,30.96,South,178,0.0,4.0,53,0.00,,,0.00,512.00,VWS V14.00,2013-11-04 20:04:00,
2013-11-04 13:05:00,39.2,24.0,30.96,South,178,2.0,4.0,54,0.00,,,0.00,510.00,VWS V14.00,2013-11-04 20:05:00,
2013-11-04 13:06:00,39.3,24.1,30.96,South,178,0.0,4.0,54,0.00,,,0.00,506.00,VWS V14.00,2013-11-04 20:06:00,
2013-11-04 13:07:00,39.4,23.7,30.96,South,178,0.0,4.0,53,0.00,,,0.00,499.00,VWS V14.00,2013-11-04 20:07:00,
2013-11-04 13:08:00,39.5,23.4,30.96,South,179,2.0,4.0,52,0.00,,,0.00,496.00,VWS V14.00,2013-11-04 20:08:00,
2013-11-04 13:09:00,39.6,23.9,30.96,South,179,3.0,5.0,53,0.00,,,0.00,494.00,VWS V14.00,2013-11-04 20:09:00,
2013-11-04 13:10:00,39.7,23.5,30.96,South,179,0.0,5.0,52,0.00,,,0.00,492.00,VWS V14.00,2013-11-04 20:10:00,
2013-11-04 13:11:00,39.7,22.6,30.96,South,179,0.0,5.0,50,0.00,,,0.00,494.00,VWS V14.00,2013-11-04 20:11:00,
2013-11-04 13:12:00,39.8,23.2,30.96,South,179,0.0,5.0,51,0.00,,,0.00,490.00,VWS V14.00,2013-11-04 20:12:00,
2013-11-04 13:13:00,39.8,22.7,30.96,South,179,0.0,5.0,50,0.00,,,0.00,490.00,VWS V14.00,2013-11-04 20:13:00,
2013-11-04 13:14:00,39.9,22.8,30.96,South,179,0.0,5.0,50,0.00,,,0.00,487.00,VWS V14.00,2013-11-04 20:14:00,
2013-11-04 13:15:00,39.9,22.3,30.96,South,179,0.0,5.0,49,0.00,,,0.00,483.00,VWS V14.00,2013-11-04 20:15:00,
2013-11-04 13:16:00,40.0,22.9,30.96,North,355,3.0,6.0,50,0.00,,,0.00,480.00,VWS V14.00,2013-11-04 20:16:00,
2013-11-04 13:17:00,40.0,22.4,30.96,NNW,336,14.0,14.0,49,0.00,,,0.00,478.00,VWS V14.00,2013-11-04 20:17:00,
2013-11-04 13:18:00,40.0,26.8,30.96,North,355,7.0,15.0,59,0.00,,,0.00,483.00,VWS V14.00,2013-11-04 20:18:00,
2013-11-04 13:19:00,39.8,27.1,30.96,North,360,8.0,15.0,60,0.00,,,0.00,483.00,VWS V14.00,2013-11-04 20:19:00,
2013-11-04 13:20:00,39.7,27.8,30.96,North,351,5.0,15.0,62,0.00,,,0.00,480.00,VWS V14.00,2013-11-04 20:20:00,
2013-11-04 13:21:00,39.5,28.0,30.96,North,355,10.0,15.0,63,0.00,,,0.00,480.00,VWS V14.00,2013-11-04 20:21:00,
2013-11-04 13:22:00,39.4,27.1,30.96,NNW,334,9.0,15.0,61,0.00,,,0.00,473.00,VWS V14.00,2013-11-04 20:22:00,
2013-11-04 13:23:00,39.1,28.0,30.96,NNW,345,10.0,15.0,64,0.00,,,0.00,466.00,VWS V14.00,2013-11-04 20:23:00,
2013-11-04 13:24:00,38.9,28.1,30.96,North,355,8.0,15.0,65,0.00,,,0.00,462.00,VWS V14.00,2013-11-04 20:24:00,
2013-11-04 13:25:00,38.7,28.0,30.95,North,360,8.0,15.0,65,0.00,,,0.00,455.00,VWS V14.00,2013-11-04 20:25:00,
2013-11-04 13:26:00,38.5,27.8,30.95,North,360,6.0,15.0,65,0.00,,,0.00,452.00,VWS V14.00,2013-11-04 20:26:00,
2013-11-04 13:27:00,38.4,28.0,30.96,North,360,9.0,15.0,66,0.00,,,0.00,452.00,VWS V14.00,2013-11-04 20:27:00,
2013-11-04 13:28:00,38.3,27.6,30.97,North,5,5.0,15.0,65,0.00,,,0.00,450.00,VWS V14.00,2013-11-04 20:28:00,
2013-11-04 13:29:00,38.2,28.2,30.97,North,355,6.0,15.0,67,0.00,,,0.00,448.00,VWS V14.00,2013-11-04 20:29:00,
2013-11-04 13:30:00,38.1,27.8,30.97,North,360,5.0,15.0,66,0.00,,,0.00,452.00,VWS V14.00,2013-11-04 20:30:00,
2013-11-04 13:31:00,38.1,27.4,30.97,North,360,2.0,8.0,65,0.00,,,0.00,450.00,VWS V14.00,2013-11-04 20:31:00,
2013-11-04 13:32:00,38.0,27.7,30.97,North,5,6.0,10.0,66,0.00,,,0.00,450.00,VWS V14.00,2013-11-04 20:32:00,
2013-11-04 13:33:00,38.0,27.7,30.97,North,355,7.0,11.0,66,0.00,,,0.00,434.00,VWS V14.00,2013-11-04 20:33:00,
2013-11-04 13:34:00,38.0,28.0,30.97,North,5,4.0,11.0,67,0.00,,,0.00,427.00,VWS V14.00,2013-11-04 20:34:00,
2013-11-04 13:35:00,38.0,28.0,30.97,North,360,5.0,11.0,67,0.00,,,0.00,427.00,VWS V14.00,2013-11-04 20:35:00,
2013-11-04 13:36:00,38.0,27.3,30.97,NNE,26,5.0,11.0,65,0.00,,,0.00,422.00,VWS V14.00,2013-11-04 20:36:00,
2013-11-04 13:37:00,38.1,27.4,30.97,NE,37,1.0,11.0,65,0.00,,,0.00,418.00,VWS V14.00,2013-11-04 20:37:00,
2013-11-04 13:38:00,38.1,27.4,30.97,NE,38,0.0,11.0,65,0.00,,,0.00,425.00,VWS V14.00,2013-11-04 20:38:00,
2013-11-04 13:39:00,38.1,27.4,30.97,NNE,24,5.0,11.0,65,0.00,,,0.00,425.00,VWS V14.00,2013-11-04 20:39:00,
2013-11-04 13:40:00,38.1,27.0,30.97,NNE,15,1.0,11.0,64,0.00,,,0.00,172.00,VWS V14.00,2013-11-04 20:40:00,
2013-11-04 13:41:00,38.1,27.0,30.97,North,5,1.0,11.0,64,0.00,,,0.00,172.00,VWS V14.00,2013-11-04 20:41:00,
2013-11-04 13:42:00,38.2,27.5,30.97,North,5,3.0,11.0,65,0.00,,,0.00,418.00,VWS V14.00,2013-11-04 20:42:00,
2013-11-04 13:43:00,38.2,27.1,30.97,North,360,3.0,11.0,64,0.00,,,0.00,415.00,VWS V14.00,2013-11-04 20:43:00,
2013-11-04 13:44:00,38.2,26.7,30.97,North,360,0.0,11.0,63,0.00,,,0.00,417.00,VWS V14.00,2013-11-04 20:44:00,
2013-11-04 13:45:00,38.3,26.8,30.97,NNE,20,0.0,11.0,63,0.00,,,0.00,420.00,VWS V14.00,2013-11-04 20:45:00,
2013-11-04 13:46:00,38.4,26.5,30.97,NE,34,1.0,4.0,62,0.00,,,0.00,425.00,VWS V14.00,2013-11-04 20:46:00,
2013-11-04 13:47:00,38.4,26.1,30.97,NE,34,0.0,4.0,61,0.00,,,0.00,427.00,VWS V14.00,2013-11-04 20:47:00,
2013-11-04 13:48:00,38.5,26.2,30.96,NE,34,1.0,4.0,61,0.00,,,0.00,427.00,VWS V14.00,2013-11-04 20:48:00,
2013-11-04 13:49:00,38.6,26.3,30.96,NNE,33,0.0,4.0,61,0.00,,,0.00,316.00,VWS V14.00,2013-11-04 20:49:00,
2013-11-04 13:50:00,38.7,26.4,30.96,North,355,5.0,7.0,61,0.00,,,0.00,396.00,VWS V14.00,2013-11-04 20:50:00,
2013-11-04 13:51:00,38.7,26.0,30.96,North,355,4.0,7.0,60,0.00,,,0.00,396.00,VWS V14.00,2013-11-04 20:51:00,
2013-11-04 13:52:00,38.7,25.6,30.96,North,355,2.0,7.0,59,0.00,,,0.00,396.00,VWS V14.00,2013-11-04 20:52:00,
2013-11-04 13:53:00,38.7,25.6,30.96,North,355,0.0,7.0,59,0.00,,,0.00,276.00,VWS V14.00,2013-11-04 20:53:00,
2013-11-04 13:54:00,38.7,25.6,30.96,North,355,0.0,7.0,59,0.00,,,0.00,264.00,VWS V14.00,2013-11-04 20:54:00,
2013-11-04 13:55:00,38.7,25.6,30.96,North,355,5.0,7.0,59,0.00,,,0.00,67.00,VWS V14.00,2013-11-04 20:55:00,
2013-11-04 13:56:00,38.6,25.5,30.96,North,355,3.0,7.0,59,0.00,,,0.00,70.00,VWS V14.00,2013-11-04 20:56:00,
2013-11-04 13:57:00,38.6,25.1,30.96,North,355,1.0,7.0,58,0.00,,,0.00,76.00,VWS V14.00,2013-11-04 20:57:00,
2013-11-04 13:58:00,38.5,25.4,30.96,North,355,4.0,7.0,59,0.00,,,0.00,79.00,VWS V14.00,2013-11-04 20:58:00,
2013-11-04 13:59:00,38.4,25.7,30.96,North,355,4.0,7.0,60,0.00,,,0.00,83.00,VWS V14.00,2013-11-04 20:59:00,
2013-11-04 14:00:00,38.3,25.2,30.97,North,355,2.0,7.0,59,0.00,,,0.00,88.00,VWS V14.00,2013-11-04 21:00:00,
2013-11-04 14:01:00,38.2,25.1,30.97,North,355,4.0,5.0,59,0.00,,,0.00,97.00,VWS V14.00,2013-11-04 21:01:00,
2013-11-04 14:02:00,38.0,25.0,30.97,North,355,4.0,5.0,59,0.00,,,0.00,91.00,VWS V14.00,2013-11-04 21:02:00,
2013-11-04 14:03:00,37.9,25.3,30.97,NNW,345,6.0,6.0,60,0.00,,,0.00,88.00,VWS V14.00,2013-11-04 21:03:00,
2013-11-04 14:04:00,37.8,26.0,30.97,NNW,343,4.0,6.0,62,0.00,,,0.00,86.00,VWS V14.00,2013-11-04 21:04:00,
2013-11-04 14:05:00,37.6,26.2,30.98,NNW,348,5.0,7.0,63,0.00,,,0.00,91.00,VWS V14.00,2013-11-04 21:05:00,
2013-11-04 14:06:00,37.5,26.8,30.98,NNW,338,7.0,10.0,65,0.00,,,0.00,120.00,VWS V14.00,2013-11-04 21:06:00,
2013-11-04 14:07:00,37.3,27.0,30.98,NNW,333,10.0,13.0,66,0.00,,,0.00,132.00,VWS V14.00,2013-11-04 21:07:00,
2013-11-04 14:08:00,37.0,27.4,30.98,NNW,336,8.0,13.0,68,0.00,,,0.00,148.00,VWS V14.00,2013-11-04 21:08:00,
2013-11-04 14:09:00,36.9,27.7,30.98,North,5,12.0,13.0,69,0.00,,,0.00,174.00,VWS V14.00,2013-11-04 21:09:00,
2013-11-04 14:10:00,36.7,27.9,30.98,NNW,346,12.0,15.0,70,0.00,,,0.00,206.00,VWS V14.00,2013-11-04 21:10:00,
2013-11-04 14:11:00,36.5,27.7,30.98,NNW,344,13.0,15.0,70,0.00,,,0.00,281.00,VWS V14.00,2013-11-04 21:11:00,
2013-11-04 14:12:00,36.4,27.9,30.98,NNW,346,11.0,15.0,71,0.00,,,0.00,482.00,VWS V14.00,2013-11-04 21:12:00,
2013-11-04 14:13:00,36.3,27.8,30.99,North,355,3.0,15.0,71,0.00,,,0.00,487.00,VWS V14.00,2013-11-04 21:13:00,
2013-11-04 14:14:00,36.3,28.5,30.99,North,5,5.0,15.0,73,0.00,,,0.00,497.00,VWS V14.00,2013-11-04 21:14:00,
2013-11-04 14:15:00,36.4,28.6,30.99,NNW,336,9.0,15.0,73,0.00,,,0.00,510.00,VWS V14.00,2013-11-04 21:15:00,
2013-11-04 14:16:00,36.4,27.6,30.99,NNW,335,6.0,11.0,70,0.00,,,0.00,510.00,VWS V14.00,2013-11-04 21:16:00,
2013-11-04 14:17:00,36.5,27.7,30.99,NNW,344,5.0,11.0,70,0.00,,,0.00,272.00,VWS V14.00,2013-11-04 21:17:00,
2013-11-04 14:18:00,36.6,28.1,30.98,North,355,6.0,12.0,71,0.00,,,0.00,367.00,VWS V14.00,2013-11-04 21:18:00,
2013-11-04 14:19:00,36.6,28.1,30.98,NNW,343,9.0,12.0,71,0.00,,,0.00,237.00,VWS V14.00,2013-11-04 21:19:00,
2013-11-04 14:20:00,36.7,27.9,30.98,NNW,345,6.0,12.0,70,0.00,,,0.00,223.00,VWS V14.00,2013-11-04 21:20:00,
2013-11-04 14:21:00,36.7,27.9,30.98,North,355,10.0,12.0,70,0.00,,,0.00,225.00,VWS V14.00,2013-11-04 21:21:00,
2013-11-04 14:22:00,36.7,27.5,30.98,North,355,7.0,12.0,69,0.00,,,0.00,294.00,VWS V14.00,2013-11-04 21:22:00,
2013-11-04 14:23:00,36.7,27.5,30.98,North,360,12.0,12.0,69,0.00,,,0.00,251.00,VWS V14.00,2013-11-04 21:23:00,
2013-11-04 14:24:00,36.7,27.5,30.98,North,360,8.0,12.0,69,0.00,,,0.00,174.00,VWS V14.00,2013-11-04 21:24:00,
2013-11-04 14:25:00,36.6,27.4,30.98,NNW,340,8.0,12.0,69,0.00,,,0.00,176.00,VWS V14.00,2013-11-04 21:25:00,
2013-11-04 14:26:00,36.5,27.3,30.98,NNW,341,10.0,12.0,69,0.00,,,0.00,178.00,VWS V14.00,2013-11-04 21:26:00,
2013-11-04 14:27:00,36.3,26.8,30.99,NNW,338,7.0,12.0,68,0.00,,,0.00,213.00,VWS V14.00,2013-11-04 21:27:00,
2013-11-04 14:28:00,36.2,26.7,30.99,NNW,333,6.0,12.0,68,0.00,,,0.00,225.00,VWS V14.00,2013-11-04 21:28:00,
2013-11-04 14:29:00,36.1,26.9,31.00,NNW,333,6.0,12.0,69,0.00,,,0.00,204.00,VWS V14.00,2013-11-04 21:29:00,
2013-11-04 14:30:00,36.0,26.8,31.00,NNW,333,11.0,12.0,69,0.00,,,0.00,134.00,VWS V14.00,2013-11-04 21:30:00,
2013-11-04 14:31:00,35.9,26.4,31.00,North,355,10.0,10.0,68,0.00,,,0.00,120.00,VWS V14.00,2013-11-04 21:31:00,
2013-11-04 14:32:00,35.7,26.2,30.99,North,360,10.0,10.0,68,0.00,,,0.00,144.00,VWS V14.00,2013-11-04 21:32:00,
2013-11-04 14:33:00,35.6,25.7,31.00,North,355,7.0,10.0,67,0.00,,,0.00,111.00,VWS V14.00,2013-11-04 21:33:00,
2013-11-04 14:34:00,35.5,25.6,30.99,North,355,9.0,10.0,67,0.00,,,0.00,111.00,VWS V14.00,2013-11-04 21:34:00,
2013-11-04 14:35:00,35.5,25.6,30.99,North,355,6.0,10.0,67,0.00,,,0.00,320.00,VWS V14.00,2013-11-04 21:35:00,
2013-11-04 14:36:00,35.4,25.2,30.99,North,355,4.0,10.0,66,0.00,,,0.00,320.00,VWS V14.00,2013-11-04 21:36:00,
2013-11-04 14:37:00,35.4,25.2,30.99,North,360,9.0,10.0,66,0.00,,,0.00,320.00,VWS V14.00,2013-11-04 21:37:00,
2013-11-04 14:38:00,35.4,25.2,30.99,North,355,4.0,10.0,66,0.00,,,0.00,327.00,VWS V14.00,2013-11-04 21:38:00,
2013-11-04 14:39:00,35.4,25.9,30.99,North,350,10.0,10.0,68,0.00,,,0.00,308.00,VWS V14.00,2013-11-04 21:39:00,
2013-11-04 14:40:00,35.4,25.5,30.99,North,360,4.0,10.0,67,0.00,,,0.00,309.00,VWS V14.00,2013-11-04 21:40:00,
2013-11-04 14:41:00,35.5,25.6,30.99,North,360,7.0,10.0,67,0.00,,,0.00,283.00,VWS V14.00,2013-11-04 21:41:00,
2013-11-04 14:42:00,35.5,25.3,30.99,North,360,1.0,10.0,66,0.00,,,0.00,264.00,VWS V14.00,2013-11-04 21:42:00,
2013-11-04 14:43:00,35.6,25.7,30.99,North,5,7.0,10.0,67,0.00,,,0.00,251.00,VWS V14.00,2013-11-04 21:43:00,
2013-11-04 14:44:00,35.6,25.4,31.00,North,350,4.0,10.0,66,0.00,,,0.00,257.00,VWS V14.00,2013-11-04 21:44:00,
2013-11-04 14:45:00,35.7,25.1,30.99,NNW,340,5.0,10.0,65,0.00,,,0.00,292.00,VWS V14.00,2013-11-04 21:45:00,
2013-11-04 14:46:00,35.8,25.2,30.99,NNW,340,2.0,4.0,65,0.00,,,0.00,290.00,VWS V14.00,2013-11-04 21:46:00,
2013-11-04 14:47:00,35.8,25.2,31.00,North,350,3.0,6.0,65,0.00,,,0.00,267.00,VWS V14.00,2013-11-04 21:47:00,
2013-11-04 14:48:00,35.9,25.3,30.99,North,350,4.0,6.0,65,0.00,,,0.00,278.00,VWS V14.00,2013-11-04 21:48:00,
2013-11-04 14:49:00,35.9,25.3,30.99,North,350,1.0,6.0,65,0.00,,,0.00,278.00,VWS V14.00,2013-11-04 21:49:00,
2013-11-04 14:50:00,36.0,25.8,30.99,North,11,4.0,6.0,66,0.00,,,0.00,276.00,VWS V14.00,2013-11-04 21:50:00,
2013-11-04 14:51:00,36.1,25.1,31.00,NNW,342,4.0,7.0,64,0.00,,,0.00,272.00,VWS V14.00,2013-11-04 21:51:00,
2013-11-04 14:52:00,36.2,25.6,31.00,NNW,346,6.0,7.0,65,0.00,,,0.00,276.00,VWS V14.00,2013-11-04 21:52:00,
2013-11-04 14:53:00,36.2,25.6,31.00,North,355,6.0,7.0,65,0.00,,,0.00,279.00,VWS V14.00,2013-11-04 21:53:00,
2013-11-04 14:54:00,36.3,25.7,31.00,North,355,5.0,7.0,65,0.00,,,0.00,248.00,VWS V14.00,2013-11-04 21:54:00,
2013-11-04 14:55:00,36.3,25.3,31.00,North,355,3.0,7.0,64,0.00,,,0.00,274.00,VWS V14.00,2013-11-04 21:55:00,
2013-11-04 14:56:00,36.4,25.0,31.00,North,355,6.0,7.0,63,0.00,,,0.00,272.00,VWS V14.00,2013-11-04 21:56:00,
2013-11-04 14:57:00,36.4,25.0,31.00,NNE,22,0.0,7.0,63,0.00,,,0.00,220.00,VWS V14.00,2013-11-04 21:57:00,
2013-11-04 14:58:00,36.5,25.1,31.00,NNE,22,0.0,7.0,63,0.00,,,0.00,271.00,VWS V14.00,2013-11-04 21:58:00,
2013-11-04 14:59:00,36.5,25.1,30.99,NNE,22,0.0,7.0,63,0.00,,,0.00,264.00,VWS V14.00,2013-11-04 21:59:00,
2013-11-04 15:00:00,36.6,25.2,30.99,NNE,22,0.0,7.0,63,0.00,,,0.00,179.00,VWS V14.00,2013-11-04 22:00:00,
2013-11-04 15:01:00,36.6,24.8,31.00,NNE,22,0.0,0.0,62,0.00,,,0.00,132.00,VWS V14.00,2013-11-04 22:01:00,
2013-11-04 15:02:00,36.7,24.9,31.00,NNE,22,2.0,3.0,62,0.00,,,0.00,132.00,VWS V14.00,2013-11-04 22:02:00,
2013-11-04 15:03:00,36.7,24.9,31.00,NNE,22,3.0,4.0,62,0.00,,,0.00,211.00,VWS V14.00,2013-11-04 22:03:00,
2013-11-04 15:04:00,36.8,24.6,31.00,NNE,22,1.0,4.0,61,0.00,,,0.00,144.00,VWS V14.00,2013-11-04 22:04:00,
2013-11-04 15:05:00,36.8,25.0,31.00,NNE,22,0.0,4.0,62,0.00,,,0.00,155.00,VWS V14.00,2013-11-04 22:05:00,
2013-11-04 15:06:00,36.8,24.6,31.00,NNE,22,0.0,4.0,61,0.00,,,0.00,100.00,VWS V14.00,2013-11-04 22:06:00,
2013-11-04 15:07:00,36.9,24.7,31.00,NNE,22,0.0,4.0,61,0.00,,,0.00,72.00,VWS V14.00,2013-11-04 22:07:00,
2013-11-04 15:08:00,36.9,23.9,31.00,NNE,22,0.0,4.0,59,0.00,,,0.00,83.00,VWS V14.00,2013-11-04 22:08:00,
2013-11-04 15:09:00,36.9,23.9,31.00,NNE,22,0.0,4.0,59,0.00,,,0.00,84.00,VWS V14.00,2013-11-04 22:09:00,
2013-11-04 15:10:00,36.9,23.9,31.00,NNE,22,0.0,4.0,59,0.00,,,0.00,105.00,VWS V14.00,2013-11-04 22:10:00,
2013-11-04 15:11:00,36.9,23.9,31.00,NNE,22,0.0,4.0,59,0.00,,,0.00,74.00,VWS V14.00,2013-11-04 22:11:00,
2013-11-04 15:12:00,36.9,23.5,31.00,NNE,22,0.0,4.0,58,0.00,,,0.00,63.00,VWS V14.00,2013-11-04 22:12:00,
2013-11-04 15:13:00,36.9,23.5,31.00,NNE,22,0.0,4.0,58,0.00,,,0.00,62.00,VWS V14.00,2013-11-04 22:13:00,
2013-11-04 15:14:00,36.9,23.5,31.00,NNE,22,0.0,4.0,58,0.00,,,0.00,84.00,VWS V14.00,2013-11-04 22:14:00,
2013-11-04 15:15:00,36.8,23.4,31.00,NNE,22,0.0,4.0,58,0.00,,,0.00,70.00,VWS V14.00,2013-11-04 22:15:00,
2013-11-04 15:16:00,36.8,23.8,31.00,NNE,22,0.0,0.0,59,0.00,,,0.00,69.00,VWS V14.00,2013-11-04 22:16:00,
2013-11-04 15:17:00,36.8,23.4,31.00,NNE,22,0.0,0.0,58,0.00,,,0.00,105.00,VWS V14.00,2013-11-04 22:17:00,
2013-11-04 15:18:00,36.8,23.0,31.00,NNE,22,0.0,0.0,57,0.00,,,0.00,190.00,VWS V14.00,2013-11-04 22:18:00,
2013-11-04 15:19:00,36.8,23.0,31.00,NNE,22,0.0,0.0,57,0.00,,,0.00,160.00,VWS V14.00,2013-11-04 22:19:00,
2013-11-04 15:20:00,36.8,23.4,31.00,NNE,22,0.0,0.0,58,0.00,,,0.00,79.00,VWS V14.00,2013-11-04 22:20:00,
2013-11-04 15:21:00,36.8,23.4,31.00,NNE,22,0.0,0.0,58,0.00,,,0.00,65.00,VWS V14.00,2013-11-04 22:21:00,
2013-11-04 15:22:00,36.9,23.5,31.00,NNE,22,0.0,0.0,58,0.00,,,0.00,70.00,VWS V14.00,2013-11-04 22:22:00,
2013-11-04 15:23:00,36.8,23.4,31.00,NNE,22,0.0,0.0,58,0.00,,,0.00,49.00,VWS V14.00,2013-11-04 22:23:00,
2013-11-04 15:24:00,36.8,23.4,31.00,NNE,22,0.0,0.0,58,0.00,,,0.00,46.00,VWS V14.00,2013-11-04 22:24:00,
2013-11-04 15:25:00,36.9,23.9,31.00,NNE,22,2.0,2.0,59,0.00,,,0.00,44.00,VWS V14.00,2013-11-04 22:25:00,
2013-11-04 15:26:00,36.8,23.8,31.01,NNE,22,3.0,3.0,59,0.00,,,0.00,40.00,VWS V14.00,2013-11-04 22:26:00,
2013-11-04 15:27:00,36.8,24.2,31.01,North,350,3.0,6.0,60,0.00,,,0.00,40.00,VWS V14.00,2013-11-04 22:27:00,
2013-11-04 15:28:00,36.8,24.2,31.01,North,350,2.0,6.0,60,0.00,,,0.00,39.00,VWS V14.00,2013-11-04 22:28:00,
2013-11-04 15:29:00,36.8,25.0,31.01,North,351,4.0,6.0,62,0.00,,,0.00,42.00,VWS V14.00,2013-11-04 22:29:00,
2013-11-04 15:30:00,36.7,24.9,31.00,NNW,347,4.0,6.0,62,0.00,,,0.00,46.00,VWS V14.00,2013-11-04 22:30:00,
2013-11-04 15:31:00,36.6,25.2,31.01,North,350,5.0,7.0,63,0.00,,,0.00,44.00,VWS V14.00,2013-11-04 22:31:00,
2013-11-04 15:32:00,36.5,25.5,31.01,NNW,348,7.0,7.0,64,0.00,,,0.00,46.00,VWS V14.00,2013-11-04 22:32:00,
2013-11-04 15:33:00,36.4,25.4,31.01,North,355,6.0,9.0,64,0.00,,,0.00,46.00,VWS V14.00,2013-11-04 22:33:00,
2013-11-04 15:34:00,36.3,25.3,31.01,North,349,5.0,9.0,64,0.00,,,0.00,49.00,VWS V14.00,2013-11-04 22:34:00,
2013-11-04 15:35:00,36.3,25.3,31.01,NNW,342,6.0,9.0,64,0.00,,,0.00,51.00,VWS V14.00,2013-11-04 22:35:00,
2013-11-04 15:36:00,36.2,24.8,31.01,NNW,342,7.0,9.0,63,0.00,,,0.00,56.00,VWS V14.00,2013-11-04 22:36:00,
2013-11-04 15:37:00,36.2,24.8,31.01,North,360,16.0,16.0,63,0.00,,,0.00,67.00,VWS V14.00,2013-11-04 22:37:00,
2013-11-04 15:38:00,36.1,26.6,31.01,North,355,10.0,16.0,68,0.00,,,0.00,63.00,VWS V14.00,2013-11-04 22:38:00,
2013-11-04 15:39:00,36.0,27.2,31.01,NNW,346,9.0,16.0,70,0.00,,,0.00,56.00,VWS V14.00,2013-11-04 22:39:00,
2013-11-04 15:40:00,35.9,27.1,31.01,North,5,9.0,16.0,70,0.00,,,0.00,53.00,VWS V14.00,2013-11-04 22:40:00,
2013-11-04 15:41:00,35.7,27.2,31.01,North,355,7.0,16.0,71,0.00,,,0.00,56.00,VWS V14.00,2013-11-04 22:41:00,
2013-11-04 15:42:00,35.5,27.4,31.01,North,355,12.0,16.0,72,0.00,,,0.00,58.00,VWS V14.00,2013-11-04 22:42:00,
2013-11-04 15:43:00,35.4,27.3,31.01,North,350,7.0,16.0,72,0.00,,,0.00,53.00,VWS V14.00,2013-11-04 22:43:00,
2013-11-04 15:44:00,35.3,27.2,31.02,North,355,9.0,16.0,72,0.00,,,0.00,54.00,VWS V14.00,2013-11-04 22:44:00,
2013-11-04 15:45:00,35.1,27.0,31.02,North,355,8.0,16.0,72,0.00,,,0.00,56.00,VWS V14.00,2013-11-04 22:45:00,
2013-11-04 15:46:00,35.0,26.9,31.02,North,355,9.0,11.0,72,0.00,,,0.00,58.00,VWS V14.00,2013-11-04 22:46:00,
2013-11-04 15:47:00,34.9,27.1,31.02,NNW,340,6.0,12.0,73,0.00,,,0.00,58.00,VWS V14.00,2013-11-04 22:47:00,
2013-11-04 15:48:00,34.8,27.0,31.02,NNW,338,6.0,12.0,73,0.00,,,0.00,56.00,VWS V14.00,2013-11-04 22:48:00,
2013-11-04 15:49:00,34.7,27.3,31.03,North,355,8.0,12.0,74,0.00,,,0.00,56.00,VWS V14.00,2013-11-04 22:49:00,
2013-11-04 15:50:00,34.7,27.3,31.03,North,360,9.0,14.0,74,0.00,,,0.00,56.00,VWS V14.00,2013-11-04 22:50:00,
2013-11-04 15:51:00,34.6,27.2,31.03,NNW,346,8.0,14.0,74,0.00,,,0.00,54.00,VWS V14.00,2013-11-04 22:51:00,
2013-11-04 15:52:00,34.5,27.1,31.03,NNW,347,6.0,14.0,74,0.00,,,0.00,51.00,VWS V14.00,2013-11-04 22:52:00,
2013-11-04 15:53:00,34.4,27.0,31.03,North,355,10.0,14.0,74,0.00,,,0.00,51.00,VWS V14.00,2013-11-04 22:53:00,
2013-11-04 15:54:00,34.4,27.0,31.03,NNW,333,12.0,14.0,74,0.00,,,0.00,51.00,VWS V14.00,2013-11-04 22:54:00,
2013-11-04 15:55:00,34.4,27.0,31.03,North,355,12.0,14.0,74,0.00,,,0.00,47.00,VWS V14.00,2013-11-04 22:55:00,
2013-11-04 15:56:00,34.4,27.0,31.03,North,355,10.0,14.0,74,0.00,,,0.00,44.00,VWS V14.00,2013-11-04 22:56:00,
2013-11-04 15:57:00,34.3,26.9,31.03,North,355,11.0,15.0,74,0.00,,,0.00,42.00,VWS V14.00,2013-11-04 22:57:00,
2013-11-04 15:58:00,34.3,27.2,31.03,North,5,12.0,15.0,75,0.00,,,0.00,40.00,VWS V14.00,2013-11-04 22:58:00,
2013-11-04 15:59:00,34.1,26.7,31.03,North,360,10.0,16.0,74,0.00,,,0.00,40.00,VWS V14.00,2013-11-04 22:59:00,
2013-11-04 16:00:00,34.1,26.7,31.03,North,360,14.0,16.0,74,0.00,,,0.00,42.00,VWS V14.00,2013-11-04 23:00:00,
2013-11-04 16:01:00,34.0,26.9,31.04,North,350,10.0,13.0,75,0.00,,,0.00,46.00,VWS V14.00,2013-11-04 23:01:00,
2013-11-04 16:02:00,33.9,26.8,31.04,North,360,11.0,14.0,75,0.00,,,0.00,53.00,VWS V14.00,2013-11-04 23:02:00,
2013-11-04 16:03:00,33.8,26.7,31.04,North,355,11.0,14.0,75,0.00,,,0.00,58.00,VWS V14.00,2013-11-04 23:03:00,
2013-11-04 16:04:00,33.8,26.7,31.04,North,355,12.0,14.0,75,0.00,,,0.00,58.00,VWS V14.00,2013-11-04 23:04:00,
2013-11-04 16:05:00,33.7,26.6,31.04,NNW,346,10.0,15.0,75,0.00,,,0.00,54.00,VWS V14.00,2013-11-04 23:05:00,
2013-11-04 16:06:00,33.6,26.5,31.04,NNW,332,10.0,15.0,75,0.00,,,0.00,53.00,VWS V14.00,2013-11-04 23:06:00,
2013-11-04 16:07:00,33.5,26.4,31.04,North,355,10.0,15.0,75,0.00,,,0.00,51.00,VWS V14.00,2013-11-04 23:07:00,
2013-11-04 16:08:00,33.5,26.4,31.04,North,360,10.0,15.0,75,0.00,,,0.00,47.00,VWS V14.00,2013-11-04 23:08:00,
2013-11-04 16:09:00,33.5,26.4,31.04,North,350,10.0,15.0,75,0.00,,,0.00,46.00,VWS V14.00,2013-11-04 23:09:00,
2013-11-04 16:10:00,33.4,26.3,31.06,North,355,7.0,15.0,75,0.00,,,0.00,44.00,VWS V14.00,2013-11-04 23:10:00,
2013-11-04 16:11:00,33.4,26.7,31.06,North,350,8.0,15.0,76,0.00,,,0.00,49.00,VWS V14.00,2013-11-04 23:11:00,
2013-11-04 16:12:00,33.4,26.7,31.06,North,355,8.0,15.0,76,0.00,,,0.00,51.00,VWS V14.00,2013-11-04 23:12:00,
2013-11-04 16:13:00,33.4,26.7,31.06,North,355,6.0,15.0,76,0.00,,,0.00,44.00,VWS V14.00,2013-11-04 23:13:00,
2013-11-04 16:14:00,33.3,26.2,31.06,NNW,348,12.0,15.0,75,0.00,,,0.00,37.00,VWS V14.00,2013-11-04 23:14:00,
2013-11-04 16:15:00,33.3,26.2,31.06,NNW,348,9.0,15.0,75,0.00,,,0.00,37.00,VWS V14.00,2013-11-04 23:15:00,
2013-11-04 16:16:00,33.2,26.1,31.06,North,350,6.0,11.0,75,0.00,,,0.00,37.00,VWS V14.00,2013-11-04 23:16:00,
2013-11-04 16:17:00,33.2,26.1,31.06,North,360,9.0,11.0,75,0.00,,,0.00,37.00,VWS V14.00,2013-11-04 23:17:00,
2013-11-04 16:18:00,33.1,26.0,31.06,North,360,9.0,12.0,75,0.00,,,0.00,37.00,VWS V14.00,2013-11-04 23:18:00,
2013-11-04 16:19:00,33.0,26.0,31.06,North,5,5.0,12.0,75,0.00,,,0.00,35.00,VWS V14.00,2013-11-04 23:19:00,
2013-11-04 16:20:00,33.0,26.0,31.06,North,360,6.0,12.0,75,0.00,,,0.00,35.00,VWS V14.00,2013-11-04 23:20:00,
2013-11-04 16:21:00,32.9,25.9,31.06,North,355,4.0,12.0,75,0.00,,,0.00,32.00,VWS V14.00,2013-11-04 23:21:00,
2013-11-04 16:22:00,32.9,25.9,31.06,North,355,2.0,12.0,75,0.00,,,0.00,30.00,VWS V14.00,2013-11-04 23:22:00,
2013-11-04 16:23:00,32.8,25.8,31.06,North,5,3.0,12.0,75,0.00,,,0.00,28.00,VWS V14.00,2013-11-04 23:23:00,
2013-11-04 16:24:00,32.8,25.8,31.06,North,360,5.0,12.0,75,0.00,,,0.00,28.00,VWS V14.00,2013-11-04 23:24:00,
2013-11-04 16:25:00,32.8,25.8,31.06,North,355,4.0,12.0,75,0.00,,,0.00,26.00,VWS V14.00,2013-11-04 23:25:00,
2013-11-04 16:26:00,32.7,25.7,31.06,NNW,341,5.0,12.0,75,0.00,,,0.00,26.00,VWS V14.00,2013-11-04 23:26:00,
2013-11-04 16:27:00,32.7,25.7,31.06,North,351,7.0,12.0,75,0.00,,,0.00,23.00,VWS V14.00,2013-11-04 23:27:00,
2013-11-04 16:28:00,32.6,25.6,31.06,NNW,336,7.0,12.0,75,0.00,,,0.00,23.00,VWS V14.00,2013-11-04 23:28:00,
2013-11-04 16:29:00,32.6,25.9,31.06,NNW,344,6.0,12.0,76,0.00,,,0.00,21.00,VWS V14.00,2013-11-04 23:29:00,
2013-11-04 16:30:00,32.6,25.9,31.06,North,360,7.0,12.0,76,0.00,,,0.00,21.00,VWS V14.00,2013-11-04 23:30:00,
2013-11-04 16:31:00,32.5,25.8,31.07,NNW,341,6.0,10.0,76,0.00,,,0.00,21.00,VWS V14.00,2013-11-04 23:31:00,
2013-11-04 16:32:00,32.5,25.8,31.06,NNW,339,6.0,10.0,76,0.00,,,0.00,21.00,VWS V14.00,2013-11-04 23:32:00,
2013-11-04 16:33:00,32.4,25.7,31.07,NNW,340,8.0,10.0,76,0.00,,,0.00,21.00,VWS V14.00,2013-11-04 23:33:00,
2013-11-04 16:34:00,32.4,25.7,31.07,NW,322,9.0,10.0,76,0.00,,,0.00,23.00,VWS V14.00,2013-11-04 23:34:00,
2013-11-04 16:35:00,32.3,25.6,31.07,NNW,330,6.0,10.0,76,0.00,,,0.00,23.00,VWS V14.00,2013-11-04 23:35:00,
2013-11-04 16:36:00,32.3,25.9,31.07,NNW,333,4.0,10.0,77,0.00,,,0.00,25.00,VWS V14.00,2013-11-04 23:36:00,
2013-11-04 16:37:00,32.3,25.9,31.07,NW,304,12.0,12.0,77,0.00,,,0.00,25.00,VWS V14.00,2013-11-04 23:37:00,
2013-11-04 16:38:00,32.2,25.8,31.07,NW,313,5.0,12.0,77,0.00,,,0.00,26.00,VWS V14.00,2013-11-04 23:38:00,
2013-11-04 16:39:00,32.1,26.0,31.07,NW,321,4.0,12.0,78,0.00,,,0.00,23.00,VWS V14.00,2013-11-04 23:39:00,
2013-11-04 16:40:00,32.1,26.0,31.07,NW,316,5.0,12.0,78,0.00,,,0.00,21.00,VWS V14.00,2013-11-04 23:40:00,
2013-11-04 16:41:00,32.0,26.2,31.07,NW,316,5.0,12.0,79,0.00,,,0.00,19.00,VWS V14.00,2013-11-04 23:41:00,
2013-11-04 16:42:00,31.9,26.4,31.07,NW,312,6.0,12.0,80,0.00,,,0.00,19.00,VWS V14.00,2013-11-04 23:42:00,
2013-11-04 16:43:00,31.8,26.4,31.07,NW,321,5.0,12.0,80,0.00,,,0.00,18.00,VWS V14.00,2013-11-04 23:43:00,
2013-11-04 16:44:00,31.7,26.5,31.07,NW,320,4.0,12.0,81,0.00,,,0.00,16.00,VWS V14.00,2013-11-04 23:44:00,
2013-11-04 16:45:00,31.6,26.5,31.07,NW,321,5.0,12.0,81,0.00,,,0.00,16.00,VWS V14.00,2013-11-04 23:45:00,
2013-11-04 16:46:00,31.5,26.4,31.08,NNW,338,7.0,7.0,81,0.00,,,0.00,16.00,VWS V14.00,2013-11-04 23:46:00,
2013-11-04 16:47:00,31.4,26.2,31.07,NNW,331,6.0,7.0,81,0.00,,,0.00,16.00,VWS V14.00,2013-11-04 23:47:00,
2013-11-04 16:48:00,31.3,26.5,31.08,NNW,333,5.0,7.0,82,0.00,,,0.00,16.00,VWS V14.00,2013-11-04 23:48:00,
2013-11-04 16:49:00,31.2,26.4,31.09,NNW,337,6.0,7.0,82,0.00,,,0.00,16.00,VWS V14.00,2013-11-04 23:49:00,
2013-11-04 16:50:00,31.1,26.3,31.09,NNW,338,6.0,7.0,82,0.00,,,0.00,18.00,VWS V14.00,2013-11-04 23:50:00,
2013-11-04 16:51:00,31.0,26.5,31.09,NNW,338,4.0,7.0,83,0.00,,,0.00,18.00,VWS V14.00,2013-11-04 23:51:00,
2013-11-04 16:52:00,30.9,26.4,31.09,NNW,338,3.0,7.0,83,0.00,,,0.00,18.00,VWS V14.00,2013-11-04 23:52:00,
2013-11-04 16:53:00,30.8,26.3,31.09,NNW,338,5.0,7.0,83,0.00,,,0.00,18.00,VWS V14.00,2013-11-04 23:53:00,
2013-11-04 16:54:00,30.8,26.5,31.08,NNW,338,1.0,7.0,84,0.00,,,0.00,19.00,VWS V14.00,2013-11-04 23:54:00,
2013-11-04 16:55:00,30.8,26.5,31.08,NNW,338,4.0,7.0,84,0.00,,,0.00,21.00,VWS V14.00,2013-11-04 23:55:00,
2013-11-04 16:56:00,30.7,26.5,31.08,NNW,337,0.0,7.0,84,0.00,,,0.00,21.00,VWS V14.00,2013-11-04 23:56:00,
2013-11-04 16:57:00,30.7,26.5,31.08,NNW,338,0.0,7.0,84,0.00,,,0.00,21.00,VWS V14.00,2013-11-04 23:57:00,
2013-11-04 16:58:00,30.7,26.5,31.08,NNW,338,0.0,7.0,84,0.00,,,0.00,19.00,VWS V14.00,2013-11-04 23:58:00,
2013-11-04 16:59:00,30.7,26.5,31.08,NNW,338,0.0,7.0,84,0.00,,,0.00,18.00,VWS V14.00,2013-11-04 23:59:00,
2013-11-04 17:00:00,30.6,26.4,31.08,NNW,338,0.0,7.0,84,0.00,,,0.00,16.00,VWS V14.00,2013-11-05 00:00:00,
2013-11-04 17:01:00,30.6,26.4,31.07,NNW,338,0.0,0.0,84,0.00,,,0.00,14.00,VWS V14.00,2013-11-05 00:01:00,
2013-11-04 17:02:00,30.6,26.4,31.08,NNW,338,0.0,0.0,84,0.00,,,0.00,12.00,VWS V14.00,2013-11-05 00:02:00,
2013-11-04 17:03:00,30.6,26.4,31.08,NNW,337,0.0,0.0,84,0.00,,,0.00,11.00,VWS V14.00,2013-11-05 00:03:00,
2013-11-04 17:04:00,30.6,26.4,31.08,NNW,338,0.0,0.0,84,0.00,,,0.00,9.00,VWS V14.00,2013-11-05 00:04:00,
2013-11-04 17:05:00,30.6,26.4,31.08,NNW,338,0.0,0.0,84,0.00,,,0.00,7.00,VWS V14.00,2013-11-05 00:05:00,
2013-11-04 17:06:00,30.6,26.4,31.08,NNW,337,0.0,0.0,84,0.00,,,0.00,7.00,VWS V14.00,2013-11-05 00:06:00,
2013-11-04 17:07:00,30.6,26.4,31.08,NNW,338,0.0,0.0,84,0.00,,,0.00,5.00,VWS V14.00,2013-11-05 00:07:00,
2013-11-04 17:08:00,30.6,26.4,31.08,NNW,338,0.0,0.0,84,0.00,,,0.00,0.00,VWS V14.00,2013-11-05 00:08:00,
2013-11-04 17:09:00,30.6,26.1,31.08,NNW,337,0.0,0.0,83,0.00,,,0.00,0.00,VWS V14.00,2013-11-05 00:09:00,
2013-11-04 17:10:00,30.5,26.0,31.08,NNW,338,0.0,0.0,83,0.00,,,0.00,0.00,VWS V14.00,2013-11-05 00:10:00,
2013-11-04 17:11:00,30.6,26.1,31.08,NNW,337,0.0,0.0,83,0.00,,,0.00,0.00,VWS V14.00,2013-11-05 00:11:00,
2013-11-04 17:12:00,30.6,26.1,31.08,NNW,338,0.0,0.0,83,0.00,,,0.00,0.00,VWS V14.00,2013-11-05 00:12:00,
2013-11-04 17:13:00,30.6,26.1,31.08,NNW,338,0.0,0.0,83,0.00,,,0.00,0.00,VWS V14.00,2013-11-05 00:13:00,
2013-11-04 17:14:00,30.6,26.1,31.08,NNW,338,0.0,0.0,83,0.00,,,0.00,0.00,VWS V14.00,2013-11-05 00:14:00,
2013-11-04 17:15:00,30.6,26.1,31.08,NNW,338,0.0,0.0,83,0.00,,,0.00,0.00,VWS V14.00,2013-11-05 00:15:00,
2013-11-04 17:16:00,30.6,26.1,31.08,NNW,337,0.0,0.0,83,0.00,,,0.00,0.00,VWS V14.00,2013-11-05 00:16:00,
2013-11-04 17:17:00,30.6,26.1,31.08,NNW,338,0.0,0.0,83,0.00,,,0.00,0.00,VWS V14.00,2013-11-05 00:17:00,
2013-11-04 17:18:00,30.6,26.1,31.08,NNW,337,0.0,0.0,83,0.00,,,0.00,0.00,VWS V14.00,2013-11-05 00:18:00,
2013-11-04 17:19:00,30.6,26.1,31.08,NNW,338,0.0,0.0,83,0.00,,,0.00,0.00,VWS V14.00,2013-11-05 00:19:00,
2013-11-04 17:20:00,30.6,26.1,31.08,NNW,338,0.0,0.0,83,0.00,,,0.00,0.00,VWS V14.00,2013-11-05 00:20:00,
2013-11-04 17:21:00,30.6,26.1,31.08,NNW,338,0.0,0.0,83,0.00,,,0.00,0.00,VWS V14.00,2013-11-05 00:21:00,
2013-11-04 17:22:00,30.5,26.0,31.08,NNW,337,0.0,0.0,83,0.00,,,0.00,0.00,VWS V14.00,2013-11-05 00:22:00,
2013-11-04 17:23:00,30.5,26.0,31.08,NNW,337,0.0,0.0,83,0.00,,,0.00,0.00,VWS V14.00,2013-11-05 00:23:00,
2013-11-04 17:24:00,30.5,26.0,31.08,NNW,338,0.0,0.0,83,0.00,,,0.00,0.00,VWS V14.00,2013-11-05 00:24:00,
2013-11-04 17:25:00,30.5,26.0,31.09,NNW,338,0.0,0.0,83,0.00,,,0.00,0.00,VWS V14.00,2013-11-05 00:25:00,
2013-11-04 17:26:00,30.4,25.9,31.09,NNW,338,0.0,0.0,83,0.00,,,0.00,0.00,VWS V14.00,2013-11-05 00:26:00,
2013-11-04 17:27:00,30.4,25.9,31.10,NNW,338,0.0,0.0,83,0.00,,,0.00,0.00,VWS V14.00,2013-11-05 00:27:00,
2013-11-04 17:28:00,30.3,25.8,31.10,NNW,338,0.0,0.0,83,0.00,,,0.00,0.00,VWS V14.00,2013-11-05 00:28:00,
2013-11-04 17:29:00,30.3,25.8,31.10,NNW,337,0.0,0.0,83,0.00,,,0.00,0.00,VWS V14.00,2013-11-05 00:29:00,
2013-11-04 17:30:00,30.3,25.8,31.10,NNW,338,0.0,0.0,83,0.00,,,0.00,0.00,VWS V14.00,2013-11-05 00:30:00,
2013-11-04 17:31:00,30.3,25.8,31.10,NNW,337,0.0,0.0,83,0.00,,,0.00,0.00,VWS V14.00,2013-11-05 00:31:00,
2013-11-04 17:32:00,30.3,25.8,31.10,NNW,338,0.0,0.0,83,0.00,,,0.00,0.00,VWS V14.00,2013-11-05 00:32:00,
2013-11-04 17:33:00,30.2,25.7,31.10,NNW,338,0.0,0.0,83,0.00,,,0.00,0.00,VWS V14.00,2013-11-05 00:33:00,
2013-11-04 17:34:00,30.2,25.7,31.10,NNW,338,0.0,0.0,83,0.00,,,0.00,0.00,VWS V14.00,2013-11-05 00:34:00,
2013-11-04 17:35:00,30.2,26.0,31.10,NNW,338,0.0,0.0,84,0.00,,,0.00,0.00,VWS V14.00,2013-11-05 00:35:00,
2013-11-04 17:36:00,30.1,25.9,31.10,NNW,337,0.0,0.0,84,0.00,,,0.00,0.00,VWS V14.00,2013-11-05 00:36:00,
2013-11-04 17:37:00,30.1,25.9,31.10,NNW,337,0.0,0.0,84,0.00,,,0.00,0.00,VWS V14.00,2013-11-05 00:37:00,
2013-11-04 17:38:00,30.1,25.9,31.10,NNW,337,0.0,0.0,84,0.00,,,0.00,0.00,VWS V14.00,2013-11-05 00:38:00,
2013-11-04 17:39:00,30.1,25.9,31.10,NNW,338,0.0,0.0,84,0.00,,,0.00,0.00,VWS V14.00,2013-11-05 00:39:00,
2013-11-04 17:40:00,30.1,25.9,31.10,NNW,338,0.0,0.0,84,0.00,,,0.00,0.00,VWS V14.00,2013-11-05 00:40:00,
2013-11-04 17:41:00,30.0,25.8,31.10,NNW,338,0.0,0.0,84,0.00,,,0.00,0.00,VWS V14.00,2013-11-05 00:41:00,
2013-11-04 17:42:00,30.0,25.5,31.10,NNW,338,0.0,0.0,83,0.00,,,0.00,0.00,VWS V14.00,2013-11-05 00:42:00,
2013-11-04 17:43:00,29.9,25.4,31.10,NNW,337,0.0,0.0,83,0.00,,,0.00,0.00,VWS V14.00,2013-11-05 00:43:00,
2013-11-04 17:44:00,29.9,25.4,31.10,NNW,338,0.0,0.0,83,0.00,,,0.00,0.00,VWS V14.00,2013-11-05 00:44:00,
2013-11-04 17:45:00,29.9,25.4,31.10,NNW,338,0.0,0.0,83,0.00,,,0.00,0.00,VWS V14.00,2013-11-05 00:45:00,
2013-11-04 17:46:00,29.8,25.3,31.10,NNW,337,0.0,0.0,83,0.00,,,0.00,0.00,VWS V14.00,2013-11-05 00:46:00,
2013-11-04 17:47:00,29.8,25.3,31.10,NNW,338,0.0,0.0,83,0.00,,,0.00,0.00,VWS V14.00,2013-11-05 00:47:00,
2013-11-04 17:48:00,29.8,25.3,31.10,NNW,338,0.0,0.0,83,0.00,,,0.00,0.00,VWS V14.00,2013-11-05 00:48:00,
2013-11-04 17:49:00,29.7,25.2,31.10,NNW,338,0.0,0.0,83,0.00,,,0.00,0.00,VWS V14.00,2013-11-05 00:49:00,
2013-11-04 17:50:00,29.7,25.2,31.10,NNW,337,0.0,0.0,83,0.00,,,0.00,0.00,VWS V14.00,2013-11-05 00:50:00,
2013-11-04 17:51:00,29.7,25.2,31.10,NNW,337,0.0,0.0,83,0.00,,,0.00,0.00,VWS V14.00,2013-11-05 00:51:00,
2013-11-04 17:52:00,29.7,25.2,31.10,NNW,337,0.0,0.0,83,0.00,,,0.00,0.00,VWS V14.00,2013-11-05 00:52:00,
2013-11-04 17:53:00,29.6,25.1,31.10,NNW,338,0.0,0.0,83,0.00,,,0.00,0.00,VWS V14.00,2013-11-05 00:53:00,
2013-11-04 17:54:00,29.6,25.1,31.10,NNW,338,0.0,0.0,83,0.00,,,0.00,0.00,VWS V14.00,2013-11-05 00:54:00,
2013-11-04 17:55:00,29.6,25.1,31.10,NNW,338,0.0,0.0,83,0.00,,,0.00,0.00,VWS V14.00,2013-11-05 00:55:00,
2013-11-04 17:56:00,29.6,25.1,31.10,NNW,337,0.0,0.0,83,0.00,,,0.00,0.00,VWS V14.00,2013-11-05 00:56:00,
2013-11-04 17:57:00,29.5,25.0,31.10,NNW,337,0.0,0.0,83,0.00,,,0.00,0.00,VWS V14.00,2013-11-05 00:57:00,
2013-11-04 17:58:00,29.5,25.0,31.10,NNW,337,0.0,0.0,83,0.00,,,0.00,0.00,VWS V14.00,2013-11-05 00:58:00,
2013-11-04 17:59:00,29.5,25.0,31.10,NNW,337,0.0,0.0,83,0.00,,,0.00,0.00,VWS V14.00,2013-11-05 00:59:00,
2013-11-04 18:00:00,29.4,24.6,31.10,NNW,338,0.0,0.0,82,0.00,,,0.00,0.00,VWS V14.00,2013-11-05 01:00:00,
2013-11-04 18:01:00,29.4,24.6,31.12,NNW,338,0.0,0.0,82,0.00,,,0.00,0.00,VWS V14.00,2013-11-05 01:01:00,
2013-11-04 18:02:00,29.3,24.8,31.12,NNW,338,0.0,0.0,83,0.00,,,0.00,0.00,VWS V14.00,2013-11-05 01:02:00,
2013-11-04 18:03:00,29.3,24.8,31.12,NNW,338,0.0,0.0,83,0.00,,,0.00,0.00,VWS V14.00,2013-11-05 01:03:00,
2013-11-04 18:04:00,29.3,24.8,31.12,NNW,337,0.0,0.0,83,0.00,,,0.00,0.00,VWS V14.00,2013-11-05 01:04:00,
2013-11-04 18:05:00,29.2,24.7,31.12,NNW,337,0.0,0.0,83,0.00,,,0.00,0.00,VWS V14.00,2013-11-05 01:05:00,
2013-11-04 18:06:00,29.2,24.7,31.12,NNW,338,0.0,2.0,83,0.00,,,0.00,0.00,VWS V14.00,2013-11-05 01:06:00,
2013-11-04 18:07:00,29.2,24.7,31.12,NNW,338,0.0,2.0,83,0.00,,,0.00,0.00,VWS V14.00,2013-11-05 01:07:00,
2013-11-04 18:08:00,29.1,24.6,31.12,NNW,338,0.0,2.0,83,0.00,,,0.00,0.00,VWS V14.00,2013-11-05 01:08:00,
2013-11-04 18:09:00,29.1,24.9,31.12,NNW,338,2.0,2.0,84,0.00,,,0.00,0.00,VWS V14.00,2013-11-05 01:09:00,
2013-11-04 18:10:00,29.1,24.9,31.12,NNW,338,1.0,2.0,84,0.00,,,0.00,0.00,VWS V14.00,2013-11-05 01:10:00,
2013-11-04 18:11:00,29.0,24.8,31.12,NNW,337,0.0,2.0,84,0.00,,,0.00,0.00,VWS V14.00,2013-11-05 01:11:00,
2013-11-04 18:12:00,29.0,25.1,31.12,NNW,338,0.0,2.0,85,0.00,,,0.00,0.00,VWS V14.00,2013-11-05 01:12:00,
2013-11-04 18:13:00,29.1,25.2,31.12,NNW,338,0.0,2.0,85,0.00,,,0.00,0.00,VWS V14.00,2013-11-05 01:13:00,
2013-11-04 18:14:00,29.0,25.1,31.12,NNW,338,0.0,2.0,85,0.00,,,0.00,0.00,VWS V14.00,2013-11-05 01:14:00,
2013-11-04 18:15:00,29.0,25.1,31.12,NNW,338,0.0,2.0,85,0.00,,,0.00,0.00,VWS V14.00,2013-11-05 01:15:00,
2013-11-04 18:16:00,29.0,25.1,31.12,NNW,337,0.0,0.0,85,0.00,,,0.00,0.00,VWS V14.00,2013-11-05 01:16:00,
2013-11-04 18:17:00,29.0,25.1,31.12,NNW,337,0.0,0.0,85,0.00,,,0.00,0.00,VWS V14.00,2013-11-05 01:17:00,
2013-11-04 18:18:00,29.0,25.1,31.12,NNW,337,0.0,2.0,85,0.00,,,0.00,0.00,VWS V14.00,2013-11-05 01:18:00,
2013-11-04 18:19:00,29.0,25.1,31.12,NNW,338,0.0,2.0,85,0.00,,,0.00,0.00,VWS V14.00,2013-11-05 01:19:00,
2013-11-04 18:20:00,28.9,25.0,31.12,NNW,337,0.0,2.0,85,0.00,,,0.00,0.00,VWS V14.00,2013-11-05 01:20:00,
2013-11-04 18:21:00,28.9,25.0,31.12,NNW,338,0.0,2.0,85,0.00,,,0.00,0.00,VWS V14.00,2013-11-05 01:21:00,
2013-11-04 18:22:00,28.9,25.0,31.12,NNW,338,0.0,2.0,85,0.00,,,0.00,0.00,VWS V14.00,2013-11-05 01:22:00,
2013-11-04 18:23:00,28.9,25.0,31.12,NNW,337,0.0,2.0,85,0.00,,,0.00,0.00,VWS V14.00,2013-11-05 01:23:00,
2013-11-04 18:24:00,28.9,25.0,31.13,NNW,337,2.0,3.0,85,0.00,,,0.00,0.00,VWS V14.00,2013-11-05 01:24:00,
2013-11-04 18:25:00,28.9,25.0,31.13,NNW,338,2.0,3.0,85,0.00,,,0.00,0.00,VWS V14.00,2013-11-05 01:25:00,
2013-11-04 18:26:00,28.9,25.0,31.13,NNW,338,2.0,3.0,85,0.00,,,0.00,0.00,VWS V14.00,2013-11-05 01:26:00,
2013-11-04 18:27:00,28.8,24.9,31.13,NNW,338,2.0,3.0,85,0.00,,,0.00,0.00,VWS V14.00,2013-11-05 01:27:00,
2013-11-04 18:28:00,28.8,25.1,31.13,NNW,338,0.0,3.0,86,0.00,,,0.00,0.00,VWS V14.00,2013-11-05 01:28:00,
2013-11-04 18:29:00,28.8,25.1,31.13,NNW,338,0.0,3.0,86,0.00,,,0.00,0.00,VWS V14.00,2013-11-05 01:29:00,
2013-11-04 18:30:00,28.8,25.1,31.13,NNW,337,0.0,3.0,86,0.00,,,0.00,0.00,VWS V14.00,2013-11-05 01:30:00,
2013-11-04 18:31:00,28.8,25.1,31.13,NNW,337,0.0,0.0,86,0.00,,,0.00,0.00,VWS V14.00,2013-11-05 01:31:00,
2013-11-04 18:32:00,28.8,26.8,31.13,NNW,338,0.0,0.0,92,0.00,,,0.00,0.00,VWS V14.00,2013-11-05 01:32:00,
2013-11-04 18:33:00,28.8,26.8,31.13,NNW,337,0.0,0.0,92,0.00,,,0.00,0.00,VWS V14.00,2013-11-05 01:33:00,
2013-11-04 18:34:00,28.7,25.0,31.13,NNW,338,0.0,0.0,86,0.00,,,0.00,0.00,VWS V14.00,2013-11-05 01:34:00,
2013-11-04 18:35:00,28.7,25.0,31.13,NNW,338,0.0,0.0,86,0.00,,,0.00,0.00,VWS V14.00,2013-11-05 01:35:00,
2013-11-04 18:36:00,28.7,25.0,31.13,NNW,338,0.0,0.0,86,0.00,,,0.00,0.00,VWS V14.00,2013-11-05 01:36:00,
2013-11-04 18:37:00,28.7,25.0,31.13,NNW,338,0.0,0.0,86,0.00,,,0.00,0.00,VWS V14.00,2013-11-05 01:37:00,
2013-11-04 18:38:00,28.7,25.0,31.13,NNW,338,0.0,0.0,86,0.00,,,0.00,0.00,VWS V14.00,2013-11-05 01:38:00,
2013-11-04 18:39:00,28.7,25.0,31.13,NNW,338,0.0,0.0,86,0.00,,,0.00,0.00,VWS V14.00,2013-11-05 01:39:00,
2013-11-04 18:40:00,28.7,25.3,31.13,NNW,337,0.0,0.0,87,0.00,,,0.00,0.00,VWS V14.00,2013-11-05 01:40:00,
2013-11-04 18:41:00,28.7,25.3,31.14,NNW,338,0.0,0.0,87,0.00,,,0.00,0.00,VWS V14.00,2013-11-05 01:41:00,
2013-11-04 18:42:00,28.7,25.0,31.14,NNW,338,0.0,0.0,86,0.00,,,0.00,0.00,VWS V14.00,2013-11-05 01:42:00,
2013-11-04 18:43:00,28.7,25.0,31.14,NNW,337,0.0,0.0,86,0.00,,,0.00,0.00,VWS V14.00,2013-11-05 01:43:00,
2013-11-04 18:44:00,28.7,25.0,31.13,NNW,338,0.0,0.0,86,0.00,,,0.00,0.00,VWS V14.00,2013-11-05 01:44:00,
2013-11-04 18:45:00,28.7,25.3,31.13,NNW,337,0.0,0.0,87,0.00,,,0.00,0.00,VWS V14.00,2013-11-05 01:45:00,
2013-11-04 18:46:00,28.7,25.3,31.13,NNW,337,0.0,0.0,87,0.00,,,0.00,0.00,VWS V14.00,2013-11-05 01:46:00,
2013-11-04 18:47:00,28.7,25.3,31.14,NNW,337,0.0,0.0,87,0.00,,,0.00,0.00,VWS V14.00,2013-11-05 01:47:00,
2013-11-04 18:48:00,28.7,25.3,31.14,NNW,338,0.0,0.0,87,0.00,,,0.00,0.00,VWS V14.00,2013-11-05 01:48:00,
2013-11-04 18:49:00,28.7,25.3,31.14,NNW,338,0.0,0.0,87,0.00,,,0.00,0.00,VWS V14.00,2013-11-05 01:49:00,
2013-11-04 18:50:00,28.7,25.3,31.14,NNW,338,0.0,0.0,87,0.00,,,0.00,0.00,VWS V14.00,2013-11-05 01:50:00,
2013-11-04 18:51:00,28.7,25.3,31.14,NNW,337,0.0,0.0,87,0.00,,,0.00,0.00,VWS V14.00,2013-11-05 01:51:00,
2013-11-04 18:52:00,28.7,25.3,31.14,NNW,337,0.0,0.0,87,0.00,,,0.00,0.00,VWS V14.00,2013-11-05 01:52:00,
2013-11-04 18:53:00,28.7,25.3,31.14,NNW,338,0.0,0.0,87,0.00,,,0.00,0.00,VWS V14.00,2013-11-05 01:53:00,
2013-11-04 18:54:00,28.7,25.3,31.14,NNW,338,0.0,0.0,87,0.00,,,0.00,0.00,VWS V14.00,2013-11-05 01:54:00,
2013-11-04 18:55:00,28.7,25.3,31.14,NNW,338,0.0,0.0,87,0.00,,,0.00,0.00,VWS V14.00,2013-11-05 01:55:00,
2013-11-04 18:56:00,28.7,25.3,31.14,NNW,338,0.0,0.0,87,0.00,,,0.00,0.00,VWS V14.00,2013-11-05 01:56:00,
2013-11-04 18:57:00,28.7,25.3,31.14,NNW,338,0.0,0.0,87,0.00,,,0.00,0.00,VWS V14.00,2013-11-05 01:57:00,
2013-11-04 18:58:00,28.7,25.3,31.14,NNW,338,0.0,0.0,87,0.00,,,0.00,0.00,VWS V14.00,2013-11-05 01:58:00,
2013-11-04 18:59:00,28.6,25.2,31.14,NNW,338,0.0,0.0,87,0.00,,,0.00,0.00,VWS V14.00,2013-11-05 01:59:00,
2013-11-04 19:00:00,28.6,25.2,31.15,NNW,337,0.0,0.0,87,0.00,,,0.00,0.00,VWS V14.00,2013-11-05 02:00:00,
2013-11-04 19:01:00,28.6,25.2,31.14,NNW,338,0.0,0.0,87,0.00,,,0.00,0.00,VWS V14.00,2013-11-05 02:01:00,
2013-11-04 19:02:00,28.6,25.2,31.13,NNW,338,0.0,0.0,87,0.00,,,0.00,0.00,VWS V14.00,2013-11-05 02:02:00,
2013-11-04 19:03:00,28.6,25.2,31.13,NNW,338,0.0,0.0,87,0.00,,,0.00,0.00,VWS V14.00,2013-11-05 02:03:00,
2013-11-04 19:04:00,28.6,25.2,31.13,NNW,337,0.0,0.0,87,0.00,,,0.00,0.00,VWS V14.00,2013-11-05 02:04:00,
2013-11-04 19:05:00,28.6,25.2,31.13,NNW,337,0.0,0.0,87,0.00,,,0.00,0.00,VWS V14.00,2013-11-05 02:05:00,
2013-11-04 19:06:00,28.6,25.2,31.13,NNW,338,0.0,0.0,87,0.00,,,0.00,0.00,VWS V14.00,2013-11-05 02:06:00,
2013-11-04 19:07:00,28.6,25.2,31.14,NNW,338,0.0,0.0,87,0.00,,,0.00,0.00,VWS V14.00,2013-11-05 02:07:00,
2013-11-04 19:08:00,28.6,25.2,31.13,NNW,337,0.0,0.0,87,0.00,,,0.00,0.00,VWS V14.00,2013-11-05 02:08:00,
2013-11-04 19:09:00,28.6,25.2,31.14,NNW,338,0.0,0.0,87,0.00,,,0.00,0.00,VWS V14.00,2013-11-05 02:09:00,
2013-11-04 19:10:00,28.6,25.2,31.14,NNW,338,0.0,0.0,87,0.00,,,0.00,0.00,VWS V14.00,2013-11-05 02:10:00,
2013-11-04 19:11:00,28.6,25.2,31.14,NNW,338,0.0,0.0,87,0.00,,,0.00,0.00,VWS V14.00,2013-11-05 02:11:00,
2013-11-04 19:12:00,28.6,25.2,31.14,NNW,337,0.0,0.0,87,0.00,,,0.00,0.00,VWS V14.00,2013-11-05 02:12:00,
2013-11-04 19:13:00,28.6,25.2,31.14,NNW,338,0.0,0.0,87,0.00,,,0.00,0.00,VWS V14.00,2013-11-05 02:13:00,
2013-11-04 19:14:00,28.6,25.2,31.14,NNW,337,0.0,0.0,87,0.00,,,0.00,0.00,VWS V14.00,2013-11-05 02:14:00,
2013-11-04 19:15:00,28.6,25.5,31.14,NNW,337,0.0,0.0,88,0.00,,,0.00,0.00,VWS V14.00,2013-11-05 02:15:00,
2013-11-04 19:16:00,28.6,25.2,31.14,NNW,338,0.0,0.0,87,0.00,,,0.00,0.00,VWS V14.00,2013-11-05 02:16:00,
2013-11-04 19:17:00,28.6,25.2,31.14,NNW,338,0.0,0.0,87,0.00,,,0.00,0.00,VWS V14.00,2013-11-05 02:17:00,
2013-11-04 19:18:00,28.6,25.2,31.14,NNW,338,0.0,0.0,87,0.00,,,0.00,0.00,VWS V14.00,2013-11-05 02:18:00,
2013-11-04 19:19:00,28.6,25.5,31.14,NNW,337,0.0,0.0,88,0.00,,,0.00,0.00,VWS V14.00,2013-11-05 02:19:00,
2013-11-04 19:20:00,28.6,25.5,31.14,NNW,337,0.0,0.0,88,0.00,,,0.00,0.00,VWS V14.00,2013-11-05 02:20:00,
2013-11-04 19:21:00,28.6,25.5,31.14,NNW,337,0.0,0.0,88,0.00,,,0.00,0.00,VWS V14.00,2013-11-05 02:21:00,
2013-11-04 19:22:00,28.6,25.5,31.14,NNW,338,0.0,0.0,88,0.00,,,0.00,0.00,VWS V14.00,2013-11-05 02:22:00,
2013-11-04 19:23:00,28.6,25.5,31.14,NNW,338,0.0,0.0,88,0.00,,,0.00,0.00,VWS V14.00,2013-11-05 02:23:00,
2013-11-04 19:24:00,28.6,25.5,31.14,NNW,337,0.0,0.0,88,0.00,,,0.00,0.00,VWS V14.00,2013-11-05 02:24:00,
2013-11-04 19:25:00,28.6,25.5,31.14,NNW,338,0.0,0.0,88,0.00,,,0.00,0.00,VWS V14.00,2013-11-05 02:25:00,
2013-11-04 19:26:00,28.6,25.5,31.14,NNW,337,0.0,0.0,88,0.00,,,0.00,0.00,VWS V14.00,2013-11-05 02:26:00,
2013-11-04 19:27:00,28.5,25.4,31.14,NNW,337,0.0,0.0,88,0.00,,,0.00,0.00,VWS V14.00,2013-11-05 02:27:00,
2013-11-04 19:28:00,28.5,25.1,31.14,NNW,337,0.0,0.0,87,0.00,,,0.00,0.00,VWS V14.00,2013-11-05 02:28:00,
2013-11-04 19:29:00,28.5,25.1,31.14,NNW,338,0.0,0.0,87,0.00,,,0.00,0.00,VWS V14.00,2013-11-05 02:29:00,
2013-11-04 19:30:00,28.5,25.1,31.14,NNW,338,0.0,0.0,87,0.00,,,0.00,0.00,VWS V14.00,2013-11-05 02:30:00,
2013-11-04 19:31:00,28.5,25.1,31.14,NNW,338,0.0,0.0,87,0.00,,,0.00,0.00,VWS V14.00,2013-11-05 02:31:00,
2013-11-04 19:32:00,28.5,25.1,31.14,NNW,338,0.0,0.0,87,0.00,,,0.00,0.00,VWS V14.00,2013-11-05 02:32:00,
2013-11-04 19:33:00,28.5,25.1,31.14,NNW,337,0.0,0.0,87,0.00,,,0.00,0.00,VWS V14.00,2013-11-05 02:33:00,
2013-11-04 19:34:00,28.5,25.4,31.14,NNW,338,0.0,0.0,88,0.00,,,0.00,0.00,VWS V14.00,2013-11-05 02:34:00,
2013-11-04 19:35:00,28.5,25.4,31.14,NNW,338,0.0,0.0,88,0.00,,,0.00,0.00,VWS V14.00,2013-11-05 02:35:00,
2013-11-04 19:36:00,28.5,25.4,31.14,NNW,338,0.0,0.0,88,0.00,,,0.00,0.00,VWS V14.00,2013-11-05 02:36:00,
2013-11-04 19:37:00,28.5,25.4,31.14,NNW,338,0.0,0.0,88,0.00,,,0.00,0.00,VWS V14.00,2013-11-05 02:37:00,
2013-11-04 19:38:00,28.5,25.4,31.14,NNW,338,0.0,0.0,88,0.00,,,0.00,0.00,VWS V14.00,2013-11-05 02:38:00,
2013-11-04 19:39:00,28.5,25.4,31.14,NNW,337,0.0,0.0,88,0.00,,,0.00,0.00,VWS V14.00,2013-11-05 02:39:00,
2013-11-04 19:40:00,28.5,25.4,31.14,NNW,338,0.0,0.0,88,0.00,,,0.00,0.00,VWS V14.00,2013-11-05 02:40:00,
2013-11-04 19:41:00,28.5,25.4,31.14,NNW,338,0.0,0.0,88,0.00,,,0.00,0.00,VWS V14.00,2013-11-05 02:41:00,
2013-11-04 19:42:00,28.5,25.4,31.14,NNW,337,0.0,0.0,88,0.00,,,0.00,0.00,VWS V14.00,2013-11-05 02:42:00,
2013-11-04 19:43:00,28.5,25.4,31.14,NNW,337,0.0,0.0,88,0.00,,,0.00,0.00,VWS V14.00,2013-11-05 02:43:00,
2013-11-04 19:44:00,28.5,25.4,31.14,NNW,338,0.0,0.0,88,0.00,,,0.00,0.00,VWS V14.00,2013-11-05 02:44:00,
2013-11-04 19:45:00,28.5,25.4,31.14,NNW,338,0.0,0.0,88,0.00,,,0.00,0.00,VWS V14.00,2013-11-05 02:45:00,
2013-11-04 19:46:00,28.5,25.4,31.14,NNW,338,0.0,0.0,88,0.00,,,0.00,0.00,VWS V14.00,2013-11-05 02:46:00,
2013-11-04 19:47:00,28.5,25.4,31.14,NNW,337,0.0,0.0,88,0.00,,,0.00,0.00,VWS V14.00,2013-11-05 02:47:00,
2013-11-04 19:48:00,28.5,25.4,31.14,NNW,338,0.0,0.0,88,0.00,,,0.00,0.00,VWS V14.00,2013-11-05 02:48:00,
2013-11-04 19:49:00,28.5,25.4,31.14,NNW,338,0.0,0.0,88,0.00,,,0.00,0.00,VWS V14.00,2013-11-05 02:49:00,
2013-11-04 19:50:00,28.5,25.4,31.15,NNW,338,0.0,0.0,88,0.00,,,0.00,0.00,VWS V14.00,2013-11-05 02:50:00,
2013-11-04 19:51:00,28.5,25.4,31.15,NNW,338,0.0,0.0,88,0.00,,,0.00,0.00,VWS V14.00,2013-11-05 02:51:00,
2013-11-04 19:52:00,28.5,25.4,31.15,NNW,338,0.0,0.0,88,0.00,,,0.00,0.00,VWS V14.00,2013-11-05 02:52:00,
2013-11-04 19:53:00,28.5,25.4,31.15,NNW,337,1.0,1.0,88,0.00,,,0.00,0.00,VWS V14.00,2013-11-05 02:53:00,
2013-11-04 19:54:00,28.5,25.4,31.15,NNW,338,0.0,2.0,88,0.00,,,0.00,0.00,VWS V14.00,2013-11-05 02:54:00,
2013-11-04 19:55:00,28.5,25.4,31.15,NNW,337,0.0,2.0,88,0.00,,,0.00,0.00,VWS V14.00,2013-11-05 02:55:00,
2013-11-04 19:56:00,28.6,25.5,31.15,NNW,338,0.0,2.0,88,0.00,,,0.00,0.00,VWS V14.00,2013-11-05 02:56:00,
2013-11-04 19:57:00,28.6,25.5,31.15,NNW,338,0.0,2.0,88,0.00,,,0.00,0.00,VWS V14.00,2013-11-05 02:57:00,
2013-11-04 19:58:00,28.6,25.5,31.15,NNW,338,0.0,2.0,88,0.00,,,0.00,0.00,VWS V14.00,2013-11-05 02:58:00,
2013-11-04 19:59:00,28.6,25.5,31.15,NNW,337,0.0,2.0,88,0.00,,,0.00,0.00,VWS V14.00,2013-11-05 02:59:00,
2013-11-04 20:00:00,28.6,25.5,31.15,NNW,337,0.0,2.0,88,0.00,,,0.00,0.00,VWS V14.00,2013-11-05 03:00:00,
2013-11-04 20:01:00,28.7,25.6,31.14,NNW,337,0.0,0.0,88,0.00,,,0.00,0.00,VWS V14.00,2013-11-05 03:01:00,
2013-11-04 20:02:00,28.7,25.6,31.14,NNW,337,0.0,0.0,88,0.00,,,0.00,0.00,VWS V14.00,2013-11-05 03:02:00,
2013-11-04 20:03:00,28.7,25.6,31.14,NNW,337,2.0,2.0,88,0.00,,,0.00,0.00,VWS V14.00,2013-11-05 03:03:00,
2013-11-04 20:04:00,28.7,25.6,31.14,NNW,338,2.0,3.0,88,0.00,,,0.00,0.00,VWS V14.00,2013-11-05 03:04:00,
2013-11-04 20:05:00,28.7,25.6,31.14,NNW,338,1.0,3.0,88,0.00,,,0.00,0.00,VWS V14.00,2013-11-05 03:05:00,
2013-11-04 20:06:00,28.7,25.6,31.14,NNW,338,3.0,3.0,88,0.00,,,0.00,0.00,VWS V14.00,2013-11-05 03:06:00,
2013-11-04 20:07:00,28.7,25.6,31.14,NNW,338,3.0,4.0,88,0.00,,,0.00,0.00,VWS V14.00,2013-11-05 03:07:00,
2013-11-04 20:08:00,28.7,25.6,31.14,NNW,337,1.0,4.0,88,0.00,,,0.00,0.00,VWS V14.00,2013-11-05 03:08:00,
2013-11-04 20:09:00,28.7,25.6,31.14,NNW,338,0.0,4.0,88,0.00,,,0.00,0.00,VWS V14.00,2013-11-05 03:09:00,
2013-11-04 20:10:00,28.8,25.7,31.14,NNW,338,2.0,4.0,88,0.00,,,0.00,0.00,VWS V14.00,2013-11-05 03:10:00,
2013-11-04 20:11:00,28.7,25.6,31.15,NNW,338,0.0,4.0,88,0.00,,,0.00,0.00,VWS V14.00,2013-11-05 03:11:00,
2013-11-04 20:12:00,28.8,25.7,31.15,NNW,338,0.0,4.0,88,0.00,,,0.00,0.00,VWS V14.00,2013-11-05 03:12:00,
2013-11-04 20:13:00,28.8,25.7,31.15,NNW,338,0.0,4.0,88,0.00,,,0.00,0.00,VWS V14.00,2013-11-05 03:13:00,
2013-11-04 20:14:00,28.8,25.7,31.15,NNW,338,0.0,4.0,88,0.00,,,0.00,0.00,VWS V14.00,2013-11-05 03:14:00,
2013-11-04 20:15:00,28.8,25.7,31.14,NNW,337,0.0,4.0,88,0.00,,,0.00,0.00,VWS V14.00,2013-11-05 03:15:00,
2013-11-04 20:16:00,28.8,25.7,31.15,NNW,338,0.0,0.0,88,0.00,,,0.00,0.00,VWS V14.00,2013-11-05 03:16:00,
2013-11-04 20:17:00,28.8,25.7,31.14,NNW,338,0.0,0.0,88,0.00,,,0.00,0.00,VWS V14.00,2013-11-05 03:17:00,
2013-11-04 20:18:00,28.8,25.7,31.14,NNW,338,0.0,0.0,88,0.00,,,0.00,0.00,VWS V14.00,2013-11-05 03:18:00,
2013-11-04 20:19:00,28.8,25.7,31.14,NNW,338,0.0,0.0,88,0.00,,,0.00,0.00,VWS V14.00,2013-11-05 03:19:00,
2013-11-04 20:20:00,28.8,25.7,31.15,NNW,338,0.0,0.0,88,0.00,,,0.00,0.00,VWS V14.00,2013-11-05 03:20:00,
2013-11-04 20:21:00,28.8,25.7,31.14,NNW,338,0.0,0.0,88,0.00,,,0.00,0.00,VWS V14.00,2013-11-05 03:21:00,
2013-11-04 20:22:00,28.8,25.7,31.14,NNW,338,1.0,1.0,88,0.00,,,0.00,0.00,VWS V14.00,2013-11-05 03:22:00,
2013-11-04 20:23:00,28.8,25.7,31.15,NNW,338,1.0,2.0,88,0.00,,,0.00,0.00,VWS V14.00,2013-11-05 03:23:00,
2013-11-04 20:24:00,28.8,25.7,31.14,NNW,337,1.0,3.0,88,0.00,,,0.00,0.00,VWS V14.00,2013-11-05 03:24:00,
2013-11-04 20:25:00,28.8,25.7,31.14,NNW,337,1.0,3.0,88,0.00,,,0.00,0.00,VWS V14.00,2013-11-05 03:25:00,
2013-11-04 20:26:00,28.8,25.7,31.15,NNW,338,0.0,3.0,88,0.00,,,0.00,0.00,VWS V14.00,2013-11-05 03:26:00,
2013-11-04 20:27:00,28.8,25.7,31.14,NNW,338,0.0,3.0,88,0.00,,,0.00,0.00,VWS V14.00,2013-11-05 03:27:00,
2013-11-04 20:28:00,28.8,25.7,31.14,NNW,338,0.0,3.0,88,0.00,,,0.00,0.00,VWS V14.00,2013-11-05 03:28:00,
2013-11-04 20:29:00,28.8,25.7,31.14,NNW,338,0.0,3.0,88,0.00,,,0.00,0.00,VWS V14.00,2013-11-05 03:29:00,
2013-11-04 20:30:00,28.8,25.7,31.14,NNW,338,0.0,3.0,88,0.00,,,0.00,0.00,VWS V14.00,2013-11-05 03:30:00,
2013-11-04 20:31:00,28.8,25.7,31.15,NNW,338,0.0,0.0,88,0.00,,,0.00,0.00,VWS V14.00,2013-11-05 03:31:00,
2013-11-04 20:32:00,28.8,25.7,31.14,NNW,338,0.0,0.0,88,0.00,,,0.00,0.00,VWS V14.00,2013-11-05 03:32:00,
2013-11-04 20:33:00,28.8,25.7,31.14,NNW,338,0.0,0.0,88,0.00,,,0.00,0.00,VWS V14.00,2013-11-05 03:33:00,
2013-11-04 20:34:00,28.8,25.7,31.14,NNW,338,0.0,0.0,88,0.00,,,0.00,0.00,VWS V14.00,2013-11-05 03:34:00,
2013-11-04 20:35:00,28.8,25.7,31.14,NNW,337,0.0,0.0,88,0.00,,,0.00,0.00,VWS V14.00,2013-11-05 03:35:00,
2013-11-04 20:36:00,28.8,25.7,31.14,NNW,338,0.0,0.0,88,0.00,,,0.00,0.00,VWS V14.00,2013-11-05 03:36:00,
2013-11-04 20:37:00,28.8,25.7,31.14,NNW,338,0.0,0.0,88,0.00,,,0.00,0.00,VWS V14.00,2013-11-05 03:37:00,
2013-11-04 20:38:00,28.8,25.7,31.14,NNW,338,0.0,0.0,88,0.00,,,0.00,0.00,VWS V14.00,2013-11-05 03:38:00,
2013-11-04 20:39:00,28.8,25.7,31.14,NNW,338,0.0,0.0,88,0.00,,,0.00,0.00,VWS V14.00,2013-11-05 03:39:00,
2013-11-04 20:40:00,28.8,25.7,31.14,NNW,337,0.0,0.0,88,0.00,,,0.00,0.00,VWS V14.00,2013-11-05 03:40:00,
2013-11-04 20:41:00,28.8,25.7,31.14,NNW,337,0.0,0.0,88,0.00,,,0.00,0.00,VWS V14.00,2013-11-05 03:41:00,
2013-11-04 20:42:00,28.8,25.7,31.14,NNW,337,0.0,0.0,88,0.00,,,0.00,0.00,VWS V14.00,2013-11-05 03:42:00,
2013-11-04 20:43:00,28.8,25.4,31.14,NNW,338,0.0,0.0,87,0.00,,,0.00,0.00,VWS V14.00,2013-11-05 03:43:00,
2013-11-04 20:44:00,28.8,25.7,31.14,NNW,338,0.0,0.0,88,0.00,,,0.00,0.00,VWS V14.00,2013-11-05 03:44:00,
2013-11-04 20:45:00,28.8,25.4,31.14,NNW,338,0.0,0.0,87,0.00,,,0.00,0.00,VWS V14.00,2013-11-05 03:45:00,
2013-11-04 20:46:00,28.8,25.4,31.14,NNW,338,0.0,0.0,87,0.00,,,0.00,0.00,VWS V14.00,2013-11-05 03:46:00,
2013-11-04 20:47:00,28.7,25.3,31.14,NNW,337,0.0,0.0,87,0.00,,,0.00,0.00,VWS V14.00,2013-11-05 03:47:00,
2013-11-04 20:48:00,28.7,25.3,31.14,NNW,337,0.0,0.0,87,0.00,,,0.00,0.00,VWS V14.00,2013-11-05 03:48:00,
2013-11-04 20:49:00,28.7,25.3,31.14,NNW,337,0.0,0.0,87,0.00,,,0.00,0.00,VWS V14.00,2013-11-05 03:49:00,
2013-11-04 20:50:00,28.7,25.3,31.14,NNW,338,0.0,0.0,87,0.00,,,0.00,0.00,VWS V14.00,2013-11-05 03:50:00,
2013-11-04 20:51:00,28.7,25.3,31.14,NNW,338,0.0,0.0,87,0.00,,,0.00,0.00,VWS V14.00,2013-11-05 03:51:00,
2013-11-04 20:52:00,28.6,25.2,31.15,NNW,338,0.0,0.0,87,0.00,,,0.00,0.00,VWS V14.00,2013-11-05 03:52:00,
2013-11-04 20:53:00,28.6,25.2,31.14,NNW,338,0.0,0.0,87,0.00,,,0.00,0.00,VWS V14.00,2013-11-05 03:53:00,
2013-11-04 20:54:00,28.6,25.2,31.15,NNW,338,0.0,0.0,87,0.00,,,0.00,0.00,VWS V14.00,2013-11-05 03:54:00,
2013-11-04 20:55:00,28.5,25.1,31.15,NNW,337,0.0,0.0,87,0.00,,,0.00,0.00,VWS V14.00,2013-11-05 03:55:00,
2013-11-04 20:56:00,28.5,24.9,31.15,NNW,338,0.0,0.0,86,0.00,,,0.00,0.00,VWS V14.00,2013-11-05 03:56:00,
2013-11-04 20:57:00,28.5,24.9,31.15,NNW,338,0.0,0.0,86,0.00,,,0.00,0.00,VWS V14.00,2013-11-05 03:57:00,
2013-11-04 20:58:00,28.5,24.9,31.15,NNW,338,0.0,0.0,86,0.00,,,0.00,0.00,VWS V14.00,2013-11-05 03:58:00,
2013-11-04 20:59:00,28.4,24.8,31.15,NNW,337,0.0,1.0,86,0.00,,,0.00,0.00,VWS V14.00,2013-11-05 03:59:00,
2013-11-04 21:00:00,28.4,24.8,31.15,NNW,337,0.0,1.0,86,0.00,,,0.00,0.00,VWS V14.00,2013-11-05 04:00:00,
2013-11-04 21:01:00,28.4,24.8,31.13,NNW,338,0.0,0.0,86,0.00,,,0.00,0.00,VWS V14.00,2013-11-05 04:01:00,
2013-11-04 21:02:00,28.4,24.8,31.13,NNW,338,0.0,0.0,86,0.00,,,0.00,0.00,VWS V14.00,2013-11-05 04:02:00,
2013-11-04 21:03:00,28.3,24.7,31.13,NNW,338,0.0,0.0,86,0.00,,,0.00,0.00,VWS V14.00,2013-11-05 04:03:00,
2013-11-04 21:04:00,28.3,24.7,31.13,NNW,338,0.0,0.0,86,0.00,,,0.00,0.00,VWS V14.00,2013-11-05 04:04:00,
2013-11-04 21:05:00,28.3,24.7,31.13,NNW,338,0.0,0.0,86,0.00,,,0.00,0.00,VWS V14.00,2013-11-05 04:05:00,
2013-11-04 21:06:00,28.3,24.7,31.14,NNW,338,0.0,0.0,86,0.00,,,0.00,0.00,VWS V14.00,2013-11-05 04:06:00,
2013-11-04 21:07:00,28.3,24.7,31.14,NNW,338,0.0,0.0,86,0.00,,,0.00,0.00,VWS V14.00,2013-11-05 04:07:00,
2013-11-04 21:08:00,28.3,24.7,31.14,NNW,337,0.0,0.0,86,0.00,,,0.00,0.00,VWS V14.00,2013-11-05 04:08:00,
2013-11-04 21:09:00,28.3,24.7,31.13,NNW,338,0.0,0.0,86,0.00,,,0.00,0.00,VWS V14.00,2013-11-05 04:09:00,
2013-11-04 21:10:00,28.3,24.7,31.14,NNW,338,0.0,0.0,86,0.00,,,0.00,0.00,VWS V14.00,2013-11-05 04:10:00,
2013-11-04 21:11:00,28.3,24.7,31.14,NNW,337,0.0,0.0,86,0.00,,,0.00,0.00,VWS V14.00,2013-11-05 04:11:00,
2013-11-04 21:12:00,28.3,24.7,31.14,NNW,338,0.0,0.0,86,0.00,,,0.00,0.00,VWS V14.00,2013-11-05 04:12:00,
2013-11-04 21:13:00,28.3,24.7,31.14,NNW,338,0.0,0.0,86,0.00,,,0.00,0.00,VWS V14.00,2013-11-05 04:13:00,
2013-11-04 21:14:00,28.3,24.7,31.14,NNW,338,0.0,0.0,86,0.00,,,0.00,0.00,VWS V14.00,2013-11-05 04:14:00,
2013-11-04 21:15:00,28.2,24.6,31.14,NNW,337,0.0,0.0,86,0.00,,,0.00,0.00,VWS V14.00,2013-11-05 04:15:00,
2013-11-04 21:16:00,28.3,24.4,31.14,NNW,337,0.0,0.0,85,0.00,,,0.00,0.00,VWS V14.00,2013-11-05 04:16:00,
2013-11-04 21:17:00,28.2,24.3,31.14,NNW,337,0.0,0.0,85,0.00,,,0.00,0.00,VWS V14.00,2013-11-05 04:17:00,
2013-11-04 21:18:00,28.2,24.3,31.14,NNW,338,0.0,0.0,85,0.00,,,0.00,0.00,VWS V14.00,2013-11-05 04:18:00,
2013-11-04 21:19:00,28.3,24.4,31.14,NNW,338,0.0,0.0,85,0.00,,,0.00,0.00,VWS V14.00,2013-11-05 04:19:00,
2013-11-04 21:20:00,28.2,24.3,31.14,NNW,338,0.0,0.0,85,0.00,,,0.00,0.00,VWS V14.00,2013-11-05 04:20:00,
2013-11-04 21:21:00,28.2,24.3,31.14,NNW,337,0.0,0.0,85,0.00,,,0.00,0.00,VWS V14.00,2013-11-05 04:21:00,
2013-11-04 21:22:00,28.2,24.3,31.14,NNW,338,0.0,0.0,85,0.00,,,0.00,0.00,VWS V14.00,2013-11-05 04:22:00,
2013-11-04 21:23:00,28.2,24.3,31.14,NNW,337,0.0,0.0,85,0.00,,,0.00,0.00,VWS V14.00,2013-11-05 04:23:00,
2013-11-04 21:24:00,28.3,24.4,31.14,NNW,337,0.0,0.0,85,0.00,,,0.00,0.00,VWS V14.00,2013-11-05 04:24:00,
2013-11-04 21:25:00,28.3,24.4,31.14,NNW,338,0.0,0.0,85,0.00,,,0.00,0.00,VWS V14.00,2013-11-05 04:25:00,
2013-11-04 21:26:00,28.3,24.4,31.14,NNW,338,0.0,0.0,85,0.00,,,0.00,0.00,VWS V14.00,2013-11-05 04:26:00,
2013-11-04 21:27:00,28.3,24.4,31.14,NNW,337,0.0,0.0,85,0.00,,,0.00,0.00,VWS V14.00,2013-11-05 04:27:00,
2013-11-04 21:28:00,28.3,24.4,31.14,NNW,338,0.0,0.0,85,0.00,,,0.00,0.00,VWS V14.00,2013-11-05 04:28:00,
2013-11-04 21:29:00,28.3,24.4,31.14,NNW,337,0.0,0.0,85,0.00,,,0.00,0.00,VWS V14.00,2013-11-05 04:29:00,
2013-11-04 21:30:00,28.3,24.1,31.14,NNW,337,0.0,0.0,84,0.00,,,0.00,0.00,VWS V14.00,2013-11-05 04:30:00,
2013-11-04 21:31:00,28.3,24.1,31.14,NNW,338,0.0,0.0,84,0.00,,,0.00,0.00,VWS V14.00,2013-11-05 04:31:00,
2013-11-04 21:32:00,28.3,24.1,31.14,NNW,337,0.0,0.0,84,0.00,,,0.00,0.00,VWS V14.00,2013-11-05 04:32:00,
2013-11-04 21:33:00,28.3,24.1,31.14,NNW,338,0.0,0.0,84,0.00,,,0.00,0.00,VWS V14.00,2013-11-05 04:33:00,
2013-11-04 21:34:00,28.4,24.2,31.14,NNW,338,0.0,0.0,84,0.00,,,0.00,0.00,VWS V14.00,2013-11-05 04:34:00,
2013-11-04 21:35:00,28.4,24.2,31.14,NNW,338,0.0,0.0,84,0.00,,,0.00,0.00,VWS V14.00,2013-11-05 04:35:00,
2013-11-04 21:36:00,28.4,24.2,31.14,NNW,337,0.0,0.0,84,0.00,,,0.00,0.00,VWS V14.00,2013-11-05 04:36:00,
2013-11-04 21:37:00,28.4,24.2,31.14,NNW,338,0.0,0.0,84,0.00,,,0.00,0.00,VWS V14.00,2013-11-05 04:37:00,
2013-11-04 21:38:00,28.4,24.2,31.14,NNW,337,0.0,0.0,84,0.00,,,0.00,0.00,VWS V14.00,2013-11-05 04:38:00,
2013-11-04 21:39:00,28.4,24.2,31.14,NNW,338,0.0,0.0,84,0.00,,,0.00,0.00,VWS V14.00,2013-11-05 04:39:00,
2013-11-04 21:40:00,28.4,24.2,31.14,NNW,338,0.0,0.0,84,0.00,,,0.00,0.00,VWS V14.00,2013-11-05 04:40:00,
2013-11-04 21:41:00,28.4,24.2,31.14,NNW,338,0.0,0.0,84,0.00,,,0.00,0.00,VWS V14.00,2013-11-05 04:41:00,
2013-11-04 21:42:00,28.5,24.3,31.14,NNW,337,0.0,0.0,84,0.00,,,0.00,0.00,VWS V14.00,2013-11-05 04:42:00,
2013-11-04 21:43:00,28.5,24.3,31.13,NNW,337,0.0,0.0,84,0.00,,,0.00,0.00,VWS V14.00,2013-11-05 04:43:00,
2013-11-04 21:44:00,28.5,24.0,31.13,NNW,338,0.0,0.0,83,0.00,,,0.00,0.00,VWS V14.00,2013-11-05 04:44:00,
2013-11-04 21:45:00,28.5,24.0,31.13,NNW,338,0.0,0.0,83,0.00,,,0.00,0.00,VWS V14.00,2013-11-05 04:45:00,
2013-11-04 21:46:00,28.5,24.0,31.13,NNW,338,0.0,0.0,83,0.00,,,0.00,0.00,VWS V14.00,2013-11-05 04:46:00,
2013-11-04 21:47:00,28.5,24.0,31.14,NNW,338,0.0,0.0,83,0.00,,,0.00,0.00,VWS V14.00,2013-11-05 04:47:00,
2013-11-04 21:48:00,28.5,24.0,31.13,NNW,338,0.0,0.0,83,0.00,,,0.00,0.00,VWS V14.00,2013-11-05 04:48:00,
2013-11-04 21:49:00,28.6,24.1,31.14,NNW,338,0.0,0.0,83,0.00,,,0.00,0.00,VWS V14.00,2013-11-05 04:49:00,
2013-11-04 21:50:00,28.6,24.1,31.13,NNW,338,0.0,0.0,83,0.00,,,0.00,0.00,VWS V14.00,2013-11-05 04:50:00,
2013-11-04 21:51:00,28.6,23.8,31.14,NNW,338,0.0,0.0,82,0.00,,,0.00,0.00,VWS V14.00,2013-11-05 04:51:00,
2013-11-04 21:52:00,28.6,23.8,31.14,NNW,337,0.0,0.0,82,0.00,,,0.00,0.00,VWS V14.00,2013-11-05 04:52:00,
2013-11-04 21:53:00,28.6,23.8,31.14,NNW,337,0.0,0.0,82,0.00,,,0.00,0.00,VWS V14.00,2013-11-05 04:53:00,
2013-11-04 21:54:00,28.6,23.8,31.13,NNW,338,0.0,0.0,82,0.00,,,0.00,0.00,VWS V14.00,2013-11-05 04:54:00,
2013-11-04 21:55:00,28.6,23.8,31.14,NNW,338,0.0,0.0,82,0.00,,,0.00,0.00,VWS V14.00,2013-11-05 04:55:00,
2013-11-04 21:56:00,28.7,23.9,31.14,NNW,335,2.0,4.0,82,0.00,,,0.00,0.00,VWS V14.00,2013-11-05 04:56:00,
2013-11-04 21:57:00,28.7,23.9,31.14,NW,315,1.0,4.0,82,0.00,,,0.00,0.00,VWS V14.00,2013-11-05 04:57:00,
2013-11-04 21:58:00,28.6,23.8,31.14,NW,314,0.0,4.0,82,0.00,,,0.00,0.00,VWS V14.00,2013-11-05 04:58:00,
2013-11-04 21:59:00,28.7,23.9,31.14,NW,315,0.0,4.0,82,0.00,,,0.00,0.00,VWS V14.00,2013-11-05 04:59:00,
2013-11-04 22:00:00,28.6,23.8,31.14,NW,315,3.0,4.0,82,0.00,,,0.00,0.00,VWS V14.00,2013-11-05 05:00:00,
2013-11-04 22:01:00,28.7,23.9,31.11,NW,315,3.0,3.0,82,0.00,,,0.00,0.00,VWS V14.00,2013-11-05 05:01:00,
2013-11-04 22:02:00,28.7,23.9,31.11,NW,314,2.0,3.0,82,0.00,,,0.00,0.00,VWS V14.00,2013-11-05 05:02:00,
2013-11-04 22:03:00,28.7,23.9,31.12,NW,314,2.0,3.0,82,0.00,,,0.00,0.00,VWS V14.00,2013-11-05 05:03:00,
2013-11-04 22:04:00,28.7,23.9,31.12,NW,314,2.0,3.0,82,0.00,,,0.00,0.00,VWS V14.00,2013-11-05 05:04:00,
2013-11-04 22:05:00,28.7,23.9,31.11,NW,314,1.0,3.0,82,0.00,,,0.00,0.00,VWS V14.00,2013-11-05 05:05:00,
2013-11-04 22:06:00,28.7,23.6,31.11,NW,314,0.0,3.0,81,0.00,,,0.00,0.00,VWS V14.00,2013-11-05 05:06:00,
2013-11-04 22:07:00,28.7,23.6,31.11,NW,314,2.0,3.0,81,0.00,,,0.00,0.00,VWS V14.00,2013-11-05 05:07:00,
2013-11-04 22:08:00,28.7,23.6,31.11,NW,314,2.0,3.0,81,0.00,,,0.00,0.00,VWS V14.00,2013-11-05 05:08:00,
2013-11-04 22:09:00,28.7,23.6,31.11,NW,314,2.0,3.0,81,0.00,,,0.00,0.00,VWS V14.00,2013-11-05 05:09:00,
2013-11-04 22:10:00,28.7,23.6,31.11,NW,314,1.0,3.0,81,0.00,,,0.00,0.00,VWS V14.00,2013-11-05 05:10:00,
2013-11-04 22:11:00,28.7,23.3,31.11,NW,314,0.0,3.0,80,0.00,,,0.00,0.00,VWS V14.00,2013-11-05 05:11:00,
2013-11-04 22:12:00,28.7,23.3,31.11,NW,314,0.0,3.0,80,0.00,,,0.00,0.00,VWS V14.00,2013-11-05 05:12:00,
2013-11-04 22:13:00,28.8,23.4,31.11,NW,314,0.0,3.0,80,0.00,,,0.00,0.00,VWS V14.00,2013-11-05 05:13:00,
2013-11-04 22:14:00,28.8,23.1,31.11,NW,314,3.0,3.0,79,0.00,,,0.00,0.00,VWS V14.00,2013-11-05 05:14:00,
2013-11-04 22:15:00,28.8,23.1,31.11,NW,314,2.0,3.0,79,0.00,,,0.00,0.00,VWS V14.00,2013-11-05 05:15:00,
2013-11-04 22:16:00,28.8,23.1,31.12,NW,314,1.0,3.0,79,0.00,,,0.00,0.00,VWS V14.00,2013-11-05 05:16:00,
2013-11-04 22:17:00,28.8,22.8,31.11,NW,314,2.0,3.0,78,0.00,,,0.00,0.00,VWS V14.00,2013-11-05 05:17:00,
2013-11-04 22:18:00,28.8,22.8,31.12,NW,314,2.0,3.0,78,0.00,,,0.00,0.00,VWS V14.00,2013-11-05 05:18:00,
2013-11-04 22:19:00,28.8,22.5,31.11,NW,313,2.0,3.0,77,0.00,,,0.00,0.00,VWS V14.00,2013-11-05 05:19:00,
2013-11-04 22:20:00,28.9,22.6,31.11,NW,313,2.0,3.0,77,0.00,,,0.00,0.00,VWS V14.00,2013-11-05 05:20:00,
2013-11-04 22:21:00,28.9,22.6,31.11,NW,313,2.0,3.0,77,0.00,,,0.00,0.00,VWS V14.00,2013-11-05 05:21:00,
2013-11-04 22:22:00,28.9,22.3,31.11,NW,313,2.0,3.0,76,0.00,,,0.00,0.00,VWS V14.00,2013-11-05 05:22:00,
2013-11-04 22:23:00,29.0,22.4,31.11,NW,313,3.0,4.0,76,0.00,,,0.00,0.00,VWS V14.00,2013-11-05 05:23:00,
2013-11-04 22:24:00,29.0,22.1,31.11,NW,313,2.0,4.0,75,0.00,,,0.00,0.00,VWS V14.00,2013-11-05 05:24:00,
2013-11-04 22:25:00,29.0,22.1,31.11,NW,313,2.0,4.0,75,0.00,,,0.00,0.00,VWS V14.00,2013-11-05 05:25:00,
2013-11-04 22:26:00,29.1,22.2,31.11,NW,313,0.0,4.0,75,0.00,,,0.00,0.00,VWS V14.00,2013-11-05 05:26:00,
2013-11-04 22:27:00,29.2,22.0,31.11,NW,313,2.0,4.0,74,0.00,,,0.00,0.00,VWS V14.00,2013-11-05 05:27:00,
2013-11-04 22:28:00,29.2,22.0,31.11,NW,313,0.0,4.0,74,0.00,,,0.00,0.00,VWS V14.00,2013-11-05 05:28:00,
2013-11-04 22:29:00,29.2,22.0,31.11,NW,313,0.0,4.0,74,0.00,,,0.00,0.00,VWS V14.00,2013-11-05 05:29:00,
2013-11-04 22:30:00,29.3,22.1,31.11,NW,313,1.0,4.0,74,0.00,,,0.00,0.00,VWS V14.00,2013-11-05 05:30:00,
2013-11-04 22:31:00,29.3,22.1,31.11,NW,313,4.0,4.0,74,0.00,,,0.00,0.00,VWS V14.00,2013-11-05 05:31:00,
2013-11-04 22:32:00,29.4,21.8,31.11,NW,313,1.0,4.0,73,0.00,,,0.00,0.00,VWS V14.00,2013-11-05 05:32:00,
2013-11-04 22:33:00,29.4,22.1,31.11,NW,313,2.0,4.0,74,0.00,,,0.00,0.00,VWS V14.00,2013-11-05 05:33:00,
2013-11-04 22:34:00,29.4,21.8,31.11,SE,146,3.0,4.0,73,0.00,,,0.00,0.00,VWS V14.00,2013-11-05 05:34:00,
2013-11-04 22:35:00,29.5,21.9,31.11,SE,146,1.0,4.0,73,0.00,,,0.00,0.00,VWS V14.00,2013-11-05 05:35:00,
2013-11-04 22:36:00,29.5,21.9,31.11,SE,145,1.0,4.0,73,0.00,,,0.00,0.00,VWS V14.00,2013-11-05 05:36:00,
2013-11-04 22:37:00,29.5,21.6,31.11,SE,146,0.0,4.0,72,0.00,,,0.00,0.00,VWS V14.00,2013-11-05 05:37:00,
2013-11-04 22:38:00,29.6,21.7,31.11,SE,145,0.0,4.0,72,0.00,,,0.00,0.00,VWS V14.00,2013-11-05 05:38:00,
2013-11-04 22:39:00,29.6,21.7,31.11,SE,145,0.0,4.0,72,0.00,,,0.00,0.00,VWS V14.00,2013-11-05 05:39:00,
2013-11-04 22:40:00,29.7,22.1,31.11,SE,146,0.0,4.0,73,0.00,,,0.00,0.00,VWS V14.00,2013-11-05 05:40:00,
2013-11-04 22:41:00,29.7,21.8,31.11,SE,146,0.0,4.0,72,0.00,,,0.00,0.00,VWS V14.00,2013-11-05 05:41:00,
2013-11-04 22:42:00,29.7,22.1,31.11,SE,145,0.0,4.0,73,0.00,,,0.00,0.00,VWS V14.00,2013-11-05 05:42:00,
2013-11-04 22:43:00,29.7,22.1,31.11,SE,145,0.0,4.0,73,0.00,,,0.00,0.00,VWS V14.00,2013-11-05 05:43:00,
2013-11-04 22:44:00,29.7,22.1,31.11,SE,146,0.0,4.0,73,0.00,,,0.00,0.00,VWS V14.00,2013-11-05 05:44:00,
2013-11-04 22:45:00,29.7,22.1,31.11,SE,146,0.0,4.0,73,0.00,,,0.00,0.00,VWS V14.00,2013-11-05 05:45:00,
2013-11-04 22:46:00,29.7,22.1,31.11,SE,146,0.0,0.0,73,0.00,,,0.00,0.00,VWS V14.00,2013-11-05 05:46:00,
2013-11-04 22:47:00,29.7,21.8,31.11,SE,145,3.0,4.0,72,0.00,,,0.00,0.00,VWS V14.00,2013-11-05 05:47:00,
2013-11-04 22:48:00,29.7,21.8,31.11,SE,146,3.0,4.0,72,0.00,,,0.00,0.00,VWS V14.00,2013-11-05 05:48:00,
2013-11-04 22:49:00,29.7,22.1,31.11,SSE,150,2.0,4.0,73,0.00,,,0.00,0.00,VWS V14.00,2013-11-05 05:49:00,
2013-11-04 22:50:00,29.7,22.1,31.11,SSE,150,3.0,4.0,73,0.00,,,0.00,0.00,VWS V14.00,2013-11-05 05:50:00,
2013-11-04 22:51:00,29.7,22.1,31.11,SSE,149,3.0,5.0,73,0.00,,,0.00,0.00,VWS V14.00,2013-11-05 05:51:00,
2013-11-04 22:52:00,29.7,22.1,31.11,SSE,150,4.0,5.0,73,0.00,,,0.00,0.00,VWS V14.00,2013-11-05 05:52:00,
2013-11-04 22:53:00,29.8,21.9,31.11,SSE,150,2.0,5.0,72,0.00,,,0.00,0.00,VWS V14.00,2013-11-05 05:53:00,
2013-11-04 22:54:00,29.8,21.9,31.11,SSE,150,3.0,5.0,72,0.00,,,0.00,0.00,VWS V14.00,2013-11-05 05:54:00,
2013-11-04 22:55:00,29.8,21.9,31.11,SSE,150,3.0,5.0,72,0.00,,,0.00,0.00,VWS V14.00,2013-11-05 05:55:00,
2013-11-04 22:56:00,29.8,21.9,31.11,SSE,150,2.0,5.0,72,0.00,,,0.00,0.00,VWS V14.00,2013-11-05 05:56:00,
2013-11-04 22:57:00,29.8,21.9,31.11,SSE,150,5.0,5.0,72,0.00,,,0.00,0.00,VWS V14.00,2013-11-05 05:57:00,
2013-11-04 22:58:00,29.8,21.9,31.11,SSE,150,2.0,5.0,72,0.00,,,0.00,0.00,VWS V14.00,2013-11-05 05:58:00,
2013-11-04 22:59:00,29.8,21.6,31.11,SSE,150,2.0,5.0,71,0.00,,,0.00,0.00,VWS V14.00,2013-11-05 05:59:00,
2013-11-04 23:00:00,29.9,21.7,31.11,SSE,150,2.0,5.0,71,0.00,,,0.00,0.00,VWS V14.00,2013-11-05 06:00:00,
2013-11-04 23:01:00,29.9,21.7,31.10,SSE,150,2.0,5.0,71,0.00,,,0.00,0.00,VWS V14.00,2013-11-05 06:01:00,
2013-11-04 23:02:00,29.9,21.7,31.10,SSE,153,5.0,5.0,71,0.00,,,0.00,0.00,VWS V14.00,2013-11-05 06:02:00,
2013-11-04 23:03:00,29.9,21.7,31.10,SSE,152,3.0,5.0,71,0.00,,,0.00,0.00,VWS V14.00,2013-11-05 06:03:00,
2013-11-04 23:04:00,29.9,21.7,31.10,SSE,152,4.0,5.0,71,0.00,,,0.00,0.00,VWS V14.00,2013-11-05 06:04:00,
2013-11-04 23:05:00,30.0,21.8,31.10,SSE,152,4.0,5.0,71,0.00,,,0.00,0.00,VWS V14.00,2013-11-05 06:05:00,
2013-11-04 23:06:00,30.0,21.4,31.10,SSE,152,2.0,5.0,70,0.00,,,0.00,0.00,VWS V14.00,2013-11-05 06:06:00,
2013-11-04 23:07:00,30.0,21.8,31.10,SSE,152,3.0,5.0,71,0.00,,,0.00,0.00,VWS V14.00,2013-11-05 06:07:00,
2013-11-04 23:08:00,30.0,21.4,31.10,SSE,150,2.0,5.0,70,0.00,,,0.00,0.00,VWS V14.00,2013-11-05 06:08:00,
2013-11-04 23:09:00,30.0,21.4,31.10,SSE,150,1.0,5.0,70,0.00,,,0.00,0.00,VWS V14.00,2013-11-05 06:09:00,
2013-11-04 23:10:00,30.0,21.8,31.10,SSE,150,2.0,5.0,71,0.00,,,0.00,0.00,VWS V14.00,2013-11-05 06:10:00,
2013-11-04 23:11:00,30.1,21.9,31.10,SSE,150,0.0,5.0,71,0.00,,,0.00,0.00,VWS V14.00,2013-11-05 06:11:00,
2013-11-04 23:12:00,30.1,21.9,31.10,SSE,150,0.0,5.0,71,0.00,,,0.00,0.00,VWS V14.00,2013-11-05 06:12:00,
2013-11-04 23:13:00,30.1,21.9,31.10,SSE,150,3.0,5.0,71,0.00,,,0.00,0.00,VWS V14.00,2013-11-05 06:13:00,
2013-11-04 23:14:00,30.1,21.9,31.10,SSE,150,3.0,5.0,71,0.00,,,0.00,0.00,VWS V14.00,2013-11-05 06:14:00,
2013-11-04 23:15:00,30.1,21.9,31.10,SSE,150,1.0,5.0,71,0.00,,,0.00,0.00,VWS V14.00,2013-11-05 06:15:00,
2013-11-04 23:16:00,30.1,21.9,31.10,SSE,150,3.0,3.0,71,0.00,,,0.00,0.00,VWS V14.00,2013-11-05 06:16:00,
2013-11-04 23:17:00,30.1,21.9,31.10,SSE,150,0.0,3.0,71,0.00,,,0.00,0.00,VWS V14.00,2013-11-05 06:17:00,
2013-11-04 23:18:00,30.1,21.9,31.10,SSE,150,0.0,3.0,71,0.00,,,0.00,0.00,VWS V14.00,2013-11-05 06:18:00,
2013-11-04 23:19:00,30.1,21.9,31.10,SSE,150,0.0,3.0,71,0.00,,,0.00,0.00,VWS V14.00,2013-11-05 06:19:00,
2013-11-04 23:20:00,30.0,21.8,31.10,SSE,150,1.0,3.0,71,0.00,,,0.00,0.00,VWS V14.00,2013-11-05 06:20:00,
2013-11-04 23:21:00,30.0,21.8,31.10,SSE,150,0.0,3.0,71,0.00,,,0.00,0.00,VWS V14.00,2013-11-05 06:21:00,
2013-11-04 23:22:00,30.0,21.8,31.10,SSE,150,2.0,3.0,71,0.00,,,0.00,0.00,VWS V14.00,2013-11-05 06:22:00,
2013-11-04 23:23:00,30.0,21.8,31.10,SSE,150,1.0,3.0,71,0.00,,,0.00,0.00,VWS V14.00,2013-11-05 06:23:00,
2013-11-04 23:24:00,30.0,21.8,31.10,SSE,150,0.0,3.0,71,0.00,,,0.00,0.00,VWS V14.00,2013-11-05 06:24:00,
2013-11-04 23:25:00,30.0,21.8,31.10,SSE,150,0.0,3.0,71,0.00,,,0.00,0.00,VWS V14.00,2013-11-05 06:25:00,
2013-11-04 23:26:00,30.0,21.8,31.10,SSE,150,0.0,3.0,71,0.00,,,0.00,0.00,VWS V14.00,2013-11-05 06:26:00,
2013-11-04 23:27:00,30.0,21.8,31.10,SSE,150,2.0,3.0,71,0.00,,,0.00,0.00,VWS V14.00,2013-11-05 06:27:00,
2013-11-04 23:28:00,29.9,21.7,31.10,SSE,150,2.0,3.0,71,0.00,,,0.00,0.00,VWS V14.00,2013-11-05 06:28:00,
2013-11-04 23:29:00,29.9,21.3,31.10,SSE,150,1.0,3.0,70,0.00,,,0.00,0.00,VWS V14.00,2013-11-05 06:29:00,
2013-11-04 23:30:00,29.9,21.7,31.10,SSE,150,4.0,4.0,71,0.00,,,0.00,0.00,VWS V14.00,2013-11-05 06:30:00,
2013-11-04 23:31:00,29.9,21.3,31.10,SSE,150,3.0,4.0,70,0.00,,,0.00,0.00,VWS V14.00,2013-11-05 06:31:00,
2013-11-04 23:32:00,29.9,21.3,31.10,SSE,150,3.0,4.0,70,0.00,,,0.00,0.00,VWS V14.00,2013-11-05 06:32:00,
2013-11-04 23:33:00,29.9,21.3,31.10,SSE,156,2.0,5.0,70,0.00,,,0.00,0.00,VWS V14.00,2013-11-05 06:33:00,
2013-11-04 23:34:00,29.9,21.3,31.10,SSE,157,3.0,5.0,70,0.00,,,0.00,0.00,VWS V14.00,2013-11-05 06:34:00,
2013-11-04 23:35:00,29.9,21.3,31.10,SSE,157,2.0,5.0,70,0.00,,,0.00,0.00,VWS V14.00,2013-11-05 06:35:00,
2013-11-04 23:36:00,29.9,21.0,31.10,SSE,157,1.0,5.0,69,0.00,,,0.00,0.00,VWS V14.00,2013-11-05 06:36:00,
2013-11-04 23:37:00,29.9,21.3,31.10,SSE,156,2.0,5.0,70,0.00,,,0.00,0.00,VWS V14.00,2013-11-05 06:37:00,
2013-11-04 23:38:00,29.8,21.2,31.10,SSE,157,3.0,5.0,70,0.00,,,0.00,0.00,VWS V14.00,2013-11-05 06:38:00,
2013-11-04 23:39:00,29.9,21.0,31.10,SSE,157,3.0,5.0,69,0.00,,,0.00,0.00,VWS V14.00,2013-11-05 06:39:00,
2013-11-04 23:40:00,29.9,21.0,31.10,SSE,157,3.0,5.0,69,0.00,,,0.00,0.00,VWS V14.00,2013-11-05 06:40:00,
2013-11-04 23:41:00,29.8,20.9,31.10,SSE,156,2.0,5.0,69,0.00,,,0.00,0.00,VWS V14.00,2013-11-05 06:41:00,
2013-11-04 23:42:00,29.9,21.0,31.10,SSE,156,2.0,5.0,69,0.00,,,0.00,0.00,VWS V14.00,2013-11-05 06:42:00,
2013-11-04 23:43:00,29.8,20.9,31.10,SSE,157,2.0,5.0,69,0.00,,,0.00,0.00,VWS V14.00,2013-11-05 06:43:00,
2013-11-04 23:44:00,29.8,20.9,31.10,SSE,157,0.0,5.0,69,0.00,,,0.00,0.00,VWS V14.00,2013-11-05 06:44:00,
2013-11-04 23:45:00,29.8,20.9,31.10,SSE,157,0.0,5.0,69,0.00,,,0.00,0.00,VWS V14.00,2013-11-05 06:45:00,
2013-11-04 23:46:00,29.8,20.9,31.10,SSE,156,0.0,3.0,69,0.00,,,0.00,0.00,VWS V14.00,2013-11-05 06:46:00,
2013-11-04 23:47:00,29.8,20.9,31.10,SSE,156,0.0,3.0,69,0.00,,,0.00,0.00,VWS V14.00,2013-11-05 06:47:00,
2013-11-04 23:48:00,29.8,20.9,31.10,SSE,157,0.0,3.0,69,0.00,,,0.00,0.00,VWS V14.00,2013-11-05 06:48:00,
2013-11-04 23:49:00,29.8,20.9,31.10,SSE,156,0.0,3.0,69,0.00,,,0.00,0.00,VWS V14.00,2013-11-05 06:49:00,
2013-11-04 23:50:00,29.8,20.9,31.10,SSE,157,0.0,3.0,69,0.00,,,0.00,0.00,VWS V14.00,2013-11-05 06:50:00,
2013-11-04 23:51:00,29.8,21.2,31.10,SSE,157,0.0,3.0,70,0.00,,,0.00,0.00,VWS V14.00,2013-11-05 06:51:00,
2013-11-04 23:52:00,29.8,21.2,31.10,SSE,156,0.0,3.0,70,0.00,,,0.00,0.00,VWS V14.00,2013-11-05 06:52:00,
2013-11-04 23:53:00,29.8,20.9,31.10,SSE,157,0.0,3.0,69,0.00,,,0.00,0.00,VWS V14.00,2013-11-05 06:53:00,
2013-11-04 23:54:00,29.7,21.1,31.10,SSE,157,0.0,3.0,70,0.00,,,0.00,0.00,VWS V14.00,2013-11-05 06:54:00,
2013-11-04 23:55:00,29.8,20.9,31.10,SSE,156,0.0,3.0,69,0.00,,,0.00,0.00,VWS V14.00,2013-11-05 06:55:00,
2013-11-04 23:56:00,29.7,20.8,31.10,SSE,156,3.0,3.0,69,0.00,,,0.00,0.00,VWS V14.00,2013-11-05 06:56:00,
2013-11-04 23:57:00,29.7,20.8,31.10,SSE,156,0.0,3.0,69,0.00,,,0.00,0.00,VWS V14.00,2013-11-05 06:57:00,
2013-11-04 23:58:00,29.7,20.8,31.11,SSE,156,1.0,3.0,69,0.00,,,0.00,0.00,VWS V14.00,2013-11-05 06:58:00,
2013-11-04 23:59:00,29.7,20.8,31.10,SSE,156,2.0,3.0,69,0.00,,,0.00,0.00,VWS V14.00,2013-11-05 06:59:00,